| time (UTC) | temp F | wind direction | speed knots | gust knots | rain 1hr in | rain 24hr in | rain mn in | humidity % | barometer mb |
| 20260902100146 | 78 | 360 | 0.0 | 0.0 | 0.00 | 0.00 | 0.00 | 77 | 1015.8 |
| 20260902100026 | 78 | 360 | 0.0 | 0.0 | 0.00 | 0.00 | 0.00 | 77 | 1015.8 |
| 20260902095930 | 78 | 360 | 0.0 | 0.0 | 0.00 | 0.00 | 0.00 | 77 | 1015.8 |
| 20260902095833 | 78 | 360 | 0.0 | 0.0 | 0.00 | 0.00 | 0.00 | 77 | 1015.8 |
| 20260902095734 | 78 | 360 | 0.0 | 0.0 | 0.00 | 0.00 | 0.00 | 77 | 1015.8 |
| 20260902095635 | 78 | 360 | 0.0 | 1.7 | 0.00 | 0.00 | 0.00 | 77 | 1015.8 |
| 20260902095555 | 78 | 360 | 0.0 | 1.7 | 0.00 | 0.00 | 0.00 | 77 | 1015.9 |
| 20260902095435 | 78 | 161 | 0.0 | 1.7 | 0.00 | 0.00 | 0.00 | 77 | 1015.8 |
| 20260902095334 | 78 | 360 | 0.0 | 1.7 | 0.00 | 0.00 | 0.00 | 77 | 1015.8 |
| 20260902095240 | 78 | 360 | 0.0 | 1.7 | 0.00 | 0.00 | 0.00 | 77 | 1015.8 |
| 20260902095116 | 78 | 360 | 0.0 | 1.7 | 0.00 | 0.00 | 0.00 | 77 | 1015.8 |
| 20260902095017 | 78 | 360 | 0.0 | 1.7 | 0.00 | 0.00 | 0.00 | 77 | 1015.8 |
| 20260902094917 | 78 | 360 | 0.0 | 1.7 | 0.00 | 0.00 | 0.00 | 77 | 1015.8 |
| 20260902094839 | 78 | 360 | 0.0 | 1.7 | 0.00 | 0.00 | 0.00 | 77 | 1015.8 |
| 20260902094717 | 78 | 161 | 0.0 | 1.7 | 0.00 | 0.00 | 0.00 | 76 | 1015.8 |
| 20260902094637 | 78 | 161 | 0.9 | 1.7 | 0.00 | 0.00 | 0.00 | 76 | 1015.8 |
| 20260902094517 | 78 | 161 | 0.9 | 1.7 | 0.00 | 0.00 | 0.00 | 76 | 1015.8 |
| 20260902094420 | 79 | 161 | 0.9 | 1.7 | 0.00 | 0.00 | 0.00 | 76 | 1015.8 |
| 20260902094321 | 79 | 161 | 0.9 | 1.7 | 0.00 | 0.00 | 0.00 | 76 | 1015.8 |
| 20260902094221 | 79 | 161 | 0.9 | 1.7 | 0.00 | 0.00 | 0.00 | 76 | 1015.8 |
| 20260902094122 | 79 | 161 | 1.7 | 1.7 | 0.00 | 0.00 | 0.00 | 76 | 1015.8 |
| 20260902094021 | 79 | 161 | 1.7 | 1.7 | 0.00 | 0.00 | 0.00 | 76 | 1015.8 |
| 20260902093921 | 79 | 161 | 1.7 | 1.7 | 0.00 | 0.00 | 0.00 | 76 | 1015.8 |
| 20260902093826 | 79 | 161 | 1.7 | 1.7 | 0.00 | 0.00 | 0.00 | 76 | 1015.8 |
| 20260902093726 | 79 | 161 | 0.9 | 1.7 | 0.00 | 0.00 | 0.00 | 76 | 1015.9 |
| 20260902093627 | 79 | 161 | 0.9 | 1.7 | 0.00 | 0.00 | 0.00 | 76 | 1015.8 |
| 20260902093527 | 79 | 161 | 0.9 | 1.7 | 0.00 | 0.00 | 0.00 | 76 | 1015.9 |
| 20260902093428 | 79 | 161 | 0.9 | 1.7 | 0.00 | 0.00 | 0.00 | 76 | 1015.8 |
| 20260902093328 | 79 | 161 | 0.0 | 2.6 | 0.00 | 0.00 | 0.00 | 76 | 1015.8 |
| 20260902093249 | 79 | 161 | 0.0 | 2.6 | 0.00 | 0.00 | 0.00 | 75 | 1015.8 |
| 20260902093132 | 79 | 161 | 0.9 | 2.6 | 0.00 | 0.00 | 0.00 | 75 | 1015.7 |
| 20260902093033 | 79 | 161 | 0.9 | 2.6 | 0.00 | 0.00 | 0.00 | 76 | 1015.8 |
| 20260902092932 | 79 | 161 | 0.9 | 2.6 | 0.00 | 0.00 | 0.00 | 76 | 1015.8 |
| 20260902092834 | 79 | 161 | 0.9 | 2.6 | 0.00 | 0.00 | 0.00 | 76 | 1015.7 |
| 20260902092733 | 79 | 161 | 1.7 | 2.6 | 0.00 | 0.00 | 0.00 | 76 | 1015.8 |
| 20260902092634 | 79 | 161 | 1.7 | 2.6 | 0.00 | 0.00 | 0.00 | 76 | 1015.7 |
| 20260902092519 | 79 | 161 | 1.7 | 2.6 | 0.00 | 0.00 | 0.00 | 76 | 1015.8 |
| 20260902092438 | 79 | 153 | 1.7 | 4.3 | 0.00 | 0.00 | 0.00 | 76 | 1015.8 |
| 20260902092318 | 79 | 360 | 1.7 | 4.3 | 0.00 | 0.00 | 0.00 | 76 | 1015.8 |
| 20260902092219 | 79 | 360 | 1.7 | 4.3 | 0.00 | 0.00 | 0.00 | 76 | 1015.8 |
| 20260902092119 | 79 | 360 | 0.9 | 4.3 | 0.00 | 0.00 | 0.00 | 76 | 1015.9 |
| 20260902092020 | 79 | 360 | 0.9 | 4.3 | 0.00 | 0.00 | 0.00 | 76 | 1015.8 |
| 20260902091921 | 79 | 360 | 0.9 | 4.3 | 0.00 | 0.00 | 0.00 | 76 | 1015.8 |
| 20260902091826 | 79 | 360 | 1.7 | 4.3 | 0.00 | 0.00 | 0.00 | 76 | 1015.9 |
| 20260902091727 | 79 | 152 | 1.7 | 4.3 | 0.00 | 0.00 | 0.00 | 75 | 1015.8 |
| 20260902091628 | 79 | 360 | 1.7 | 4.3 | 0.00 | 0.00 | 0.00 | 75 | 1015.9 |
| 20260902091528 | 79 | 360 | 0.9 | 2.6 | 0.00 | 0.00 | 0.00 | 75 | 1015.8 |
| 20260902091448 | 79 | 360 | 0.9 | 2.6 | 0.00 | 0.00 | 0.00 | 75 | 1015.8 |
| 20260902091328 | 79 | 152 | 1.7 | 2.6 | 0.00 | 0.00 | 0.00 | 76 | 1015.8 |
| 20260902091229 | 79 | 152 | 1.7 | 4.3 | 0.00 | 0.00 | 0.00 | 76 | 1015.9 |
| 20260902091150 | 79 | 360 | 1.7 | 4.3 | 0.00 | 0.00 | 0.00 | 77 | 1015.9 |
| 20260902091034 | 79 | 360 | 1.7 | 4.3 | 0.00 | 0.00 | 0.00 | 77 | 1015.9 |
| 20260902090934 | 79 | 360 | 1.7 | 4.3 | 0.00 | 0.00 | 0.00 | 76 | 1015.9 |
| 20260902090834 | 79 | 360 | 1.7 | 4.3 | 0.00 | 0.00 | 0.00 | 76 | 1015.9 |
| 20260902090734 | 79 | 152 | 1.7 | 4.3 | 0.00 | 0.00 | 0.00 | 75 | 1015.9 |
| 20260902090635 | 79 | 360 | 1.7 | 4.3 | 0.00 | 0.00 | 0.00 | 75 | 1015.9 |
| 20260902090536 | 79 | 151 | 1.7 | 4.3 | 0.00 | 0.00 | 0.00 | 75 | 1015.9 |
| 20260902090419 | 79 | 360 | 2.6 | 4.3 | 0.00 | 0.00 | 0.00 | 75 | 1016.0 |
| 20260902090320 | 79 | 152 | 1.7 | 4.3 | 0.00 | 0.00 | 0.00 | 75 | 1015.9 |
| 20260902090221 | 79 | 360 | 1.7 | 2.6 | 0.00 | 0.00 | 0.00 | 75 | 1015.9 |
| 20260902090121 | 79 | 360 | 1.7 | 2.6 | 0.00 | 0.00 | 0.00 | 75 | 1015.9 |
| 20260902090041 | 79 | 360 | 0.9 | 2.6 | 0.00 | 0.00 | 0.00 | 75 | 1015.9 |
| 20260902085941 | 79 | 360 | 0.9 | 2.6 | 0.00 | 0.00 | 0.00 | 75 | 1015.9 |
| 20260902085842 | 79 | 360 | 0.9 | 2.6 | 0.00 | 0.00 | 0.00 | 75 | 1015.9 |
| 20260902085719 | 79 | 360 | 1.7 | 2.6 | 0.00 | 0.00 | 0.00 | 75 | 1015.9 |
| 20260902085624 | 79 | 360 | 1.7 | 2.6 | 0.00 | 0.00 | 0.00 | 75 | 1015.9 |
| 20260902085544 | 79 | 360 | 1.7 | 2.6 | 0.00 | 0.00 | 0.00 | 75 | 1016.0 |
| 20260902085444 | 79 | 184 | 1.7 | 2.6 | 0.00 | 0.00 | 0.00 | 75 | 1015.9 |
| 20260902085324 | 80 | 360 | 1.7 | 2.6 | 0.00 | 0.00 | 0.00 | 75 | 1015.9 |
| 20260902085224 | 80 | 184 | 1.7 | 3.5 | 0.00 | 0.00 | 0.00 | 74 | 1015.9 |
| 20260902085124 | 80 | 360 | 1.7 | 3.5 | 0.00 | 0.00 | 0.00 | 74 | 1015.9 |
| 20260902085027 | 80 | 360 | 1.7 | 3.5 | 0.00 | 0.00 | 0.00 | 74 | 1015.9 |
| 20260902084932 | 80 | 360 | 1.7 | 3.5 | 0.00 | 0.00 | 0.00 | 74 | 1015.8 |
| 20260902084832 | 80 | 184 | 1.7 | 3.5 | 0.00 | 0.00 | 0.00 | 74 | 1015.9 |
| 20260902084733 | 80 | 360 | 0.9 | 3.5 | 0.00 | 0.00 | 0.00 | 74 | 1015.9 |
| 20260902084634 | 80 | 360 | 1.7 | 3.5 | 0.00 | 0.00 | 0.00 | 74 | 1015.9 |
| 20260902084535 | 80 | 184 | 1.7 | 3.5 | 0.00 | 0.00 | 0.00 | 74 | 1015.9 |
| 20260902084435 | 80 | 360 | 1.7 | 3.5 | 0.00 | 0.00 | 0.00 | 74 | 1015.9 |
| 20260902084320 | 80 | 360 | 1.7 | 3.5 | 0.00 | 0.00 | 0.00 | 74 | 1016.0 |
| 20260902084220 | 80 | 360 | 0.9 | 3.5 | 0.00 | 0.00 | 0.00 | 74 | 1015.9 |
| 20260902084121 | 80 | 360 | 0.9 | 7.0 | 0.00 | 0.00 | 0.00 | 74 | 1016.0 |
| 20260902084042 | 80 | 360 | 1.7 | 7.0 | 0.00 | 0.00 | 0.00 | 74 | 1015.9 |
| 20260902083922 | 80 | 360 | 1.7 | 7.0 | 0.00 | 0.00 | 0.00 | 74 | 1016.0 |
| 20260902083821 | 80 | 360 | 1.7 | 7.0 | 0.00 | 0.00 | 0.00 | 74 | 1015.9 |
| 20260902083723 | 80 | 360 | 1.7 | 7.0 | 0.00 | 0.00 | 0.00 | 74 | 1015.9 |
| 20260902083628 | 80 | 360 | 1.7 | 7.0 | 0.00 | 0.00 | 0.00 | 74 | 1015.9 |
| 20260902083549 | 80 | 360 | 0.9 | 7.0 | 0.00 | 0.00 | 0.00 | 74 | 1015.9 |
| 20260902083427 | 80 | 360 | 0.9 | 7.0 | 0.00 | 0.00 | 0.00 | 74 | 1015.9 |
| 20260902083327 | 80 | 360 | 1.7 | 7.0 | 0.00 | 0.00 | 0.00 | 73 | 1015.8 |
| 20260902083226 | 80 | 360 | 1.7 | 7.0 | 0.00 | 0.00 | 0.00 | 73 | 1015.9 |
| 20260902083126 | 80 | 360 | 1.7 | 7.0 | 0.00 | 0.00 | 0.00 | 73 | 1015.9 |
| 20260902083028 | 80 | 360 | 1.7 | 7.0 | 0.00 | 0.00 | 0.00 | 73 | 1015.8 |
| 20260902082928 | 80 | 360 | 2.6 | 7.0 | 0.00 | 0.00 | 0.00 | 73 | 1015.8 |
| 20260902082830 | 80 | 360 | 3.5 | 7.0 | 0.00 | 0.00 | 0.00 | 73 | 1015.8 |
| 20260902082734 | 80 | 360 | 2.6 | 7.0 | 0.00 | 0.00 | 0.00 | 73 | 1015.8 |
| 20260902082653 | 80 | 360 | 2.6 | 5.2 | 0.00 | 0.00 | 0.00 | 73 | 1015.8 |
| 20260902082533 | 80 | 360 | 1.7 | 5.2 | 0.00 | 0.00 | 0.00 | 73 | 1015.7 |
| 20260902082433 | 80 | 360 | 1.7 | 5.2 | 0.00 | 0.00 | 0.00 | 73 | 1015.8 |
| 20260902082334 | 80 | 360 | 1.7 | 5.2 | 0.00 | 0.00 | 0.00 | 73 | 1015.7 |
| 20260902082234 | 80 | 360 | 1.7 | 5.2 | 0.00 | 0.00 | 0.00 | 73 | 1015.8 |
| 20260902082119 | 80 | 360 | 2.6 | 5.2 | 0.00 | 0.00 | 0.00 | 73 | 1015.9 |
| 20260902082039 | 80 | 360 | 2.6 | 5.2 | 0.00 | 0.00 | 0.00 | 73 | 1015.8 |
| 20260902081919 | 80 | 360 | 2.6 | 5.2 | 0.00 | 0.00 | 0.00 | 73 | 1015.8 |
| 20260902081819 | 80 | 360 | 1.7 | 3.5 | 0.00 | 0.00 | 0.00 | 73 | 1015.8 |
| 20260902081719 | 80 | 360 | 0.9 | 3.5 | 0.00 | 0.00 | 0.00 | 73 | 1015.9 |
| 20260902081639 | 80 | 360 | 0.9 | 3.5 | 0.00 | 0.00 | 0.00 | 73 | 1015.9 |
| 20260902081519 | 80 | 360 | 1.7 | 3.5 | 0.00 | 0.00 | 0.00 | 73 | 1015.9 |
| 20260902081419 | 80 | 360 | 1.7 | 3.5 | 0.00 | 0.00 | 0.00 | 73 | 1016.0 |
| 20260902081324 | 80 | 360 | 1.7 | 3.5 | 0.00 | 0.00 | 0.00 | 73 | 1016.0 |
| 20260902081244 | 80 | 360 | 0.9 | 3.5 | 0.00 | 0.00 | 0.00 | 73 | 1015.9 |
| 20260902081124 | 80 | 360 | 0.9 | 3.5 | 0.00 | 0.00 | 0.00 | 73 | 1016.0 |
| 20260902081024 | 80 | 360 | 0.9 | 3.5 | 0.00 | 0.00 | 0.00 | 73 | 1016.0 |
| 20260902080945 | 81 | 360 | 0.9 | 3.5 | 0.00 | 0.00 | 0.00 | 72 | 1016.0 |
| 20260902080824 | 81 | 360 | 0.9 | 3.5 | 0.00 | 0.00 | 0.00 | 72 | 1016.0 |
| 20260902080725 | 81 | 360 | 1.7 | 3.5 | 0.00 | 0.00 | 0.00 | 72 | 1016.0 |
| 20260902080645 | 81 | 360 | 1.7 | 3.5 | 0.00 | 0.00 | 0.00 | 72 | 1016.0 |
| 20260902080529 | 81 | 360 | 1.7 | 3.5 | 0.00 | 0.00 | 0.00 | 72 | 1016.0 |
| 20260902080430 | 81 | 360 | 1.7 | 3.5 | 0.00 | 0.00 | 0.00 | 72 | 1016.1 |
| 20260902080350 | 81 | 360 | 0.9 | 3.5 | 0.00 | 0.00 | 0.00 | 72 | 1016.1 |
| 20260902080229 | 81 | 360 | 0.9 | 2.6 | 0.00 | 0.00 | 0.00 | 72 | 1016.0 |
| 20260902080129 | 81 | 360 | 0.9 | 2.6 | 0.00 | 0.00 | 0.00 | 72 | 1016.0 |
| 20260902080049 | 81 | 360 | 0.9 | 2.6 | 0.00 | 0.00 | 0.00 | 72 | 1016.0 |
| 20260902075929 | 81 | 360 | 0.9 | 1.7 | 0.00 | 0.00 | 0.00 | 73 | 1016.0 |
| 20260902075830 | 81 | 360 | 0.9 | 1.7 | 0.00 | 0.00 | 0.00 | 73 | 1016.1 |
| 20260902075733 | 81 | 360 | 0.9 | 3.5 | 0.00 | 0.00 | 0.00 | 73 | 1016.0 |
| 20260902075634 | 81 | 360 | 0.9 | 3.5 | 0.00 | 0.00 | 0.00 | 72 | 1016.1 |
| 20260902075554 | 81 | 360 | 0.9 | 3.5 | 0.00 | 0.00 | 0.00 | 72 | 1016.0 |
| 20260902075433 | 81 | 175 | 0.9 | 3.5 | 0.00 | 0.00 | 0.00 | 72 | 1016.0 |
| 20260902075333 | 81 | 175 | 0.9 | 3.5 | 0.00 | 0.00 | 0.00 | 72 | 1016.0 |
| 20260902075234 | 81 | 360 | 0.9 | 3.5 | 0.00 | 0.00 | 0.00 | 72 | 1016.0 |
| 20260902075116 | 81 | 175 | 1.7 | 3.5 | 0.00 | 0.00 | 0.00 | 72 | 1016.0 |
| 20260902075040 | 81 | 360 | 1.7 | 3.5 | 0.00 | 0.00 | 0.00 | 72 | 1015.9 |
| 20260902074920 | 81 | 360 | 1.7 | 5.2 | 0.00 | 0.00 | 0.00 | 72 | 1016.0 |
| 20260902074820 | 81 | 360 | 1.7 | 5.2 | 0.00 | 0.00 | 0.00 | 72 | 1016.0 |
| 20260902074721 | 81 | 360 | 1.7 | 5.2 | 0.00 | 0.00 | 0.00 | 72 | 1016.0 |
| 20260902074620 | 81 | 175 | 0.9 | 5.2 | 0.00 | 0.00 | 0.00 | 72 | 1016.0 |
| 20260902074520 | 81 | 175 | 0.9 | 5.2 | 0.00 | 0.00 | 0.00 | 72 | 1016.0 |
| 20260902074422 | 81 | 360 | 0.9 | 5.2 | 0.00 | 0.00 | 0.00 | 72 | 1016.0 |
| 20260902074343 | 81 | 360 | 1.7 | 5.2 | 0.00 | 0.00 | 0.00 | 72 | 1016.0 |
| 20260902074227 | 81 | 360 | 1.7 | 5.2 | 0.00 | 0.00 | 0.00 | 72 | 1016.0 |
| 20260902074148 | 81 | 360 | 2.6 | 5.2 | 0.00 | 0.00 | 0.00 | 72 | 1016.0 |
| 20260902074027 | 81 | 360 | 1.7 | 4.3 | 0.00 | 0.00 | 0.00 | 72 | 1016.0 |
| 20260902073927 | 81 | 360 | 1.7 | 4.3 | 0.00 | 0.00 | 0.00 | 72 | 1015.9 |
| 20260902073827 | 81 | 360 | 1.7 | 4.3 | 0.00 | 0.00 | 0.00 | 72 | 1016.0 |
| 20260902073728 | 81 | 360 | 1.7 | 4.3 | 0.00 | 0.00 | 0.00 | 72 | 1016.0 |
| 20260902073649 | 81 | 360 | 1.7 | 4.3 | 0.00 | 0.00 | 0.00 | 72 | 1016.0 |
| 20260902073528 | 81 | 360 | 1.7 | 4.3 | 0.00 | 0.00 | 0.00 | 72 | 1016.0 |
| 20260902073452 | 81 | 360 | 1.7 | 7.0 | 0.00 | 0.00 | 0.00 | 72 | 1016.0 |
| 20260902073332 | 81 | 360 | 2.6 | 7.0 | 0.00 | 0.00 | 0.00 | 72 | 1016.0 |
| 20260902073234 | 81 | 360 | 2.6 | 7.0 | 0.00 | 0.00 | 0.00 | 72 | 1016.0 |
| 20260902073134 | 81 | 360 | 1.7 | 7.0 | 0.00 | 0.00 | 0.00 | 72 | 1016.0 |
| 20260902073034 | 81 | 360 | 1.7 | 7.0 | 0.00 | 0.00 | 0.00 | 72 | 1015.9 |
| 20260902072933 | 81 | 360 | 1.7 | 7.0 | 0.00 | 0.00 | 0.00 | 72 | 1016.0 |
| 20260902072835 | 81 | 360 | 2.6 | 7.0 | 0.00 | 0.00 | 0.00 | 72 | 1016.0 |
| 20260902072720 | 81 | 360 | 2.6 | 7.0 | 0.00 | 0.00 | 0.00 | 72 | 1016.0 |
| 20260902072620 | 81 | 360 | 2.6 | 7.0 | 0.00 | 0.00 | 0.00 | 72 | 1016.0 |
| 20260902072541 | 81 | 360 | 2.6 | 5.2 | 0.00 | 0.00 | 0.00 | 72 | 1016.0 |
| 20260902072421 | 81 | 360 | 2.6 | 5.2 | 0.00 | 0.00 | 0.00 | 72 | 1016.0 |
| 20260902072321 | 81 | 360 | 2.6 | 5.2 | 0.00 | 0.00 | 0.00 | 72 | 1016.0 |
| 20260902072222 | 81 | 360 | 1.7 | 5.2 | 0.00 | 0.00 | 0.00 | 72 | 1016.1 |
| 20260902072124 | 81 | 360 | 1.7 | 7.8 | 0.00 | 0.00 | 0.00 | 71 | 1016.0 |
| 20260902072023 | 81 | 360 | 1.7 | 7.8 | 0.00 | 0.00 | 0.00 | 72 | 1016.0 |
| 20260902071948 | 81 | 360 | 1.7 | 7.8 | 0.00 | 0.00 | 0.00 | 71 | 1016.0 |
| 20260902071827 | 81 | 360 | 1.7 | 7.8 | 0.00 | 0.00 | 0.00 | 72 | 1015.9 |
| 20260902071728 | 81 | 360 | 2.6 | 7.8 | 0.00 | 0.00 | 0.00 | 71 | 1016.0 |
| 20260902071649 | 81 | 360 | 1.7 | 7.8 | 0.00 | 0.00 | 0.00 | 71 | 1016.0 |
| 20260902071550 | 81 | 360 | 1.7 | 7.8 | 0.00 | 0.00 | 0.00 | 71 | 1016.0 |
| 20260902071449 | 81 | 360 | 2.6 | 5.2 | 0.00 | 0.00 | 0.00 | 71 | 1016.0 |
| 20260902071329 | 81 | 360 | 2.6 | 5.2 | 0.00 | 0.00 | 0.00 | 71 | 1016.0 |
| 20260902071230 | 81 | 360 | 1.7 | 5.2 | 0.00 | 0.00 | 0.00 | 71 | 1016.0 |
| 20260902071150 | 82 | 360 | 1.7 | 5.2 | 0.00 | 0.00 | 0.00 | 71 | 1016.1 |
| 20260902071034 | 81 | 360 | 1.7 | 5.2 | 0.00 | 0.00 | 0.00 | 71 | 1016.0 |
| 20260902070935 | 82 | 360 | 1.7 | 5.2 | 0.00 | 0.00 | 0.00 | 71 | 1016.1 |
| 20260902070816 | 82 | 360 | 1.7 | 5.2 | 0.00 | 0.00 | 0.00 | 71 | 1016.1 |
| 20260902070717 | 82 | 360 | 1.7 | 5.2 | 0.00 | 0.00 | 0.00 | 71 | 1016.1 |
| 20260902070617 | 82 | 360 | 1.7 | 5.2 | 0.00 | 0.00 | 0.00 | 71 | 1016.2 |
| 20260902070518 | 82 | 360 | 1.7 | 5.2 | 0.00 | 0.00 | 0.00 | 71 | 1016.2 |
| 20260902070422 | 82 | 360 | 2.6 | 5.2 | 0.00 | 0.00 | 0.00 | 71 | 1016.2 |
| 20260902070343 | 82 | 360 | 2.6 | 5.2 | 0.00 | 0.00 | 0.00 | 71 | 1016.1 |
| 20260902070216 | 82 | 360 | 1.7 | 8.7 | 0.00 | 0.00 | 0.00 | 71 | 1016.1 |
| 20260902070116 | 82 | 360 | 1.7 | 8.7 | 0.00 | 0.00 | 0.00 | 71 | 1016.1 |
| 20260902070017 | 82 | 360 | 1.7 | 8.7 | 0.00 | 0.00 | 0.00 | 71 | 1016.1 |
| 20260902065917 | 82 | 360 | 1.7 | 9.6 | 0.00 | 0.00 | 0.00 | 71 | 1016.1 |
| 20260902065818 | 82 | 360 | 1.7 | 9.6 | 0.00 | 0.00 | 0.00 | 71 | 1016.2 |
| 20260902065723 | 82 | 360 | 1.7 | 9.6 | 0.00 | 0.00 | 0.00 | 71 | 1016.1 |
| 20260902065623 | 82 | 360 | 2.6 | 9.6 | 0.00 | 0.00 | 0.00 | 71 | 1016.1 |
| 20260902065524 | 82 | 360 | 2.6 | 9.6 | 0.00 | 0.00 | 0.00 | 71 | 1016.1 |
| 20260902065425 | 82 | 360 | 2.6 | 9.6 | 0.00 | 0.00 | 0.00 | 71 | 1016.1 |
| 20260902065326 | 82 | 360 | 2.6 | 9.6 | 0.00 | 0.00 | 0.00 | 71 | 1016.0 |
| 20260902065226 | 82 | 360 | 3.5 | 9.6 | 0.00 | 0.00 | 0.00 | 71 | 1016.1 |
| 20260902065130 | 82 | 360 | 2.6 | 9.6 | 0.00 | 0.00 | 0.00 | 72 | 1016.1 |
| 20260902065032 | 82 | 360 | 2.6 | 9.6 | 0.00 | 0.00 | 0.00 | 72 | 1016.1 |
| 20260902064932 | 82 | 360 | 2.6 | 7.8 | 0.00 | 0.00 | 0.00 | 72 | 1016.1 |
| 20260902064832 | 82 | 360 | 2.6 | 7.8 | 0.00 | 0.00 | 0.00 | 72 | 1016.1 |
| 20260902064731 | 82 | 360 | 1.7 | 7.8 | 0.00 | 0.00 | 0.00 | 72 | 1016.1 |
| 20260902064632 | 82 | 360 | 1.7 | 7.8 | 0.00 | 0.00 | 0.00 | 73 | 1016.1 |
| 20260902064533 | 82 | 360 | 1.7 | 7.8 | 0.00 | 0.00 | 0.00 | 73 | 1016.1 |
| 20260902064417 | 82 | 360 | 1.7 | 7.8 | 0.00 | 0.00 | 0.00 | 72 | 1016.0 |
| 20260902064317 | 82 | 360 | 1.7 | 7.8 | 0.00 | 0.00 | 0.00 | 72 | 1016.1 |
| 20260902064217 | 82 | 360 | 1.7 | 7.8 | 0.00 | 0.00 | 0.00 | 72 | 1016.0 |
| 20260902064118 | 82 | 360 | 1.7 | 7.8 | 0.00 | 0.00 | 0.00 | 72 | 1016.0 |
| 20260902064038 | 82 | 360 | 2.6 | 8.7 | 0.00 | 0.00 | 0.00 | 72 | 1016.1 |
| 20260902063918 | 82 | 360 | 2.6 | 8.7 | 0.00 | 0.00 | 0.00 | 72 | 1016.1 |
| 20260902063819 | 82 | 360 | 2.6 | 8.7 | 0.00 | 0.00 | 0.00 | 72 | 1016.1 |
| 20260902063722 | 82 | 360 | 1.7 | 8.7 | 0.00 | 0.00 | 0.00 | 72 | 1016.1 |
| 20260902063623 | 82 | 360 | 1.7 | 8.7 | 0.00 | 0.00 | 0.00 | 72 | 1016.1 |
| 20260902063543 | 82 | 360 | 0.9 | 8.7 | 0.00 | 0.00 | 0.00 | 72 | 1016.1 |
| 20260902063416 | 82 | 360 | 1.7 | 8.7 | 0.00 | 0.00 | 0.00 | 72 | 1016.0 |
| 20260902063317 | 82 | 360 | 2.6 | 8.7 | 0.00 | 0.00 | 0.00 | 72 | 1016.1 |
| 20260902063218 | 82 | 360 | 2.6 | 8.7 | 0.00 | 0.00 | 0.00 | 72 | 1016.1 |
| 20260902063122 | 82 | 360 | 2.6 | 8.7 | 0.00 | 0.00 | 0.00 | 72 | 1016.1 |
| 20260902063043 | 82 | 360 | 2.6 | 8.7 | 0.00 | 0.00 | 0.00 | 72 | 1016.1 |
| 20260902062922 | 82 | 360 | 2.6 | 8.7 | 0.00 | 0.00 | 0.00 | 72 | 1016.1 |
| 20260902062824 | 82 | 360 | 2.6 | 8.7 | 0.00 | 0.00 | 0.00 | 72 | 1016.1 |
| 20260902062722 | 82 | 360 | 1.7 | 8.7 | 0.00 | 0.00 | 0.00 | 72 | 1016.1 |
| 20260902062622 | 82 | 360 | 2.6 | 8.7 | 0.00 | 0.00 | 0.00 | 72 | 1016.2 |
| 20260902062523 | 82 | 360 | 2.6 | 8.7 | 0.00 | 0.00 | 0.00 | 72 | 1016.0 |
| 20260902062444 | 82 | 360 | 2.6 | 8.7 | 0.00 | 0.00 | 0.00 | 73 | 1016.2 |
| 20260902062327 | 82 | 360 | 1.7 | 7.8 | 0.00 | 0.00 | 0.00 | 72 | 1016.1 |
| 20260902062228 | 82 | 360 | 1.7 | 7.8 | 0.00 | 0.00 | 0.00 | 72 | 1016.1 |
| 20260902062129 | 82 | 360 | 2.6 | 7.8 | 0.00 | 0.00 | 0.00 | 73 | 1016.1 |
| 20260902062050 | 82 | 360 | 2.6 | 7.0 | 0.00 | 0.00 | 0.00 | 73 | 1016.1 |
| 20260902061929 | 82 | 360 | 2.6 | 7.8 | 0.00 | 0.00 | 0.00 | 73 | 1016.1 |
| 20260902061848 | 82 | 360 | 1.7 | 7.8 | 0.00 | 0.00 | 0.00 | 73 | 1016.1 |
| 20260902061728 | 82 | 360 | 1.7 | 7.8 | 0.00 | 0.00 | 0.00 | 72 | 1016.0 |
| 20260902061633 | 82 | 360 | 1.7 | 7.8 | 0.00 | 0.00 | 0.00 | 72 | 1016.0 |
| 20260902061532 | 82 | 360 | 1.7 | 7.8 | 0.00 | 0.00 | 0.00 | 72 | 1016.1 |
| 20260902061434 | 82 | 360 | 1.7 | 7.8 | 0.00 | 0.00 | 0.00 | 72 | 1016.1 |
| 20260902061335 | 82 | 360 | 2.6 | 7.8 | 0.00 | 0.00 | 0.00 | 72 | 1016.1 |
| 20260902061235 | 82 | 360 | 2.6 | 7.8 | 0.00 | 0.00 | 0.00 | 72 | 1016.1 |
| 20260902061136 | 82 | 360 | 2.6 | 7.8 | 0.00 | 0.00 | 0.00 | 72 | 1016.1 |
| 20260902061020 | 82 | 360 | 2.6 | 8.7 | 0.00 | 0.00 | 0.00 | 72 | 1016.1 |
| 20260902060940 | 82 | 360 | 2.6 | 8.7 | 0.00 | 0.00 | 0.00 | 72 | 1016.2 |
| 20260902060819 | 82 | 360 | 2.6 | 8.7 | 0.00 | 0.00 | 0.00 | 72 | 1016.1 |
| 20260902060720 | 82 | 360 | 2.6 | 8.7 | 0.00 | 0.00 | 0.00 | 72 | 1016.1 |
| 20260902060620 | 82 | 360 | 2.6 | 8.7 | 0.00 | 0.00 | 0.00 | 72 | 1016.1 |
| 20260902060520 | 82 | 360 | 2.6 | 11.3 | 0.00 | 0.00 | 0.00 | 72 | 1016.1 |
| 20260902060442 | 82 | 360 | 2.6 | 11.3 | 0.00 | 0.00 | 0.00 | 72 | 1016.0 |
| 20260902060322 | 82 | 360 | 2.6 | 11.3 | 0.00 | 0.00 | 0.00 | 72 | 1016.1 |
| 20260902060226 | 83 | 360 | 3.5 | 11.3 | 0.00 | 0.00 | 0.00 | 72 | 1016.1 |
| 20260902060127 | 83 | 360 | 3.5 | 11.3 | 0.00 | 0.00 | 0.00 | 72 | 1016.1 |
| 20260902060027 | 83 | 360 | 2.6 | 11.3 | 0.00 | 0.00 | 0.00 | 72 | 1016.0 |
| 20260902055927 | 83 | 360 | 1.7 | 11.3 | 0.00 | 0.00 | 0.00 | 72 | 1016.1 |
| 20260902055849 | 83 | 360 | 1.7 | 11.3 | 0.00 | 0.00 | 0.00 | 72 | 1016.0 |
| 20260902055724 | 83 | 360 | 2.6 | 11.3 | 0.00 | 0.00 | 0.00 | 72 | 1016.1 |
| 20260902055624 | 83 | 360 | 2.6 | 11.3 | 0.00 | 0.00 | 0.00 | 72 | 1016.1 |
| 20260902055524 | 83 | 360 | 2.6 | 11.3 | 0.00 | 0.00 | 0.00 | 72 | 1016.1 |
| 20260902055449 | 83 | 360 | 1.7 | 11.3 | 0.00 | 0.00 | 0.00 | 72 | 1016.1 |
| 20260902055328 | 83 | 360 | 2.6 | 10.4 | 0.00 | 0.00 | 0.00 | 72 | 1016.1 |
| 20260902055229 | 83 | 360 | 3.5 | 10.4 | 0.00 | 0.00 | 0.00 | 72 | 1016.1 |
| 20260902055150 | 83 | 360 | 4.3 | 10.4 | 0.00 | 0.00 | 0.00 | 72 | 1016.1 |
| 20260902055050 | 83 | 360 | 5.2 | 10.4 | 0.00 | 0.00 | 0.00 | 72 | 1016.2 |
| 20260902054928 | 83 | 360 | 3.5 | 10.4 | 0.00 | 0.00 | 0.00 | 72 | 1016.1 |
| 20260902054828 | 83 | 360 | 4.3 | 10.4 | 0.00 | 0.00 | 0.00 | 72 | 1016.1 |
| 20260902054729 | 83 | 360 | 3.5 | 10.4 | 0.00 | 0.00 | 0.00 | 72 | 1016.1 |
| 20260902054650 | 83 | 360 | 4.3 | 10.4 | 0.00 | 0.00 | 0.00 | 72 | 1016.2 |
| 20260902054533 | 83 | 360 | 3.5 | 10.4 | 0.00 | 0.00 | 0.00 | 72 | 1016.1 |
| 20260902054433 | 83 | 360 | 4.3 | 10.4 | 0.00 | 0.00 | 0.00 | 72 | 1016.0 |
| 20260902054354 | 83 | 360 | 4.3 | 10.4 | 0.00 | 0.00 | 0.00 | 72 | 1016.1 |
| 20260902054254 | 83 | 360 | 4.3 | 10.4 | 0.00 | 0.00 | 0.00 | 71 | 1016.1 |
| 20260902054133 | 83 | 360 | 3.5 | 10.4 | 0.00 | 0.00 | 0.00 | 71 | 1016.1 |
| 20260902054033 | 83 | 360 | 3.5 | 9.6 | 0.00 | 0.00 | 0.00 | 71 | 1016.1 |
| 20260902053933 | 83 | 360 | 3.5 | 9.6 | 0.00 | 0.00 | 0.00 | 71 | 1016.1 |
| 20260902053855 | 83 | 360 | 3.5 | 9.6 | 0.00 | 0.00 | 0.00 | 71 | 1016.1 |
| 20260902053738 | 83 | 360 | 3.5 | 9.6 | 0.00 | 0.00 | 0.00 | 71 | 1016.1 |
| 20260902053618 | 83 | 360 | 3.5 | 11.3 | 0.00 | 0.00 | 0.00 | 71 | 1016.1 |
| 20260902053517 | 83 | 360 | 3.5 | 11.3 | 0.00 | 0.00 | 0.00 | 71 | 1016.0 |
| 20260902053418 | 83 | 360 | 3.5 | 11.3 | 0.00 | 0.00 | 0.00 | 71 | 1016.0 |
| 20260902053318 | 83 | 360 | 3.5 | 11.3 | 0.00 | 0.00 | 0.00 | 71 | 1016.0 |
| 20260902053218 | 83 | 360 | 4.3 | 11.3 | 0.00 | 0.00 | 0.00 | 71 | 1016.0 |
| 20260902053140 | 83 | 360 | 5.2 | 11.3 | 0.00 | 0.00 | 0.00 | 71 | 1016.0 |
| 20260902053023 | 83 | 360 | 5.2 | 11.3 | 0.00 | 0.00 | 0.00 | 71 | 1016.1 |
| 20260902052944 | 83 | 360 | 5.2 | 11.3 | 0.00 | 0.00 | 0.00 | 71 | 1016.1 |
| 20260902052845 | 83 | 360 | 4.3 | 11.3 | 0.00 | 0.00 | 0.00 | 71 | 1016.0 |
| 20260902052723 | 83 | 360 | 4.3 | 8.7 | 0.00 | 0.00 | 0.00 | 71 | 1016.1 |
| 20260902052643 | 83 | 360 | 4.3 | 11.3 | 0.00 | 0.00 | 0.00 | 71 | 1016.1 |
| 20260902052523 | 83 | 360 | 4.3 | 11.3 | 0.00 | 0.00 | 0.00 | 71 | 1016.1 |
| 20260902052423 | 83 | 360 | 3.5 | 11.3 | 0.00 | 0.00 | 0.00 | 71 | 1016.0 |
| 20260902052324 | 83 | 360 | 2.6 | 11.3 | 0.00 | 0.00 | 0.00 | 71 | 1016.0 |
| 20260902052228 | 83 | 360 | 3.5 | 11.3 | 0.00 | 0.00 | 0.00 | 71 | 1016.1 |
| 20260902052128 | 83 | 360 | 4.3 | 11.3 | 0.00 | 0.00 | 0.00 | 71 | 1016.1 |
| 20260902052029 | 83 | 360 | 5.2 | 11.3 | 0.00 | 0.00 | 0.00 | 71 | 1016.0 |
| 20260902051930 | 84 | 360 | 5.2 | 11.3 | 0.00 | 0.00 | 0.00 | 71 | 1016.1 |
| 20260902051830 | 84 | 360 | 5.2 | 11.3 | 0.00 | 0.00 | 0.00 | 71 | 1016.1 |
| 20260902051731 | 84 | 360 | 5.2 | 13.9 | 0.00 | 0.00 | 0.00 | 70 | 1016.1 |
| 20260902051631 | 84 | 360 | 4.3 | 13.9 | 0.00 | 0.00 | 0.00 | 70 | 1016.1 |
| 20260902051556 | 84 | 360 | 4.3 | 13.9 | 0.00 | 0.00 | 0.00 | 70 | 1016.1 |
| 20260902051434 | 84 | 360 | 5.2 | 13.9 | 0.00 | 0.00 | 0.00 | 70 | 1016.1 |
| 20260902051334 | 84 | 360 | 4.3 | 13.9 | 0.00 | 0.00 | 0.00 | 70 | 1016.1 |
| 20260902051234 | 84 | 360 | 5.2 | 13.9 | 0.00 | 0.00 | 0.00 | 70 | 1016.1 |
| 20260902051135 | 84 | 360 | 6.1 | 13.9 | 0.00 | 0.00 | 0.00 | 70 | 1016.1 |
| 20260902051054 | 84 | 360 | 6.1 | 13.9 | 0.00 | 0.00 | 0.00 | 70 | 1016.1 |
| 20260902050934 | 84 | 360 | 6.1 | 13.9 | 0.00 | 0.00 | 0.00 | 70 | 1016.1 |
| 20260902050820 | 84 | 360 | 6.1 | 11.3 | 0.00 | 0.00 | 0.00 | 70 | 1016.1 |
| 20260902050720 | 84 | 360 | 5.2 | 11.3 | 0.00 | 0.00 | 0.00 | 70 | 1016.1 |
| 20260902050620 | 84 | 360 | 5.2 | 11.3 | 0.00 | 0.00 | 0.00 | 70 | 1016.1 |
| 20260902050521 | 84 | 360 | 4.3 | 12.2 | 0.00 | 0.00 | 0.00 | 70 | 1016.2 |
| 20260902050422 | 84 | 360 | 4.3 | 12.2 | 0.00 | 0.00 | 0.00 | 70 | 1016.1 |
| 20260902050322 | 84 | 360 | 5.2 | 12.2 | 0.00 | 0.00 | 0.00 | 70 | 1016.2 |
| 20260902050227 | 84 | 360 | 5.2 | 12.2 | 0.00 | 0.00 | 0.00 | 70 | 1016.2 |
| 20260902050127 | 84 | 360 | 6.1 | 12.2 | 0.00 | 0.00 | 0.00 | 70 | 1016.2 |
| 20260902050028 | 84 | 360 | 6.1 | 12.2 | 0.00 | 0.00 | 0.00 | 70 | 1016.2 |
| 20260902045922 | 84 | 360 | 7.0 | 12.2 | 0.00 | 0.00 | 0.00 | 70 | 1016.1 |
| 20260902045823 | 84 | 360 | 7.0 | 12.2 | 0.00 | 0.00 | 0.00 | 70 | 1016.2 |
| 20260902045723 | 84 | 360 | 6.1 | 12.2 | 0.00 | 0.00 | 0.00 | 70 | 1016.2 |
| 20260902045622 | 84 | 360 | 6.1 | 12.2 | 0.00 | 0.00 | 0.00 | 70 | 1016.1 |
| 20260902045543 | 84 | 360 | 5.2 | 11.3 | 0.00 | 0.00 | 0.00 | 70 | 1016.2 |
| 20260902045426 | 84 | 360 | 6.1 | 9.6 | 0.00 | 0.00 | 0.00 | 69 | 1016.2 |
| 20260902045327 | 84 | 360 | 6.1 | 9.6 | 0.00 | 0.00 | 0.00 | 69 | 1016.2 |
| 20260902045227 | 84 | 360 | 5.2 | 9.6 | 0.00 | 0.00 | 0.00 | 69 | 1016.1 |
| 20260902045148 | 84 | 360 | 5.2 | 9.6 | 0.00 | 0.00 | 0.00 | 69 | 1016.2 |
| 20260902045026 | 84 | 360 | 5.2 | 8.7 | 0.00 | 0.00 | 0.00 | 69 | 1016.2 |
| 20260902044945 | 84 | 360 | 6.1 | 8.7 | 0.00 | 0.00 | 0.00 | 69 | 1016.2 |
| 20260902044825 | 84 | 360 | 5.2 | 8.7 | 0.00 | 0.00 | 0.00 | 69 | 1016.2 |
| 20260902044726 | 84 | 360 | 5.2 | 8.7 | 0.00 | 0.00 | 0.00 | 69 | 1016.1 |
| 20260902044630 | 84 | 360 | 5.2 | 8.7 | 0.00 | 0.00 | 0.00 | 69 | 1016.2 |
| 20260902044530 | 84 | 360 | 4.3 | 10.4 | 0.00 | 0.00 | 0.00 | 69 | 1016.1 |
| 20260902044431 | 84 | 360 | 4.3 | 10.4 | 0.00 | 0.00 | 0.00 | 69 | 1016.1 |
| 20260902044351 | 84 | 182 | 4.3 | 10.4 | 0.00 | 0.00 | 0.00 | 69 | 1016.1 |
| 20260902044251 | 84 | 360 | 4.3 | 10.4 | 0.00 | 0.00 | 0.00 | 69 | 1016.1 |
| 20260902044130 | 85 | 360 | 5.2 | 10.4 | 0.00 | 0.00 | 0.00 | 69 | 1016.1 |
| 20260902044051 | 85 | 360 | 5.2 | 10.4 | 0.00 | 0.00 | 0.00 | 68 | 1016.1 |
| 20260902043950 | 85 | 360 | 6.1 | 10.4 | 0.00 | 0.00 | 0.00 | 68 | 1016.1 |
| 20260902043834 | 85 | 360 | 6.1 | 10.4 | 0.00 | 0.00 | 0.00 | 68 | 1016.1 |
| 20260902043735 | 85 | 360 | 6.1 | 10.4 | 0.00 | 0.00 | 0.00 | 68 | 1016.1 |
| 20260902043635 | 85 | 360 | 5.2 | 10.4 | 0.00 | 0.00 | 0.00 | 68 | 1016.0 |
| 20260902043536 | 85 | 360 | 5.2 | 10.4 | 0.00 | 0.00 | 0.00 | 68 | 1016.0 |
| 20260902043458 | 85 | 360 | 5.2 | 10.4 | 0.00 | 0.00 | 0.00 | 68 | 1016.1 |
| 20260902043357 | 85 | 360 | 4.3 | 10.4 | 0.00 | 0.00 | 0.00 | 68 | 1016.0 |
| 20260902043257 | 85 | 360 | 5.2 | 10.4 | 0.00 | 0.00 | 0.00 | 68 | 1016.0 |
| 20260902043135 | 85 | 360 | 5.2 | 10.4 | 0.00 | 0.00 | 0.00 | 68 | 1016.1 |
| 20260902043019 | 85 | 360 | 5.2 | 13.0 | 0.00 | 0.00 | 0.00 | 68 | 1016.0 |
| 20260902042939 | 85 | 360 | 5.2 | 13.0 | 0.00 | 0.00 | 0.00 | 68 | 1016.1 |
| 20260902042820 | 85 | 360 | 5.2 | 13.0 | 0.00 | 0.00 | 0.00 | 68 | 1016.1 |
| 20260902042719 | 85 | 360 | 6.1 | 13.0 | 0.00 | 0.00 | 0.00 | 67 | 1016.1 |
| 20260902042620 | 85 | 360 | 6.1 | 13.0 | 0.00 | 0.00 | 0.00 | 67 | 1016.1 |
| 20260902042520 | 85 | 360 | 6.1 | 13.0 | 0.00 | 0.00 | 0.00 | 67 | 1016.1 |
| 20260902042420 | 85 | 360 | 7.0 | 13.0 | 0.00 | 0.00 | 0.00 | 67 | 1016.1 |
| 20260902042319 | 85 | 360 | 7.8 | 13.0 | 0.00 | 0.00 | 0.00 | 67 | 1016.1 |
| 20260902042224 | 85 | 360 | 7.0 | 13.0 | 0.00 | 0.00 | 0.00 | 67 | 1016.0 |
| 20260902042125 | 85 | 360 | 7.0 | 10.4 | 0.00 | 0.00 | 0.00 | 67 | 1016.1 |
| 20260902042045 | 85 | 360 | 7.0 | 11.3 | 0.00 | 0.00 | 0.00 | 67 | 1016.1 |
| 20260902041924 | 85 | 360 | 7.0 | 11.3 | 0.00 | 0.00 | 0.00 | 67 | 1016.1 |
| 20260902041824 | 85 | 360 | 6.1 | 11.3 | 0.00 | 0.00 | 0.00 | 67 | 1016.1 |
| 20260902041725 | 85 | 360 | 6.1 | 11.3 | 0.00 | 0.00 | 0.00 | 67 | 1016.2 |
| 20260902041626 | 86 | 360 | 5.2 | 11.3 | 0.00 | 0.00 | 0.00 | 67 | 1016.1 |
| 20260902041529 | 86 | 360 | 5.2 | 11.3 | 0.00 | 0.00 | 0.00 | 67 | 1016.1 |
| 20260902041429 | 86 | 360 | 7.0 | 11.3 | 0.00 | 0.00 | 0.00 | 66 | 1016.1 |
| 20260902041330 | 86 | 360 | 7.8 | 11.3 | 0.00 | 0.00 | 0.00 | 66 | 1016.1 |
| 20260902041228 | 86 | 360 | 7.8 | 11.3 | 0.00 | 0.00 | 0.00 | 66 | 1016.1 |
| 20260902041128 | 86 | 360 | 7.0 | 11.3 | 0.00 | 0.00 | 0.00 | 66 | 1016.1 |
| 20260902041027 | 86 | 360 | 7.0 | 11.3 | 0.00 | 0.00 | 0.00 | 66 | 1016.1 |
| 20260902040928 | 86 | 360 | 7.0 | 11.3 | 0.00 | 0.00 | 0.00 | 66 | 1016.1 |
| 20260902040827 | 86 | 360 | 7.0 | 11.3 | 0.00 | 0.00 | 0.00 | 65 | 1016.2 |
| 20260902040732 | 86 | 360 | 7.0 | 11.3 | 0.00 | 0.00 | 0.00 | 65 | 1016.1 |
| 20260902040632 | 86 | 360 | 6.1 | 11.3 | 0.00 | 0.00 | 0.00 | 65 | 1016.2 |
| 20260902040533 | 86 | 360 | 6.1 | 10.4 | 0.00 | 0.00 | 0.00 | 65 | 1016.1 |
| 20260902040432 | 86 | 360 | 7.0 | 10.4 | 0.00 | 0.00 | 0.00 | 65 | 1016.1 |
| 20260902040332 | 86 | 360 | 7.8 | 10.4 | 0.00 | 0.00 | 0.00 | 65 | 1016.1 |
| 20260902040233 | 86 | 360 | 7.8 | 10.4 | 0.00 | 0.00 | 0.00 | 65 | 1016.1 |
| 20260902040117 | 86 | 360 | 7.0 | 10.4 | 0.00 | 0.00 | 0.00 | 65 | 1016.0 |
| 20260902040019 | 86 | 360 | 7.0 | 10.4 | 0.00 | 0.00 | 0.00 | 65 | 1016.0 |
| 20260902035919 | 86 | 360 | 6.1 | 10.4 | 0.00 | 0.00 | 0.00 | 65 | 1016.0 |
| 20260902035842 | 86 | 171 | 6.1 | 10.4 | 0.00 | 0.00 | 0.00 | 64 | 1016.0 |
| 20260902035740 | 86 | 360 | 6.1 | 10.4 | 0.00 | 0.00 | 0.00 | 64 | 1016.1 |
| 20260902035619 | 86 | 360 | 6.1 | 13.0 | 0.00 | 0.00 | 0.00 | 64 | 1016.1 |
| 20260902035521 | 86 | 360 | 7.0 | 13.0 | 0.00 | 0.00 | 0.00 | 64 | 1016.0 |
| 20260902035422 | 86 | 360 | 7.0 | 13.0 | 0.00 | 0.00 | 0.00 | 64 | 1016.0 |
| 20260902035326 | 86 | 360 | 6.1 | 13.0 | 0.00 | 0.00 | 0.00 | 64 | 1016.0 |
| 20260902035227 | 86 | 360 | 6.1 | 13.0 | 0.00 | 0.00 | 0.00 | 64 | 1016.1 |
| 20260902035127 | 86 | 360 | 6.1 | 13.0 | 0.00 | 0.00 | 0.00 | 64 | 1016.0 |
| 20260902035027 | 86 | 360 | 7.0 | 13.0 | 0.00 | 0.00 | 0.00 | 64 | 1016.0 |
| 20260902034928 | 86 | 360 | 7.8 | 13.0 | 0.00 | 0.00 | 0.00 | 64 | 1016.0 |
| 20260902034829 | 86 | 360 | 7.8 | 13.0 | 0.00 | 0.00 | 0.00 | 64 | 1016.0 |
| 20260902034749 | 86 | 360 | 7.0 | 13.0 | 0.00 | 0.00 | 0.00 | 64 | 1015.9 |
| 20260902034633 | 86 | 360 | 7.0 | 13.0 | 0.00 | 0.00 | 0.00 | 64 | 1015.9 |
| 20260902034533 | 86 | 360 | 7.8 | 13.0 | 0.00 | 0.00 | 0.00 | 64 | 1015.9 |
| 20260902034433 | 86 | 360 | 8.7 | 13.0 | 0.00 | 0.00 | 0.00 | 64 | 1015.9 |
| 20260902034335 | 86 | 360 | 7.8 | 13.0 | 0.00 | 0.00 | 0.00 | 64 | 1015.9 |
| 20260902034233 | 86 | 360 | 6.1 | 12.2 | 0.00 | 0.00 | 0.00 | 64 | 1015.8 |
| 20260902034134 | 86 | 360 | 6.1 | 9.6 | 0.00 | 0.00 | 0.00 | 64 | 1015.9 |
| 20260902034034 | 86 | 360 | 6.1 | 9.6 | 0.00 | 0.00 | 0.00 | 64 | 1015.8 |
| 20260902033919 | 86 | 360 | 5.2 | 9.6 | 0.00 | 0.00 | 0.00 | 63 | 1015.8 |
| 20260902033820 | 86 | 360 | 5.2 | 9.6 | 0.00 | 0.00 | 0.00 | 63 | 1015.8 |
| 20260902033720 | 86 | 360 | 6.1 | 9.6 | 0.00 | 0.00 | 0.00 | 63 | 1015.7 |
| 20260902033620 | 87 | 360 | 6.1 | 9.6 | 0.00 | 0.00 | 0.00 | 63 | 1015.8 |
| 20260902033521 | 86 | 360 | 6.1 | 9.6 | 0.00 | 0.00 | 0.00 | 63 | 1015.8 |
| 20260902033422 | 87 | 360 | 6.1 | 9.6 | 0.00 | 0.00 | 0.00 | 63 | 1015.7 |
| 20260902033327 | 86 | 360 | 6.1 | 9.6 | 0.00 | 0.00 | 0.00 | 63 | 1015.8 |
| 20260902033228 | 86 | 360 | 5.2 | 9.6 | 0.00 | 0.00 | 0.00 | 63 | 1015.7 |
| 20260902033148 | 87 | 360 | 4.3 | 8.7 | 0.00 | 0.00 | 0.00 | 63 | 1015.8 |
| 20260902033027 | 87 | 360 | 4.3 | 8.7 | 0.00 | 0.00 | 0.00 | 63 | 1015.7 |
| 20260902032927 | 87 | 360 | 4.3 | 8.7 | 0.00 | 0.00 | 0.00 | 63 | 1015.6 |
| 20260902032830 | 87 | 360 | 5.2 | 8.7 | 0.00 | 0.00 | 0.00 | 63 | 1015.8 |
| 20260902032730 | 87 | 360 | 5.2 | 8.7 | 0.00 | 0.00 | 0.00 | 63 | 1015.7 |
| 20260902032635 | 87 | 360 | 6.1 | 8.7 | 0.00 | 0.00 | 0.00 | 63 | 1015.6 |
| 20260902032555 | 87 | 360 | 6.1 | 8.7 | 0.00 | 0.00 | 0.00 | 62 | 1015.7 |
| 20260902032454 | 87 | 360 | 5.2 | 8.7 | 0.00 | 0.00 | 0.00 | 62 | 1015.7 |
| 20260902032316 | 87 | 360 | 4.3 | 7.8 | 0.00 | 0.00 | 0.00 | 62 | 1015.8 |
| 20260902032236 | 87 | 360 | 4.3 | 7.8 | 0.00 | 0.00 | 0.00 | 62 | 1015.7 |
| 20260902032157 | 87 | 360 | 5.2 | 7.8 | 0.00 | 0.00 | 0.00 | 62 | 1015.8 |
| 20260902032056 | 87 | 360 | 5.2 | 7.8 | 0.00 | 0.00 | 0.00 | 62 | 1015.8 |
| 20260902031935 | 87 | 360 | 5.2 | 7.8 | 0.00 | 0.00 | 0.00 | 62 | 1015.7 |
| 20260902031820 | 87 | 360 | 5.2 | 7.8 | 0.00 | 0.00 | 0.00 | 62 | 1015.8 |
| 20260902031720 | 87 | 360 | 4.3 | 7.8 | 0.00 | 0.00 | 0.00 | 62 | 1015.7 |
| 20260902031621 | 87 | 360 | 4.3 | 7.8 | 0.00 | 0.00 | 0.00 | 62 | 1015.7 |
| 20260902031520 | 87 | 360 | 4.3 | 7.0 | 0.00 | 0.00 | 0.00 | 62 | 1015.7 |
| 20260902031420 | 87 | 360 | 3.5 | 7.0 | 0.00 | 0.00 | 0.00 | 62 | 1015.7 |
| 20260902031321 | 87 | 360 | 3.5 | 7.0 | 0.00 | 0.00 | 0.00 | 62 | 1015.6 |
| 20260902031242 | 87 | 360 | 2.6 | 7.0 | 0.00 | 0.00 | 0.00 | 62 | 1015.6 |
| 20260902031121 | 87 | 360 | 2.6 | 5.2 | 0.00 | 0.00 | 0.00 | 62 | 1015.6 |
| 20260902031026 | 87 | 360 | 2.6 | 4.3 | 0.00 | 0.00 | 0.00 | 62 | 1015.5 |
| 20260902030927 | 87 | 360 | 3.5 | 4.3 | 0.00 | 0.00 | 0.00 | 61 | 1015.5 |
| 20260902030828 | 87 | 360 | 2.6 | 4.3 | 0.00 | 0.00 | 0.00 | 61 | 1015.5 |
| 20260902030729 | 87 | 360 | 2.6 | 4.3 | 0.00 | 0.00 | 0.00 | 61 | 1015.5 |
| 20260902030629 | 87 | 360 | 2.6 | 5.2 | 0.00 | 0.00 | 0.00 | 61 | 1015.5 |
| 20260902030529 | 87 | 360 | 2.6 | 5.2 | 0.00 | 0.00 | 0.00 | 61 | 1015.5 |
| 20260902030434 | 87 | 360 | 2.6 | 5.2 | 0.00 | 0.00 | 0.00 | 61 | 1015.5 |
| 20260902030355 | 87 | 360 | 2.6 | 5.2 | 0.00 | 0.00 | 0.00 | 61 | 1015.5 |
| 20260902030235 | 87 | 360 | 2.6 | 5.2 | 0.00 | 0.00 | 0.00 | 61 | 1015.4 |
| 20260902030155 | 87 | 360 | 2.6 | 5.2 | 0.00 | 0.00 | 0.00 | 61 | 1015.3 |
| 20260902030035 | 87 | 360 | 3.5 | 5.2 | 0.00 | 0.00 | 0.00 | 61 | 1015.4 |
| 20260902025936 | 87 | 360 | 3.5 | 5.2 | 0.00 | 0.00 | 0.00 | 61 | 1015.4 |
| 20260902025817 | 87 | 360 | 3.5 | 5.2 | 0.00 | 0.00 | 0.00 | 60 | 1015.4 |
| 20260902025721 | 87 | 360 | 3.5 | 5.2 | 0.00 | 0.00 | 0.00 | 60 | 1015.3 |
| 20260902025622 | 87 | 360 | 3.5 | 5.2 | 0.00 | 0.00 | 0.00 | 60 | 1015.3 |
| 20260902025523 | 88 | 360 | 4.3 | 5.2 | 0.00 | 0.00 | 0.00 | 60 | 1015.4 |
| 20260902025423 | 88 | 360 | 4.3 | 7.0 | 0.00 | 0.00 | 0.00 | 60 | 1015.3 |
| 20260902025323 | 88 | 360 | 4.3 | 7.0 | 0.00 | 0.00 | 0.00 | 60 | 1015.2 |
| 20260902025224 | 88 | 360 | 4.3 | 7.8 | 0.00 | 0.00 | 0.00 | 60 | 1015.3 |
| 20260902025125 | 88 | 360 | 3.5 | 7.8 | 0.00 | 0.00 | 0.00 | 60 | 1015.2 |
| 20260902025030 | 88 | 360 | 3.5 | 7.8 | 0.00 | 0.00 | 0.00 | 60 | 1015.2 |
| 20260902024930 | 88 | 360 | 3.5 | 7.8 | 0.00 | 0.00 | 0.00 | 60 | 1015.1 |
| 20260902024830 | 88 | 360 | 3.5 | 7.8 | 0.00 | 0.00 | 0.00 | 60 | 1015.2 |
| 20260902024732 | 88 | 360 | 4.3 | 7.8 | 0.00 | 0.00 | 0.00 | 60 | 1015.1 |
| 20260902024633 | 88 | 360 | 4.3 | 7.8 | 0.00 | 0.00 | 0.00 | 60 | 1015.0 |
| 20260902024533 | 88 | 360 | 4.3 | 7.8 | 0.00 | 0.00 | 0.00 | 59 | 1015.0 |
| 20260902024417 | 88 | 150 | 4.3 | 7.8 | 0.00 | 0.00 | 0.00 | 59 | 1015.1 |
| 20260902024318 | 88 | 360 | 4.3 | 7.8 | 0.00 | 0.00 | 0.00 | 59 | 1015.0 |
| 20260902024220 | 88 | 360 | 4.3 | 7.8 | 0.00 | 0.00 | 0.00 | 59 | 1015.0 |
| 20260902024140 | 88 | 360 | 4.3 | 7.8 | 0.00 | 0.00 | 0.00 | 59 | 1015.0 |
| 20260902024020 | 88 | 360 | 4.3 | 7.8 | 0.00 | 0.00 | 0.00 | 59 | 1015.0 |
| 20260902023919 | 88 | 360 | 4.3 | 7.8 | 0.00 | 0.00 | 0.00 | 59 | 1015.0 |
| 20260902023821 | 88 | 360 | 4.3 | 7.8 | 0.00 | 0.00 | 0.00 | 59 | 1014.9 |
| 20260902023725 | 88 | 360 | 4.3 | 7.8 | 0.00 | 0.00 | 0.00 | 59 | 1014.9 |
| 20260902023646 | 88 | 173 | 4.3 | 7.0 | 0.00 | 0.00 | 0.00 | 59 | 1014.8 |
| 20260902023525 | 88 | 360 | 4.3 | 7.0 | 0.00 | 0.00 | 0.00 | 59 | 1014.8 |
| 20260902023446 | 88 | 360 | 4.3 | 7.0 | 0.00 | 0.00 | 0.00 | 59 | 1014.7 |
| 20260902023326 | 88 | 360 | 4.3 | 7.0 | 0.00 | 0.00 | 0.00 | 58 | 1014.7 |
| 20260902023246 | 88 | 360 | 4.3 | 7.0 | 0.00 | 0.00 | 0.00 | 58 | 1014.7 |
| 20260902023126 | 88 | 360 | 3.5 | 7.0 | 0.00 | 0.00 | 0.00 | 58 | 1014.7 |
| 20260902023027 | 88 | 360 | 4.3 | 7.0 | 0.00 | 0.00 | 0.00 | 58 | 1014.7 |
| 20260902022932 | 88 | 360 | 4.3 | 7.0 | 0.00 | 0.00 | 0.00 | 58 | 1014.7 |
| 20260902022852 | 89 | 360 | 4.3 | 7.0 | 0.00 | 0.00 | 0.00 | 58 | 1014.6 |
| 20260902022730 | 89 | 360 | 4.3 | 7.8 | 0.00 | 0.00 | 0.00 | 58 | 1014.6 |
| 20260902022631 | 89 | 360 | 4.3 | 7.8 | 0.00 | 0.00 | 0.00 | 58 | 1014.6 |
| 20260902022532 | 89 | 360 | 3.5 | 7.8 | 0.00 | 0.00 | 0.00 | 58 | 1014.6 |
| 20260902022434 | 89 | 360 | 3.5 | 7.8 | 0.00 | 0.00 | 0.00 | 58 | 1014.6 |
| 20260902022318 | 89 | 360 | 3.5 | 8.7 | 0.00 | 0.00 | 0.00 | 58 | 1014.6 |
| 20260902022239 | 89 | 360 | 4.3 | 8.7 | 0.00 | 0.00 | 0.00 | 58 | 1014.6 |
| 20260902022119 | 89 | 360 | 5.2 | 8.7 | 0.00 | 0.00 | 0.00 | 58 | 1014.5 |
| 20260902022019 | 89 | 360 | 5.2 | 8.7 | 0.00 | 0.00 | 0.00 | 58 | 1014.6 |
| 20260902021920 | 89 | 360 | 4.3 | 8.7 | 0.00 | 0.00 | 0.00 | 58 | 1014.5 |
| 20260902021841 | 89 | 360 | 4.3 | 8.7 | 0.00 | 0.00 | 0.00 | 58 | 1014.5 |
| 20260902021721 | 89 | 360 | 5.2 | 8.7 | 0.00 | 0.00 | 0.00 | 58 | 1014.4 |
| 20260902021643 | 89 | 360 | 5.2 | 8.7 | 0.00 | 0.00 | 0.00 | 58 | 1014.4 |
| 20260902021526 | 89 | 360 | 4.3 | 9.6 | 0.00 | 0.00 | 0.00 | 57 | 1014.4 |
| 20260902021447 | 89 | 360 | 4.3 | 9.6 | 0.00 | 0.00 | 0.00 | 57 | 1014.4 |
| 20260902021325 | 89 | 360 | 4.3 | 9.6 | 0.00 | 0.00 | 0.00 | 57 | 1014.3 |
| 20260902021246 | 89 | 360 | 5.2 | 10.4 | 0.00 | 0.00 | 0.00 | 57 | 1014.3 |
| 20260902021125 | 89 | 360 | 5.2 | 10.4 | 0.00 | 0.00 | 0.00 | 57 | 1014.3 |
| 20260902021045 | 89 | 360 | 5.2 | 10.4 | 0.00 | 0.00 | 0.00 | 57 | 1014.3 |
| 20260902020944 | 89 | 360 | 5.2 | 11.3 | 0.00 | 0.00 | 0.00 | 57 | 1014.3 |
| 20260902020823 | 89 | 360 | 6.1 | 11.3 | 0.00 | 0.00 | 0.00 | 57 | 1014.3 |
| 20260902020725 | 89 | 360 | 6.1 | 11.3 | 0.00 | 0.00 | 0.00 | 57 | 1014.4 |
| 20260902020631 | 89 | 360 | 6.1 | 11.3 | 0.00 | 0.00 | 0.00 | 57 | 1014.3 |
| 20260902020532 | 90 | 360 | 7.0 | 11.3 | 0.00 | 0.00 | 0.00 | 57 | 1014.3 |
| 20260902020433 | 90 | 360 | 7.0 | 11.3 | 0.00 | 0.00 | 0.00 | 56 | 1014.4 |
| 20260902020333 | 90 | 360 | 7.8 | 11.3 | 0.00 | 0.00 | 0.00 | 56 | 1014.4 |
| 20260902020233 | 90 | 360 | 7.8 | 13.0 | 0.00 | 0.00 | 0.00 | 56 | 1014.3 |
| 20260902020134 | 90 | 360 | 7.0 | 13.0 | 0.00 | 0.00 | 0.00 | 56 | 1014.3 |
| 20260902020039 | 90 | 360 | 6.1 | 13.0 | 0.00 | 0.00 | 0.00 | 56 | 1014.3 |
| 20260902015918 | 90 | 360 | 6.1 | 13.0 | 0.00 | 0.00 | 0.00 | 56 | 1014.3 |
| 20260902015821 | 90 | 360 | 6.1 | 13.0 | 0.00 | 0.00 | 0.00 | 56 | 1014.3 |
| 20260902015720 | 90 | 360 | 7.0 | 13.0 | 0.00 | 0.00 | 0.00 | 56 | 1014.2 |
| 20260902015622 | 90 | 360 | 7.8 | 13.0 | 0.00 | 0.00 | 0.00 | 56 | 1014.2 |
| 20260902015542 | 90 | 360 | 7.8 | 13.0 | 0.00 | 0.00 | 0.00 | 56 | 1014.3 |
| 20260902015416 | 90 | 360 | 7.0 | 11.3 | 0.00 | 0.00 | 0.00 | 55 | 1014.2 |
| 20260902015341 | 90 | 360 | 7.0 | 11.3 | 0.00 | 0.00 | 0.00 | 55 | 1014.3 |
| 20260902015220 | 90 | 360 | 7.0 | 11.3 | 0.00 | 0.00 | 0.00 | 55 | 1014.3 |
| 20260902015120 | 90 | 157 | 7.8 | 11.3 | 0.00 | 0.00 | 0.00 | 55 | 1014.2 |
| 20260902015019 | 90 | 360 | 7.8 | 11.3 | 0.00 | 0.00 | 0.00 | 55 | 1014.2 |
| 20260902014920 | 90 | 360 | 7.8 | 12.2 | 0.00 | 0.00 | 0.00 | 55 | 1014.3 |
| 20260902014822 | 90 | 360 | 7.8 | 15.6 | 0.00 | 0.00 | 0.00 | 55 | 1014.2 |
| 20260902014742 | 90 | 360 | 7.0 | 16.5 | 0.00 | 0.00 | 0.00 | 55 | 1014.2 |
| 20260902014622 | 90 | 360 | 6.1 | 16.5 | 0.00 | 0.00 | 0.00 | 55 | 1014.2 |
| 20260902014526 | 90 | 360 | 6.1 | 16.5 | 0.00 | 0.00 | 0.00 | 55 | 1014.2 |
| 20260902014447 | 90 | 360 | 6.1 | 16.5 | 0.00 | 0.00 | 0.00 | 55 | 1014.2 |
| 20260902014326 | 91 | 360 | 7.0 | 16.5 | 0.00 | 0.00 | 0.00 | 55 | 1014.2 |
| 20260902014226 | 91 | 360 | 8.7 | 16.5 | 0.00 | 0.00 | 0.00 | 54 | 1014.2 |
| 20260902014127 | 91 | 360 | 11.3 | 17.4 | 0.00 | 0.00 | 0.00 | 54 | 1014.1 |
| 20260902014027 | 91 | 360 | 11.3 | 17.4 | 0.00 | 0.00 | 0.00 | 54 | 1014.2 |
| 20260902013928 | 91 | 360 | 11.3 | 17.4 | 0.00 | 0.00 | 0.00 | 54 | 1014.2 |
| 20260902013833 | 91 | 360 | 10.4 | 17.4 | 0.00 | 0.00 | 0.00 | 54 | 1014.2 |
| 20260902013733 | 91 | 360 | 10.4 | 17.4 | 0.00 | 0.00 | 0.00 | 54 | 1014.2 |
| 20260902013634 | 91 | 143 | 10.4 | 17.4 | 0.00 | 0.00 | 0.00 | 54 | 1014.2 |
| 20260902013555 | 91 | 360 | 11.3 | 17.4 | 0.00 | 0.00 | 0.00 | 54 | 1014.2 |
| 20260902013434 | 91 | 360 | 9.6 | 17.4 | 0.00 | 0.00 | 0.00 | 54 | 1014.2 |
| 20260902013335 | 91 | 360 | 9.6 | 17.4 | 0.00 | 0.00 | 0.00 | 54 | 1014.1 |
| 20260902013220 | 91 | 360 | 7.8 | 11.3 | 0.00 | 0.00 | 0.00 | 54 | 1014.1 |
| 20260902013120 | 91 | 360 | 7.0 | 11.3 | 0.00 | 0.00 | 0.00 | 54 | 1014.1 |
| 20260902013020 | 91 | 360 | 7.0 | 11.3 | 0.00 | 0.00 | 0.00 | 54 | 1014.1 |
| 20260902012940 | 91 | 360 | 6.1 | 10.4 | 0.00 | 0.00 | 0.00 | 54 | 1014.1 |
| 20260902012822 | 91 | 360 | 6.1 | 10.4 | 0.00 | 0.00 | 0.00 | 54 | 1014.0 |
| 20260902012742 | 91 | 360 | 6.1 | 11.3 | 0.00 | 0.00 | 0.00 | 53 | 1014.0 |
| 20260902012616 | 91 | 360 | 6.1 | 11.3 | 0.00 | 0.00 | 0.00 | 53 | 1014.0 |
| 20260902012520 | 91 | 360 | 5.2 | 11.3 | 0.00 | 0.00 | 0.00 | 53 | 1014.0 |
| 20260902012420 | 91 | 360 | 5.2 | 11.3 | 0.00 | 0.00 | 0.00 | 53 | 1014.0 |
| 20260902012341 | 91 | 360 | 6.1 | 11.3 | 0.00 | 0.00 | 0.00 | 53 | 1014.0 |
| 20260902012221 | 91 | 360 | 7.0 | 11.3 | 0.00 | 0.00 | 0.00 | 53 | 1014.0 |
| 20260902012121 | 91 | 360 | 7.8 | 11.3 | 0.00 | 0.00 | 0.00 | 53 | 1013.9 |
| 20260902012023 | 91 | 360 | 7.8 | 11.3 | 0.00 | 0.00 | 0.00 | 53 | 1013.9 |
| 20260902011923 | 91 | 360 | 8.7 | 11.3 | 0.00 | 0.00 | 0.00 | 52 | 1013.9 |
| 20260902011844 | 91 | 360 | 7.0 | 11.3 | 0.00 | 0.00 | 0.00 | 52 | 1013.9 |
| 20260902011727 | 91 | 360 | 5.2 | 11.3 | 0.00 | 0.00 | 0.00 | 52 | 1013.9 |
| 20260902011627 | 91 | 360 | 3.5 | 7.0 | 0.00 | 0.00 | 0.00 | 52 | 1013.8 |
| 20260902011528 | 92 | 360 | 2.6 | 4.3 | 0.00 | 0.00 | 0.00 | 52 | 1013.8 |
| 20260902011428 | 92 | 360 | 2.6 | 4.3 | 0.00 | 0.00 | 0.00 | 52 | 1013.8 |
| 20260902011350 | 92 | 360 | 2.6 | 4.3 | 0.00 | 0.00 | 0.00 | 52 | 1013.8 |
| 20260902011230 | 92 | 360 | 2.6 | 4.3 | 0.00 | 0.00 | 0.00 | 52 | 1013.8 |
| 20260902011131 | 92 | 360 | 2.6 | 4.3 | 0.00 | 0.00 | 0.00 | 51 | 1013.8 |
| 20260902011056 | 92 | 360 | 2.6 | 7.0 | 0.00 | 0.00 | 0.00 | 51 | 1013.8 |
| 20260902010936 | 92 | 360 | 1.7 | 7.0 | 0.00 | 0.00 | 0.00 | 51 | 1013.8 |
| 20260902010856 | 92 | 360 | 2.6 | 7.0 | 0.00 | 0.00 | 0.00 | 51 | 1013.8 |
| 20260902010736 | 92 | 360 | 2.6 | 7.0 | 0.00 | 0.00 | 0.00 | 51 | 1013.7 |
| 20260902010656 | 92 | 360 | 1.7 | 7.8 | 0.00 | 0.00 | 0.00 | 51 | 1013.8 |
| 20260902010556 | 92 | 360 | 1.7 | 7.8 | 0.00 | 0.00 | 0.00 | 51 | 1013.8 |
| 20260902010435 | 92 | 360 | 2.6 | 7.8 | 0.00 | 0.00 | 0.00 | 51 | 1013.7 |
| 20260902010336 | 92 | 360 | 2.6 | 7.8 | 0.00 | 0.00 | 0.00 | 51 | 1013.7 |
| 20260902010240 | 92 | 360 | 3.5 | 7.8 | 0.00 | 0.00 | 0.00 | 51 | 1013.7 |
| 20260902010120 | 92 | 360 | 4.3 | 9.6 | 0.00 | 0.00 | 0.00 | 51 | 1013.7 |
| 20260902010041 | 92 | 360 | 4.3 | 9.6 | 0.00 | 0.00 | 0.00 | 51 | 1013.5 |
| 20260902005920 | 92 | 360 | 5.2 | 9.6 | 0.00 | 0.00 | 0.00 | 51 | 1013.5 |
| 20260902005822 | 92 | 360 | 6.1 | 9.6 | 0.00 | 0.00 | 0.00 | 51 | 1013.7 |
| 20260902005720 | 92 | 360 | 6.1 | 9.6 | 0.00 | 0.00 | 0.00 | 51 | 1013.5 |
| 20260902005621 | 92 | 360 | 5.2 | 9.6 | 0.00 | 0.00 | 0.00 | 51 | 1013.5 |
| 20260902005525 | 92 | 360 | 6.1 | 9.6 | 0.00 | 0.00 | 0.00 | 51 | 1013.6 |
| 20260902005426 | 92 | 360 | 5.2 | 9.6 | 0.00 | 0.00 | 0.00 | 51 | 1013.6 |
| 20260902005325 | 92 | 360 | 4.3 | 9.6 | 0.00 | 0.00 | 0.00 | 51 | 1013.7 |
| 20260902005246 | 92 | 360 | 4.3 | 7.8 | 0.00 | 0.00 | 0.00 | 51 | 1013.7 |
| 20260902005125 | 92 | 360 | 3.5 | 7.8 | 0.00 | 0.00 | 0.00 | 51 | 1013.5 |
| 20260902005026 | 93 | 360 | 4.3 | 7.8 | 0.00 | 0.00 | 0.00 | 51 | 1013.5 |
| 20260902004926 | 93 | 360 | 3.5 | 7.8 | 0.00 | 0.00 | 0.00 | 51 | 1013.7 |
| 20260902004830 | 93 | 360 | 4.3 | 7.8 | 0.00 | 0.00 | 0.00 | 51 | 1013.7 |
| 20260902004731 | 93 | 360 | 4.3 | 7.0 | 0.00 | 0.00 | 0.00 | 51 | 1013.7 |
| 20260902004632 | 93 | 360 | 4.3 | 7.0 | 0.00 | 0.00 | 0.00 | 50 | 1013.8 |
| 20260902004531 | 93 | 360 | 4.3 | 7.0 | 0.00 | 0.00 | 0.00 | 51 | 1013.7 |
| 20260902004432 | 93 | 360 | 3.5 | 7.0 | 0.00 | 0.00 | 0.00 | 50 | 1013.8 |
| 20260902004353 | 93 | 360 | 3.5 | 7.0 | 0.00 | 0.00 | 0.00 | 50 | 1013.8 |
| 20260902004231 | 93 | 360 | 3.5 | 7.0 | 0.00 | 0.00 | 0.00 | 50 | 1013.8 |
| 20260902004116 | 93 | 360 | 3.5 | 7.0 | 0.00 | 0.00 | 0.00 | 50 | 1013.8 |
| 20260902004016 | 93 | 360 | 3.5 | 7.0 | 0.00 | 0.00 | 0.00 | 50 | 1013.8 |
| 20260902003937 | 93 | 360 | 3.5 | 7.0 | 0.00 | 0.00 | 0.00 | 50 | 1013.8 |
| 20260902003817 | 93 | 360 | 3.5 | 7.0 | 0.00 | 0.00 | 0.00 | 50 | 1013.8 |
| 20260902003718 | 93 | 360 | 3.5 | 7.0 | 0.00 | 0.00 | 0.00 | 50 | 1013.9 |
| 20260902003618 | 93 | 360 | 3.5 | 7.0 | 0.00 | 0.00 | 0.00 | 50 | 1013.9 |
| 20260902003519 | 93 | 360 | 3.5 | 7.0 | 0.00 | 0.00 | 0.00 | 50 | 1013.9 |
| 20260902003424 | 93 | 360 | 4.3 | 7.0 | 0.00 | 0.00 | 0.00 | 50 | 1014.0 |
| 20260902003325 | 93 | 360 | 3.5 | 7.0 | 0.00 | 0.00 | 0.00 | 50 | 1013.9 |
| 20260902003225 | 93 | 360 | 3.5 | 7.0 | 0.00 | 0.00 | 0.00 | 50 | 1014.0 |
| 20260902003126 | 93 | 360 | 2.6 | 7.0 | 0.00 | 0.00 | 0.00 | 50 | 1014.0 |
| 20260902003025 | 93 | 360 | 2.6 | 5.2 | 0.00 | 0.00 | 0.00 | 50 | 1014.0 |
| 20260902002926 | 93 | 360 | 3.5 | 7.8 | 0.00 | 0.00 | 0.00 | 50 | 1014.0 |
| 20260902002828 | 94 | 360 | 3.5 | 7.8 | 0.00 | 0.00 | 0.00 | 50 | 1014.0 |
| 20260902002732 | 94 | 360 | 2.6 | 7.8 | 0.00 | 0.00 | 0.00 | 49 | 1014.0 |
| 20260902002632 | 94 | 360 | 3.5 | 7.8 | 0.00 | 0.00 | 0.00 | 49 | 1014.0 |
| 20260902002534 | 94 | 360 | 3.5 | 7.8 | 0.00 | 0.00 | 0.00 | 49 | 1014.0 |
| 20260902002433 | 94 | 360 | 3.5 | 7.8 | 0.00 | 0.00 | 0.00 | 49 | 1014.0 |
| 20260902002335 | 94 | 360 | 4.3 | 7.8 | 0.00 | 0.00 | 0.00 | 49 | 1014.0 |
| 20260902002236 | 94 | 360 | 4.3 | 8.7 | 0.00 | 0.00 | 0.00 | 49 | 1014.0 |
| 20260902002120 | 94 | 360 | 5.2 | 8.7 | 0.00 | 0.00 | 0.00 | 49 | 1014.0 |
| 20260902002021 | 94 | 360 | 4.3 | 8.7 | 0.00 | 0.00 | 0.00 | 49 | 1014.0 |
| 20260902001922 | 94 | 360 | 3.5 | 8.7 | 0.00 | 0.00 | 0.00 | 49 | 1014.0 |
| 20260902001823 | 94 | 161 | 3.5 | 8.7 | 0.00 | 0.00 | 0.00 | 49 | 1014.0 |
| 20260902001723 | 94 | 360 | 3.5 | 8.7 | 0.00 | 0.00 | 0.00 | 49 | 1014.0 |
| 20260902001623 | 94 | 360 | 3.5 | 11.3 | 0.00 | 0.00 | 0.00 | 49 | 1014.0 |
| 20260902001522 | 94 | 360 | 4.3 | 11.3 | 0.00 | 0.00 | 0.00 | 49 | 1014.0 |
| 20260902001428 | 94 | 360 | 4.3 | 11.3 | 0.00 | 0.00 | 0.00 | 48 | 1013.9 |
| 20260902001329 | 94 | 360 | 4.3 | 11.3 | 0.00 | 0.00 | 0.00 | 48 | 1013.9 |
| 20260902001229 | 94 | 360 | 4.3 | 11.3 | 0.00 | 0.00 | 0.00 | 48 | 1013.9 |
| 20260902001131 | 94 | 360 | 3.5 | 12.2 | 0.00 | 0.00 | 0.00 | 48 | 1013.9 |
| 20260902001030 | 94 | 360 | 3.5 | 12.2 | 0.00 | 0.00 | 0.00 | 48 | 1014.0 |
| 20260902000951 | 94 | 360 | 3.5 | 13.0 | 0.00 | 0.00 | 0.00 | 48 | 1013.9 |
| 20260902000829 | 94 | 360 | 3.5 | 13.9 | 0.00 | 0.00 | 0.00 | 48 | 1013.9 |
| 20260902000733 | 94 | 360 | 4.3 | 13.9 | 0.00 | 0.00 | 0.00 | 48 | 1014.0 |
| 20260902000654 | 94 | 360 | 6.1 | 13.9 | 0.00 | 0.00 | 0.00 | 48 | 1013.9 |
| 20260902000553 | 94 | 360 | 7.0 | 13.9 | 0.00 | 0.00 | 0.00 | 48 | 1013.9 |
| 20260902000433 | 94 | 360 | 7.8 | 13.9 | 0.00 | 0.00 | 0.00 | 48 | 1013.9 |
| 20260902000334 | 94 | 360 | 7.0 | 13.9 | 0.00 | 0.00 | 0.00 | 48 | 1013.9 |
| 20260902000234 | 94 | 103 | 7.8 | 13.9 | 0.00 | 0.00 | 0.00 | 48 | 1013.9 |
| 20260902000134 | 94 | 360 | 7.8 | 13.9 | 0.00 | 0.00 | 0.00 | 48 | 1013.9 |
| 20260902000019 | 95 | 360 | 7.0 | 13.9 | 0.00 | 0.00 | 0.00 | 48 | 1013.9 |
| 20260901235917 | 95 | 360 | 7.0 | 12.2 | 0.00 | 0.00 | 0.00 | 48 | 1013.9 |
| 20260901235819 | 95 | 360 | 6.1 | 12.2 | 0.00 | 0.00 | 0.00 | 48 | 1013.9 |
| 20260901235718 | 95 | 173 | 5.2 | 13.0 | 0.00 | 0.00 | 0.00 | 47 | 1013.9 |
| 20260901235619 | 95 | 360 | 5.2 | 13.0 | 0.00 | 0.00 | 0.00 | 48 | 1013.9 |
| 20260901235521 | 95 | 360 | 4.3 | 13.9 | 0.00 | 0.00 | 0.00 | 48 | 1013.9 |
| 20260901235422 | 95 | 360 | 4.3 | 13.9 | 0.00 | 0.00 | 0.00 | 48 | 1013.9 |
| 20260901235327 | 95 | 360 | 4.3 | 13.9 | 0.00 | 0.00 | 0.00 | 47 | 1013.9 |
| 20260901235227 | 95 | 360 | 6.1 | 13.9 | 0.00 | 0.00 | 0.00 | 47 | 1013.9 |
| 20260901235128 | 95 | 105 | 6.1 | 13.9 | 0.00 | 0.00 | 0.00 | 47 | 1013.8 |
| 20260901235048 | 95 | 360 | 7.8 | 13.9 | 0.00 | 0.00 | 0.00 | 47 | 1013.9 |
| 20260901234928 | 95 | 360 | 7.8 | 13.9 | 0.00 | 0.00 | 0.00 | 47 | 1013.8 |
| 20260901234828 | 95 | 360 | 7.0 | 13.9 | 0.00 | 0.00 | 0.00 | 47 | 1014.0 |
| 20260901234728 | 95 | 360 | 6.1 | 13.9 | 0.00 | 0.00 | 0.00 | 47 | 1013.8 |
| 20260901234629 | 95 | 360 | 4.3 | 13.0 | 0.00 | 0.00 | 0.00 | 47 | 1013.8 |
| 20260901234535 | 95 | 360 | 5.2 | 13.0 | 0.00 | 0.00 | 0.00 | 46 | 1013.8 |
| 20260901234436 | 95 | 360 | 5.2 | 13.0 | 0.00 | 0.00 | 0.00 | 46 | 1013.8 |
| 20260901234317 | 95 | 106 | 7.0 | 13.0 | 0.00 | 0.00 | 0.00 | 46 | 1013.9 |
| 20260901234217 | 96 | 360 | 7.8 | 13.0 | 0.00 | 0.00 | 0.00 | 46 | 1013.9 |
| 20260901234118 | 96 | 360 | 7.0 | 13.0 | 0.00 | 0.00 | 0.00 | 46 | 1013.9 |
| 20260901234019 | 96 | 360 | 7.0 | 13.0 | 0.00 | 0.00 | 0.00 | 45 | 1013.8 |
| 20260901233923 | 96 | 360 | 6.1 | 11.3 | 0.00 | 0.00 | 0.00 | 45 | 1013.8 |
| 20260901233824 | 96 | 360 | 6.1 | 11.3 | 0.00 | 0.00 | 0.00 | 45 | 1013.8 |
| 20260901233725 | 96 | 360 | 5.2 | 11.3 | 0.00 | 0.00 | 0.00 | 45 | 1013.8 |
| 20260901233626 | 96 | 360 | 4.3 | 9.6 | 0.00 | 0.00 | 0.00 | 45 | 1013.8 |
| 20260901233527 | 96 | 360 | 4.3 | 9.6 | 0.00 | 0.00 | 0.00 | 45 | 1013.8 |
| 20260901233427 | 96 | 360 | 3.5 | 9.6 | 0.00 | 0.00 | 0.00 | 46 | 1013.8 |
| 20260901233331 | 96 | 360 | 3.5 | 9.6 | 0.00 | 0.00 | 0.00 | 46 | 1013.7 |
| 20260901233252 | 96 | 360 | 4.3 | 9.6 | 0.00 | 0.00 | 0.00 | 46 | 1013.8 |
| 20260901233132 | 96 | 360 | 4.3 | 9.6 | 0.00 | 0.00 | 0.00 | 45 | 1013.7 |
| 20260901233032 | 96 | 82 | 5.2 | 9.6 | 0.00 | 0.00 | 0.00 | 45 | 1013.8 |
| 20260901232933 | 96 | 49 | 5.2 | 9.6 | 0.00 | 0.00 | 0.00 | 45 | 1013.7 |
| 20260901232835 | 97 | 360 | 5.2 | 9.6 | 0.00 | 0.00 | 0.00 | 45 | 1013.7 |
| 20260901232735 | 97 | 360 | 4.3 | 9.6 | 0.00 | 0.00 | 0.00 | 45 | 1013.7 |
| 20260901232619 | 97 | 360 | 2.6 | 7.0 | 0.00 | 0.00 | 0.00 | 45 | 1013.8 |
| 20260901232520 | 97 | 360 | 2.6 | 7.0 | 0.00 | 0.00 | 0.00 | 45 | 1013.7 |
| 20260901232419 | 97 | 360 | 2.6 | 14.8 | 0.00 | 0.00 | 0.00 | 45 | 1013.8 |
| 20260901232321 | 97 | 360 | 2.6 | 14.8 | 0.00 | 0.00 | 0.00 | 45 | 1013.8 |
| 20260901232221 | 97 | 360 | 2.6 | 14.8 | 0.00 | 0.00 | 0.00 | 45 | 1013.7 |
| 20260901232122 | 97 | 360 | 2.6 | 14.8 | 0.00 | 0.00 | 0.00 | 46 | 1013.7 |
| 20260901232026 | 97 | 140 | 2.6 | 14.8 | 0.00 | 0.00 | 0.00 | 45 | 1013.7 |
| 20260901231927 | 97 | 360 | 3.5 | 14.8 | 0.00 | 0.00 | 0.00 | 45 | 1013.8 |
| 20260901231828 | 97 | 360 | 5.2 | 14.8 | 0.00 | 0.00 | 0.00 | 45 | 1013.8 |
| 20260901231747 | 97 | 360 | 7.0 | 14.8 | 0.00 | 0.00 | 0.00 | 45 | 1013.7 |
| 20260901231647 | 97 | 149 | 8.7 | 14.8 | 0.00 | 0.00 | 0.00 | 45 | 1013.8 |
| 20260901231526 | 97 | 141 | 8.7 | 13.9 | 0.00 | 0.00 | 0.00 | 45 | 1013.7 |
| 20260901231446 | 97 | 360 | 8.7 | 13.9 | 0.00 | 0.00 | 0.00 | 45 | 1013.7 |
| 20260901231345 | 97 | 360 | 7.8 | 13.9 | 0.00 | 0.00 | 0.00 | 44 | 1013.7 |
| 20260901231225 | 97 | 360 | 7.8 | 13.9 | 0.00 | 0.00 | 0.00 | 44 | 1013.7 |
| 20260901231129 | 97 | 360 | 6.1 | 13.9 | 0.00 | 0.00 | 0.00 | 45 | 1013.7 |
| 20260901231050 | 97 | 360 | 6.1 | 12.2 | 0.00 | 0.00 | 0.00 | 45 | 1013.7 |
| 20260901230930 | 97 | 123 | 6.1 | 11.3 | 0.00 | 0.00 | 0.00 | 45 | 1013.7 |
| 20260901230831 | 97 | 360 | 7.8 | 11.3 | 0.00 | 0.00 | 0.00 | 44 | 1013.6 |
| 20260901230732 | 97 | 360 | 7.8 | 11.3 | 0.00 | 0.00 | 0.00 | 44 | 1013.7 |
| 20260901230633 | 97 | 360 | 6.1 | 11.3 | 0.00 | 0.00 | 0.00 | 44 | 1013.7 |
| 20260901230518 | 97 | 360 | 5.2 | 11.3 | 0.00 | 0.00 | 0.00 | 44 | 1013.7 |
| 20260901230419 | 97 | 360 | 4.3 | 9.6 | 0.00 | 0.00 | 0.00 | 44 | 1013.7 |
| 20260901230339 | 97 | 360 | 4.3 | 9.6 | 0.00 | 0.00 | 0.00 | 44 | 1013.8 |
| 20260901230219 | 97 | 360 | 4.3 | 9.6 | 0.00 | 0.00 | 0.00 | 44 | 1013.6 |
| 20260901230120 | 97 | 360 | 2.6 | 9.6 | 0.00 | 0.00 | 0.00 | 45 | 1013.7 |
| 20260901230021 | 97 | 360 | 3.5 | 9.6 | 0.00 | 0.00 | 0.00 | 44 | 1013.7 |
| 20260901225941 | 97 | 89 | 4.3 | 9.6 | 0.00 | 0.00 | 0.00 | 44 | 1013.8 |
| 20260901225842 | 97 | 360 | 5.2 | 9.6 | 0.00 | 0.00 | 0.00 | 44 | 1013.8 |
| 20260901225725 | 97 | 360 | 4.3 | 10.4 | 0.00 | 0.00 | 0.00 | 44 | 1013.7 |
| 20260901225646 | 97 | 360 | 4.3 | 10.4 | 0.00 | 0.00 | 0.00 | 44 | 1013.7 |
| 20260901225545 | 97 | 360 | 3.5 | 10.4 | 0.00 | 0.00 | 0.00 | 43 | 1013.7 |
| 20260901225444 | 97 | 360 | 2.6 | 10.4 | 0.00 | 0.00 | 0.00 | 43 | 1013.7 |
| 20260901225323 | 97 | 360 | 3.5 | 11.3 | 0.00 | 0.00 | 0.00 | 43 | 1013.7 |
| 20260901225224 | 97 | 360 | 4.3 | 11.3 | 0.00 | 0.00 | 0.00 | 43 | 1013.7 |
| 20260901225125 | 97 | 360 | 6.1 | 11.3 | 0.00 | 0.00 | 0.00 | 43 | 1013.7 |
| 20260901225025 | 97 | 360 | 7.0 | 11.3 | 0.00 | 0.00 | 0.00 | 43 | 1013.7 |
| 20260901224930 | 97 | 360 | 6.1 | 11.3 | 0.00 | 0.00 | 0.00 | 43 | 1013.7 |
| 20260901224831 | 97 | 360 | 6.1 | 11.3 | 0.00 | 0.00 | 0.00 | 43 | 1013.5 |
| 20260901224731 | 97 | 149 | 6.1 | 11.3 | 0.00 | 0.00 | 0.00 | 43 | 1013.6 |
| 20260901224632 | 97 | 360 | 5.2 | 11.3 | 0.00 | 0.00 | 0.00 | 43 | 1013.6 |
| 20260901224533 | 97 | 360 | 5.2 | 11.3 | 0.00 | 0.00 | 0.00 | 42 | 1013.5 |
| 20260901224433 | 98 | 360 | 4.3 | 9.6 | 0.00 | 0.00 | 0.00 | 42 | 1013.5 |
| 20260901224317 | 98 | 360 | 6.1 | 9.6 | 0.00 | 0.00 | 0.00 | 42 | 1013.6 |
| 20260901224218 | 98 | 360 | 5.2 | 9.6 | 0.00 | 0.00 | 0.00 | 42 | 1013.6 |
| 20260901224119 | 98 | 360 | 4.3 | 8.7 | 0.00 | 0.00 | 0.00 | 42 | 1013.6 |
| 20260901224018 | 98 | 360 | 3.5 | 8.7 | 0.00 | 0.00 | 0.00 | 42 | 1013.7 |
| 20260901223919 | 98 | 360 | 2.6 | 7.8 | 0.00 | 0.00 | 0.00 | 42 | 1013.5 |
| 20260901223819 | 97 | 360 | 2.6 | 7.8 | 0.00 | 0.00 | 0.00 | 42 | 1013.6 |
| 20260901223720 | 97 | 360 | 3.5 | 7.8 | 0.00 | 0.00 | 0.00 | 42 | 1013.6 |
| 20260901223644 | 97 | 360 | 3.5 | 7.8 | 0.00 | 0.00 | 0.00 | 43 | 1013.6 |
| 20260901223523 | 97 | 360 | 3.5 | 7.8 | 0.00 | 0.00 | 0.00 | 42 | 1013.7 |
| 20260901223424 | 97 | 360 | 3.5 | 7.8 | 0.00 | 0.00 | 0.00 | 43 | 1013.7 |
| 20260901223324 | 97 | 360 | 4.3 | 7.8 | 0.00 | 0.00 | 0.00 | 43 | 1013.7 |
| 20260901223225 | 97 | 360 | 4.3 | 7.8 | 0.00 | 0.00 | 0.00 | 43 | 1013.7 |
| 20260901223124 | 97 | 360 | 4.3 | 7.8 | 0.00 | 0.00 | 0.00 | 43 | 1013.7 |
| 20260901223025 | 97 | 360 | 4.3 | 8.7 | 0.00 | 0.00 | 0.00 | 43 | 1013.7 |
| 20260901222931 | 97 | 360 | 4.3 | 8.7 | 0.00 | 0.00 | 0.00 | 43 | 1013.7 |
| 20260901222833 | 97 | 360 | 3.5 | 8.7 | 0.00 | 0.00 | 0.00 | 44 | 1013.7 |
| 20260901222732 | 97 | 360 | 3.5 | 8.7 | 0.00 | 0.00 | 0.00 | 43 | 1013.6 |
| 20260901222633 | 97 | 360 | 4.3 | 8.7 | 0.00 | 0.00 | 0.00 | 43 | 1013.7 |
| 20260901222534 | 97 | 360 | 4.3 | 8.7 | 0.00 | 0.00 | 0.00 | 43 | 1013.7 |
| 20260901222434 | 97 | 360 | 4.3 | 8.7 | 0.00 | 0.00 | 0.00 | 42 | 1013.8 |
| 20260901222319 | 97 | 360 | 4.3 | 8.7 | 0.00 | 0.00 | 0.00 | 44 | 1013.8 |
| 20260901222218 | 97 | 360 | 3.5 | 8.7 | 0.00 | 0.00 | 0.00 | 44 | 1013.8 |
| 20260901222119 | 97 | 360 | 3.5 | 8.7 | 0.00 | 0.00 | 0.00 | 44 | 1013.7 |
| 20260901222020 | 96 | 360 | 4.3 | 8.7 | 0.00 | 0.00 | 0.00 | 42 | 1013.8 |
| 20260901221920 | 96 | 360 | 5.2 | 8.7 | 0.00 | 0.00 | 0.00 | 42 | 1013.8 |
| 20260901221821 | 96 | 360 | 5.2 | 8.7 | 0.00 | 0.00 | 0.00 | 43 | 1013.8 |
| 20260901221721 | 96 | 360 | 5.2 | 8.7 | 0.00 | 0.00 | 0.00 | 44 | 1013.8 |
| 20260901221625 | 96 | 360 | 5.2 | 9.6 | 0.00 | 0.00 | 0.00 | 44 | 1013.9 |
| 20260901221526 | 96 | 360 | 5.2 | 11.3 | 0.00 | 0.00 | 0.00 | 43 | 1013.9 |
| 20260901221426 | 96 | 360 | 6.1 | 11.3 | 0.00 | 0.00 | 0.00 | 43 | 1013.7 |
| 20260901221348 | 97 | 360 | 5.2 | 11.3 | 0.00 | 0.00 | 0.00 | 45 | 1013.9 |
| 20260901221227 | 97 | 360 | 5.2 | 11.3 | 0.00 | 0.00 | 0.00 | 45 | 1013.9 |
| 20260901221127 | 97 | 360 | 4.3 | 11.3 | 0.00 | 0.00 | 0.00 | 45 | 1013.8 |
| 20260901221028 | 97 | 360 | 5.2 | 11.3 | 0.00 | 0.00 | 0.00 | 45 | 1013.8 |
| 20260901220933 | 97 | 360 | 5.2 | 11.3 | 0.00 | 0.00 | 0.00 | 44 | 1013.9 |
| 20260901220833 | 97 | 360 | 5.2 | 11.3 | 0.00 | 0.00 | 0.00 | 44 | 1013.9 |
| 20260901220753 | 97 | 360 | 6.1 | 11.3 | 0.00 | 0.00 | 0.00 | 45 | 1013.8 |
| 20260901220633 | 97 | 360 | 7.0 | 11.3 | 0.00 | 0.00 | 0.00 | 44 | 1013.8 |
| 20260901220534 | 97 | 360 | 6.1 | 11.3 | 0.00 | 0.00 | 0.00 | 44 | 1013.8 |
| 20260901220433 | 98 | 360 | 5.2 | 10.4 | 0.00 | 0.00 | 0.00 | 45 | 1013.7 |
| 20260901220334 | 98 | 360 | 4.3 | 7.8 | 0.00 | 0.00 | 0.00 | 45 | 1013.9 |
| 20260901220217 | 98 | 360 | 4.3 | 7.8 | 0.00 | 0.00 | 0.00 | 44 | 1013.8 |
| 20260901220118 | 98 | 360 | 3.5 | 9.6 | 0.00 | 0.00 | 0.00 | 44 | 1013.9 |
| 20260901220039 | 98 | 360 | 2.6 | 9.6 | 0.00 | 0.00 | 0.00 | 43 | 1013.8 |
| 20260901215918 | 98 | 360 | 2.6 | 9.6 | 0.00 | 0.00 | 0.00 | 43 | 1013.9 |
| 20260901215819 | 98 | 360 | 2.6 | 9.6 | 0.00 | 0.00 | 0.00 | 43 | 1013.8 |
| 20260901215719 | 98 | 360 | 2.6 | 9.6 | 0.00 | 0.00 | 0.00 | 43 | 1013.8 |
| 20260901215620 | 98 | 360 | 3.5 | 9.6 | 0.00 | 0.00 | 0.00 | 42 | 1013.8 |
| 20260901215525 | 98 | 360 | 5.2 | 9.6 | 0.00 | 0.00 | 0.00 | 42 | 1013.9 |
| 20260901215445 | 98 | 155 | 6.1 | 9.6 | 0.00 | 0.00 | 0.00 | 42 | 1013.9 |
| 20260901215325 | 98 | 360 | 5.2 | 9.6 | 0.00 | 0.00 | 0.00 | 42 | 1013.9 |
| 20260901215224 | 98 | 360 | 4.3 | 8.7 | 0.00 | 0.00 | 0.00 | 42 | 1013.8 |
| 20260901215123 | 98 | 360 | 2.6 | 5.2 | 0.00 | 0.00 | 0.00 | 42 | 1013.8 |
| 20260901215024 | 98 | 360 | 2.6 | 5.2 | 0.00 | 0.00 | 0.00 | 41 | 1013.8 |
| 20260901214924 | 98 | 173 | 1.7 | 5.2 | 0.00 | 0.00 | 0.00 | 43 | 1013.8 |
| 20260901214825 | 98 | 360 | 0.9 | 5.2 | 0.00 | 0.00 | 0.00 | 43 | 1013.8 |
| 20260901214729 | 98 | 360 | 0.9 | 5.2 | 0.00 | 0.00 | 0.00 | 43 | 1013.8 |
| 20260901214629 | 97 | 37 | 0.9 | 7.0 | 0.00 | 0.00 | 0.00 | 43 | 1013.9 |
| 20260901214529 | 97 | 360 | 1.7 | 7.0 | 0.00 | 0.00 | 0.00 | 43 | 1013.9 |
| 20260901214430 | 97 | 360 | 2.6 | 8.7 | 0.00 | 0.00 | 0.00 | 43 | 1013.9 |
| 20260901214330 | 97 | 360 | 3.5 | 8.7 | 0.00 | 0.00 | 0.00 | 43 | 1013.8 |
| 20260901214251 | 97 | 22 | 3.5 | 8.7 | 0.00 | 0.00 | 0.00 | 43 | 1013.8 |
| 20260901214131 | 97 | 80 | 4.3 | 13.0 | 0.00 | 0.00 | 0.00 | 43 | 1013.9 |
| 20260901214034 | 97 | 97 | 4.3 | 13.0 | 0.00 | 0.00 | 0.00 | 43 | 1013.8 |
| 20260901213916 | 97 | 102 | 5.2 | 13.0 | 0.00 | 0.00 | 0.00 | 43 | 1013.9 |
| 20260901213816 | 97 | 360 | 5.2 | 13.0 | 0.00 | 0.00 | 0.00 | 43 | 1013.9 |
| 20260901213716 | 97 | 360 | 5.2 | 13.0 | 0.00 | 0.00 | 0.00 | 42 | 1013.8 |
| 20260901213617 | 97 | 360 | 6.1 | 13.0 | 0.00 | 0.00 | 0.00 | 43 | 1013.9 |
| 20260901213517 | 97 | 360 | 7.0 | 13.0 | 0.00 | 0.00 | 0.00 | 42 | 1013.9 |
| 20260901213422 | 97 | 360 | 7.8 | 13.0 | 0.00 | 0.00 | 0.00 | 42 | 1013.9 |
| 20260901213322 | 97 | 360 | 7.0 | 13.0 | 0.00 | 0.00 | 0.00 | 43 | 1013.9 |
| 20260901213222 | 97 | 360 | 6.1 | 12.2 | 0.00 | 0.00 | 0.00 | 44 | 1013.9 |
| 20260901213122 | 97 | 360 | 5.2 | 10.4 | 0.00 | 0.00 | 0.00 | 43 | 1013.9 |
| 20260901213023 | 97 | 123 | 7.0 | 10.4 | 0.00 | 0.00 | 0.00 | 43 | 1013.9 |
| 20260901212922 | 97 | 360 | 7.0 | 10.4 | 0.00 | 0.00 | 0.00 | 43 | 1013.9 |
| 20260901212823 | 97 | 360 | 6.1 | 10.4 | 0.00 | 0.00 | 0.00 | 42 | 1014.0 |
| 20260901212723 | 97 | 360 | 4.3 | 10.4 | 0.00 | 0.00 | 0.00 | 43 | 1013.9 |
| 20260901212627 | 97 | 360 | 3.5 | 7.8 | 0.00 | 0.00 | 0.00 | 43 | 1013.9 |
| 20260901212548 | 97 | 360 | 3.5 | 7.8 | 0.00 | 0.00 | 0.00 | 43 | 1013.9 |
| 20260901212427 | 97 | 360 | 4.3 | 7.8 | 0.00 | 0.00 | 0.00 | 43 | 1013.9 |
| 20260901212327 | 97 | 360 | 4.3 | 7.8 | 0.00 | 0.00 | 0.00 | 43 | 1014.0 |
| 20260901212227 | 97 | 360 | 4.3 | 7.8 | 0.00 | 0.00 | 0.00 | 42 | 1013.9 |
| 20260901212148 | 98 | 360 | 3.5 | 7.8 | 0.00 | 0.00 | 0.00 | 42 | 1013.9 |
| 20260901212027 | 98 | 360 | 2.6 | 7.8 | 0.00 | 0.00 | 0.00 | 41 | 1013.9 |
| 20260901211947 | 99 | 360 | 3.5 | 7.8 | 0.00 | 0.00 | 0.00 | 42 | 1013.9 |
| 20260901211851 | 99 | 100 | 2.6 | 7.8 | 0.00 | 0.00 | 0.00 | 41 | 1014.0 |
| 20260901211730 | 99 | 360 | 2.6 | 7.8 | 0.00 | 0.00 | 0.00 | 41 | 1014.0 |
| 20260901211631 | 99 | 360 | 1.7 | 7.8 | 0.00 | 0.00 | 0.00 | 41 | 1014.0 |
| 20260901211532 | 99 | 202 | 1.7 | 4.3 | 0.00 | 0.00 | 0.00 | 41 | 1014.0 |
| 20260901211432 | 99 | 360 | 1.7 | 4.3 | 0.00 | 0.00 | 0.00 | 41 | 1014.1 |
| 20260901211332 | 99 | 360 | 1.7 | 4.3 | 0.00 | 0.00 | 0.00 | 41 | 1014.1 |
| 20260901211216 | 99 | 360 | 1.7 | 3.5 | 0.00 | 0.00 | 0.00 | 42 | 1014.1 |
| 20260901211117 | 98 | 360 | 1.7 | 4.3 | 0.00 | 0.00 | 0.00 | 43 | 1014.0 |
| 20260901211017 | 98 | 135 | 0.9 | 4.3 | 0.00 | 0.00 | 0.00 | 43 | 1014.0 |
| 20260901210917 | 98 | 360 | 0.9 | 7.0 | 0.00 | 0.00 | 0.00 | 42 | 1014.1 |
| 20260901210817 | 98 | 360 | 1.7 | 7.0 | 0.00 | 0.00 | 0.00 | 43 | 1014.1 |
| 20260901210719 | 97 | 92 | 2.6 | 7.0 | 0.00 | 0.00 | 0.00 | 43 | 1014.1 |
| 20260901210619 | 97 | 360 | 2.6 | 7.0 | 0.00 | 0.00 | 0.00 | 43 | 1014.1 |
| 20260901210524 | 97 | 360 | 2.6 | 7.0 | 0.00 | 0.00 | 0.00 | 43 | 1014.3 |
| 20260901210425 | 97 | 360 | 2.6 | 7.0 | 0.00 | 0.00 | 0.00 | 43 | 1014.3 |
| 20260901210345 | 97 | 360 | 2.6 | 7.0 | 0.00 | 0.00 | 0.00 | 43 | 1014.2 |
| 20260901210224 | 97 | 360 | 3.5 | 7.0 | 0.00 | 0.00 | 0.00 | 42 | 1014.4 |
| 20260901210125 | 97 | 360 | 4.3 | 7.0 | 0.00 | 0.00 | 0.00 | 42 | 1014.3 |
| 20260901210025 | 97 | 360 | 4.3 | 7.8 | 0.00 | 0.00 | 0.00 | 43 | 1014.3 |
| 20260901205926 | 97 | 360 | 3.5 | 9.6 | 0.00 | 0.00 | 0.00 | 43 | 1014.3 |
| 20260901205850 | 97 | 360 | 2.6 | 9.6 | 0.00 | 0.00 | 0.00 | 43 | 1014.4 |
| 20260901205729 | 96 | 360 | 1.7 | 9.6 | 0.00 | 0.00 | 0.00 | 44 | 1014.4 |
| 20260901205649 | 96 | 360 | 1.7 | 9.6 | 0.00 | 0.00 | 0.00 | 43 | 1014.4 |
| 20260901205549 | 96 | 360 | 2.6 | 9.6 | 0.00 | 0.00 | 0.00 | 43 | 1014.4 |
| 20260901205448 | 96 | 360 | 3.5 | 9.6 | 0.00 | 0.00 | 0.00 | 43 | 1014.5 |
| 20260901205327 | 97 | 360 | 5.2 | 9.6 | 0.00 | 0.00 | 0.00 | 43 | 1014.5 |
| 20260901205227 | 97 | 360 | 6.1 | 9.6 | 0.00 | 0.00 | 0.00 | 43 | 1014.6 |
| 20260901205128 | 97 | 360 | 6.1 | 8.7 | 0.00 | 0.00 | 0.00 | 42 | 1014.6 |
| 20260901205034 | 98 | 360 | 7.0 | 8.7 | 0.00 | 0.00 | 0.00 | 42 | 1014.6 |
| 20260901204934 | 98 | 360 | 5.2 | 8.7 | 0.00 | 0.00 | 0.00 | 43 | 1014.6 |
| 20260901204835 | 98 | 360 | 5.2 | 8.7 | 0.00 | 0.00 | 0.00 | 42 | 1014.5 |
| 20260901204735 | 99 | 360 | 4.3 | 8.7 | 0.00 | 0.00 | 0.00 | 41 | 1014.6 |
| 20260901204635 | 99 | 360 | 4.3 | 8.7 | 0.00 | 0.00 | 0.00 | 41 | 1014.6 |
| 20260901204555 | 99 | 360 | 2.6 | 8.7 | 0.00 | 0.00 | 0.00 | 41 | 1014.6 |
| 20260901204435 | 99 | 360 | 1.7 | 7.0 | 0.00 | 0.00 | 0.00 | 42 | 1014.7 |
| 20260901204320 | 98 | 360 | 2.6 | 7.0 | 0.00 | 0.00 | 0.00 | 43 | 1014.7 |
| 20260901204240 | 98 | 360 | 3.5 | 7.0 | 0.00 | 0.00 | 0.00 | 43 | 1014.7 |
| 20260901204120 | 98 | 360 | 3.5 | 7.0 | 0.00 | 0.00 | 0.00 | 42 | 1014.7 |
| 20260901204020 | 97 | 360 | 3.5 | 7.0 | 0.00 | 0.00 | 0.00 | 42 | 1014.7 |
| 20260901203920 | 97 | 360 | 3.5 | 7.0 | 0.00 | 0.00 | 0.00 | 43 | 1014.8 |
| 20260901203840 | 97 | 360 | 4.3 | 7.0 | 0.00 | 0.00 | 0.00 | 42 | 1014.8 |
| 20260901203741 | 97 | 360 | 3.5 | 7.0 | 0.00 | 0.00 | 0.00 | 42 | 1014.8 |
| 20260901203619 | 98 | 360 | 2.6 | 7.0 | 0.00 | 0.00 | 0.00 | 44 | 1014.8 |
| 20260901203521 | 98 | 360 | 2.6 | 8.7 | 0.00 | 0.00 | 0.00 | 44 | 1014.8 |
| 20260901203425 | 98 | 360 | 2.6 | 8.7 | 0.00 | 0.00 | 0.00 | 44 | 1014.8 |
| 20260901203325 | 98 | 360 | 2.6 | 8.7 | 0.00 | 0.00 | 0.00 | 44 | 1014.8 |
| 20260901203227 | 98 | 360 | 2.6 | 8.7 | 0.00 | 0.00 | 0.00 | 44 | 1014.7 |
| 20260901203128 | 98 | 360 | 1.7 | 8.7 | 0.00 | 0.00 | 0.00 | 43 | 1014.8 |
| 20260901203029 | 98 | 360 | 2.6 | 8.7 | 0.00 | 0.00 | 0.00 | 43 | 1014.8 |
| 20260901202929 | 98 | 360 | 2.6 | 8.7 | 0.00 | 0.00 | 0.00 | 43 | 1014.8 |
| 20260901202835 | 98 | 360 | 4.3 | 8.7 | 0.00 | 0.00 | 0.00 | 43 | 1014.8 |
| 20260901202756 | 99 | 360 | 4.3 | 8.7 | 0.00 | 0.00 | 0.00 | 42 | 1014.9 |
| 20260901202654 | 100 | 360 | 3.5 | 8.7 | 0.00 | 0.00 | 0.00 | 41 | 1014.9 |
| 20260901202534 | 100 | 360 | 1.7 | 7.0 | 0.00 | 0.00 | 0.00 | 42 | 1014.9 |
| 20260901202434 | 100 | 360 | 1.7 | 5.2 | 0.00 | 0.00 | 0.00 | 41 | 1014.9 |
| 20260901202335 | 100 | 360 | 1.7 | 5.2 | 0.00 | 0.00 | 0.00 | 41 | 1015.0 |
| 20260901202236 | 100 | 360 | 3.5 | 5.2 | 0.00 | 0.00 | 0.00 | 40 | 1015.0 |
| 20260901202120 | 100 | 360 | 3.5 | 5.2 | 0.00 | 0.00 | 0.00 | 41 | 1015.0 |
| 20260901202020 | 99 | 360 | 2.6 | 7.0 | 0.00 | 0.00 | 0.00 | 41 | 1015.0 |
| 20260901201920 | 99 | 360 | 2.6 | 7.0 | 0.00 | 0.00 | 0.00 | 42 | 1015.0 |
| 20260901201821 | 99 | 360 | 1.7 | 7.0 | 0.00 | 0.00 | 0.00 | 43 | 1015.1 |
| 20260901201721 | 99 | 360 | 1.7 | 7.8 | 0.00 | 0.00 | 0.00 | 43 | 1015.1 |
| 20260901201622 | 98 | 360 | 1.7 | 7.8 | 0.00 | 0.00 | 0.00 | 43 | 1015.2 |
| 20260901201522 | 98 | 360 | 0.9 | 7.8 | 0.00 | 0.00 | 0.00 | 44 | 1015.1 |
| 20260901201447 | 98 | 157 | 1.7 | 7.8 | 0.00 | 0.00 | 0.00 | 45 | 1015.2 |
| 20260901201327 | 98 | 360 | 1.7 | 7.8 | 0.00 | 0.00 | 0.00 | 45 | 1015.1 |
| 20260901201247 | 97 | 360 | 3.5 | 9.6 | 0.00 | 0.00 | 0.00 | 45 | 1015.2 |
| 20260901201127 | 97 | 360 | 3.5 | 9.6 | 0.00 | 0.00 | 0.00 | 45 | 1015.2 |
| 20260901201026 | 97 | 360 | 4.3 | 9.6 | 0.00 | 0.00 | 0.00 | 45 | 1015.2 |
| 20260901200926 | 97 | 167 | 3.5 | 9.6 | 0.00 | 0.00 | 0.00 | 46 | 1015.2 |
| 20260901200827 | 98 | 360 | 3.5 | 9.6 | 0.00 | 0.00 | 0.00 | 45 | 1015.2 |
| 20260901200727 | 97 | 360 | 3.5 | 9.6 | 0.00 | 0.00 | 0.00 | 46 | 1015.3 |
| 20260901200632 | 97 | 360 | 5.2 | 9.6 | 0.00 | 0.00 | 0.00 | 46 | 1015.2 |
| 20260901200553 | 97 | 360 | 5.2 | 9.6 | 0.00 | 0.00 | 0.00 | 45 | 1015.2 |
| 20260901200431 | 97 | 360 | 5.2 | 8.7 | 0.00 | 0.00 | 0.00 | 45 | 1015.3 |
| 20260901200332 | 98 | 360 | 4.3 | 8.7 | 0.00 | 0.00 | 0.00 | 44 | 1015.3 |
| 20260901200253 | 98 | 360 | 3.5 | 7.8 | 0.00 | 0.00 | 0.00 | 43 | 1015.3 |
| 20260901200132 | 98 | 360 | 2.6 | 5.2 | 0.00 | 0.00 | 0.00 | 42 | 1015.3 |
| 20260901200033 | 98 | 360 | 1.7 | 7.0 | 0.00 | 0.00 | 0.00 | 42 | 1015.3 |
| 20260901195916 | 99 | 360 | 0.0 | 7.0 | 0.00 | 0.00 | 0.00 | 42 | 1015.3 |
| 20260901195838 | 98 | 360 | 0.9 | 7.0 | 0.00 | 0.00 | 0.00 | 43 | 1015.3 |
| 20260901195717 | 98 | 360 | 0.9 | 7.0 | 0.00 | 0.00 | 0.00 | 43 | 1015.3 |
| 20260901195617 | 98 | 360 | 1.7 | 7.0 | 0.00 | 0.00 | 0.00 | 43 | 1015.3 |
| 20260901195539 | 98 | 360 | 2.6 | 7.0 | 0.00 | 0.00 | 0.00 | 43 | 1015.4 |
| 20260901195439 | 98 | 360 | 3.5 | 7.0 | 0.00 | 0.00 | 0.00 | 43 | 1015.5 |
| 20260901195318 | 98 | 360 | 3.5 | 7.0 | 0.00 | 0.00 | 0.00 | 43 | 1015.5 |
| 20260901195219 | 99 | 360 | 2.6 | 7.0 | 0.00 | 0.00 | 0.00 | 42 | 1015.4 |
| 20260901195123 | 99 | 360 | 1.7 | 5.2 | 0.00 | 0.00 | 0.00 | 44 | 1015.4 |
| 20260901195023 | 99 | 207 | 0.9 | 7.0 | 0.00 | 0.00 | 0.00 | 44 | 1015.4 |
| 20260901194924 | 99 | 360 | 1.7 | 7.0 | 0.00 | 0.00 | 0.00 | 43 | 1015.5 |
| 20260901194824 | 99 | 360 | 1.7 | 7.0 | 0.00 | 0.00 | 0.00 | 43 | 1015.5 |
| 20260901194726 | 99 | 360 | 0.9 | 7.0 | 0.00 | 0.00 | 0.00 | 43 | 1015.5 |
| 20260901194626 | 99 | 360 | 1.7 | 7.0 | 0.00 | 0.00 | 0.00 | 43 | 1015.6 |
| 20260901194530 | 99 | 256 | 0.9 | 7.0 | 0.00 | 0.00 | 0.00 | 43 | 1015.6 |
| 20260901194430 | 98 | 360 | 2.6 | 7.0 | 0.00 | 0.00 | 0.00 | 44 | 1015.5 |
| 20260901194331 | 98 | 360 | 2.6 | 7.0 | 0.00 | 0.00 | 0.00 | 44 | 1015.5 |
| 20260901194231 | 97 | 360 | 2.6 | 7.0 | 0.00 | 0.00 | 0.00 | 45 | 1015.5 |
| 20260901194132 | 97 | 360 | 2.6 | 5.2 | 0.00 | 0.00 | 0.00 | 45 | 1015.6 |
| 20260901194053 | 97 | 360 | 2.6 | 5.2 | 0.00 | 0.00 | 0.00 | 45 | 1015.6 |
| 20260901193930 | 97 | 360 | 2.6 | 5.2 | 0.00 | 0.00 | 0.00 | 44 | 1015.6 |
| 20260901193831 | 97 | 360 | 2.6 | 6.1 | 0.00 | 0.00 | 0.00 | 44 | 1015.6 |
| 20260901193735 | 97 | 360 | 1.7 | 3.5 | 0.00 | 0.00 | 0.00 | 46 | 1015.6 |
| 20260901193616 | 97 | 360 | 0.9 | 7.8 | 0.00 | 0.00 | 0.00 | 45 | 1015.6 |
| 20260901193516 | 97 | 143 | 0.9 | 7.8 | 0.00 | 0.00 | 0.00 | 45 | 1015.7 |
| 20260901193416 | 96 | 360 | 0.9 | 7.8 | 0.00 | 0.00 | 0.00 | 46 | 1015.6 |
| 20260901193317 | 96 | 360 | 0.9 | 7.8 | 0.00 | 0.00 | 0.00 | 46 | 1015.6 |
| 20260901193218 | 95 | 360 | 1.7 | 7.8 | 0.00 | 0.00 | 0.00 | 47 | 1015.7 |
| 20260901193143 | 95 | 360 | 1.7 | 7.8 | 0.00 | 0.00 | 0.00 | 47 | 1015.6 |
| 20260901193022 | 95 | 360 | 2.6 | 7.8 | 0.00 | 0.00 | 0.00 | 47 | 1015.6 |
| 20260901192923 | 95 | 360 | 4.3 | 7.8 | 0.00 | 0.00 | 0.00 | 46 | 1015.6 |
| 20260901192826 | 95 | 86 | 5.2 | 7.8 | 0.00 | 0.00 | 0.00 | 46 | 1015.7 |
| 20260901192725 | 95 | 360 | 4.3 | 7.8 | 0.00 | 0.00 | 0.00 | 47 | 1015.6 |
| 20260901192626 | 96 | 360 | 2.6 | 7.8 | 0.00 | 0.00 | 0.00 | 47 | 1015.8 |
| 20260901192527 | 96 | 360 | 1.7 | 5.2 | 0.00 | 0.00 | 0.00 | 47 | 1015.8 |
| 20260901192432 | 96 | 129 | 1.7 | 7.0 | 0.00 | 0.00 | 0.00 | 47 | 1015.8 |
| 20260901192333 | 96 | 360 | 1.7 | 7.0 | 0.00 | 0.00 | 0.00 | 48 | 1015.7 |
| 20260901192254 | 96 | 360 | 0.9 | 7.8 | 0.00 | 0.00 | 0.00 | 47 | 1015.8 |
| 20260901192132 | 96 | 360 | 0.9 | 7.8 | 0.00 | 0.00 | 0.00 | 47 | 1015.8 |
| 20260901192033 | 96 | 360 | 0.9 | 7.8 | 0.00 | 0.00 | 0.00 | 48 | 1015.6 |
| 20260901191934 | 95 | 360 | 0.9 | 7.8 | 0.00 | 0.00 | 0.00 | 47 | 1015.8 |
| 20260901191834 | 95 | 360 | 0.9 | 7.8 | 0.00 | 0.00 | 0.00 | 48 | 1015.8 |
| 20260901191718 | 95 | 360 | 2.6 | 7.8 | 0.00 | 0.00 | 0.00 | 48 | 1015.8 |
| 20260901191638 | 95 | 360 | 3.5 | 7.8 | 0.00 | 0.00 | 0.00 | 48 | 1015.8 |
| 20260901191559 | 95 | 360 | 4.3 | 7.8 | 0.00 | 0.00 | 0.00 | 49 | 1015.8 |
| 20260901191438 | 95 | 360 | 3.5 | 7.8 | 0.00 | 0.00 | 0.00 | 49 | 1015.9 |
| 20260901191358 | 95 | 360 | 3.5 | 7.0 | 0.00 | 0.00 | 0.00 | 49 | 1015.9 |
| 20260901191257 | 95 | 360 | 2.6 | 7.0 | 0.00 | 0.00 | 0.00 | 49 | 1015.8 |
| 20260901191156 | 95 | 360 | 2.6 | 8.7 | 0.00 | 0.00 | 0.00 | 49 | 1015.8 |
| 20260901191036 | 95 | 360 | 3.5 | 8.7 | 0.00 | 0.00 | 0.00 | 49 | 1015.9 |
| 20260901190917 | 95 | 360 | 3.5 | 8.7 | 0.00 | 0.00 | 0.00 | 49 | 1015.9 |
| 20260901190820 | 95 | 360 | 2.6 | 8.7 | 0.00 | 0.00 | 0.00 | 49 | 1015.8 |
| 20260901190722 | 95 | 360 | 2.6 | 8.7 | 0.00 | 0.00 | 0.00 | 49 | 1015.9 |
| 20260901190624 | 94 | 34 | 2.6 | 8.7 | 0.00 | 0.00 | 0.00 | 49 | 1016.0 |
| 20260901190524 | 94 | 360 | 3.5 | 8.7 | 0.00 | 0.00 | 0.00 | 50 | 1015.9 |
| 20260901190422 | 94 | 360 | 3.5 | 8.7 | 0.00 | 0.00 | 0.00 | 50 | 1016.0 |
| 20260901190322 | 94 | 51 | 5.2 | 8.7 | 0.00 | 0.00 | 0.00 | 49 | 1016.0 |
| 20260901190227 | 94 | 360 | 6.1 | 8.7 | 0.00 | 0.00 | 0.00 | 49 | 1016.0 |
| 20260901190128 | 95 | 360 | 6.1 | 8.7 | 0.00 | 0.00 | 0.00 | 49 | 1016.0 |
| 20260901190048 | 95 | 360 | 5.2 | 8.7 | 0.00 | 0.00 | 0.00 | 49 | 1016.0 |
| 20260901185927 | 95 | 360 | 4.3 | 7.8 | 0.00 | 0.00 | 0.00 | 48 | 1016.0 |
| 20260901185849 | 96 | 360 | 4.3 | 7.8 | 0.00 | 0.00 | 0.00 | 49 | 1016.0 |
| 20260901185727 | 96 | 360 | 3.5 | 8.7 | 0.00 | 0.00 | 0.00 | 48 | 1016.0 |
| 20260901185628 | 97 | 360 | 2.6 | 8.7 | 0.00 | 0.00 | 0.00 | 47 | 1016.0 |
| 20260901185528 | 97 | 360 | 1.7 | 8.7 | 0.00 | 0.00 | 0.00 | 47 | 1016.0 |
| 20260901185433 | 97 | 360 | 1.7 | 8.7 | 0.00 | 0.00 | 0.00 | 47 | 1016.0 |
| 20260901185335 | 97 | 360 | 1.7 | 8.7 | 0.00 | 0.00 | 0.00 | 47 | 1016.0 |
| 20260901185234 | 97 | 360 | 2.6 | 11.3 | 0.00 | 0.00 | 0.00 | 47 | 1016.0 |
| 20260901185135 | 96 | 360 | 2.6 | 11.3 | 0.00 | 0.00 | 0.00 | 48 | 1016.1 |
| 20260901185035 | 96 | 317 | 3.5 | 11.3 | 0.00 | 0.00 | 0.00 | 48 | 1016.2 |
| 20260901184916 | 95 | 360 | 5.2 | 11.3 | 0.00 | 0.00 | 0.00 | 48 | 1016.2 |
| 20260901184840 | 96 | 360 | 6.1 | 11.3 | 0.00 | 0.00 | 0.00 | 48 | 1016.2 |
| 20260901184719 | 96 | 360 | 6.1 | 11.3 | 0.00 | 0.00 | 0.00 | 48 | 1016.2 |
| 20260901184619 | 96 | 360 | 6.1 | 11.3 | 0.00 | 0.00 | 0.00 | 48 | 1016.3 |
| 20260901184520 | 96 | 360 | 4.3 | 11.3 | 0.00 | 0.00 | 0.00 | 48 | 1016.3 |
| 20260901184420 | 96 | 360 | 3.5 | 11.3 | 0.00 | 0.00 | 0.00 | 49 | 1016.2 |
| 20260901184320 | 96 | 360 | 3.5 | 11.3 | 0.00 | 0.00 | 0.00 | 50 | 1016.3 |
| 20260901184221 | 96 | 360 | 5.2 | 11.3 | 0.00 | 0.00 | 0.00 | 50 | 1016.3 |
| 20260901184145 | 96 | 360 | 7.0 | 11.3 | 0.00 | 0.00 | 0.00 | 48 | 1016.4 |
| 20260901184025 | 96 | 360 | 7.0 | 11.3 | 0.00 | 0.00 | 0.00 | 49 | 1016.4 |
| 20260901183945 | 96 | 360 | 7.0 | 11.3 | 0.00 | 0.00 | 0.00 | 49 | 1016.4 |
| 20260901183825 | 96 | 360 | 7.0 | 11.3 | 0.00 | 0.00 | 0.00 | 49 | 1016.4 |
| 20260901183725 | 96 | 360 | 7.0 | 11.3 | 0.00 | 0.00 | 0.00 | 48 | 1016.4 |
| 20260901183626 | 97 | 360 | 4.3 | 10.4 | 0.00 | 0.00 | 0.00 | 48 | 1016.4 |
| 20260901183525 | 97 | 132 | 3.5 | 10.4 | 0.00 | 0.00 | 0.00 | 49 | 1016.4 |
| 20260901183426 | 96 | 360 | 2.6 | 10.4 | 0.00 | 0.00 | 0.00 | 49 | 1016.5 |
| 20260901183330 | 96 | 360 | 4.3 | 10.4 | 0.00 | 0.00 | 0.00 | 50 | 1016.6 |
| 20260901183231 | 96 | 360 | 4.3 | 10.4 | 0.00 | 0.00 | 0.00 | 50 | 1016.6 |
| 20260901183132 | 95 | 360 | 4.3 | 10.4 | 0.00 | 0.00 | 0.00 | 50 | 1016.6 |
| 20260901183032 | 95 | 360 | 3.5 | 10.4 | 0.00 | 0.00 | 0.00 | 50 | 1016.6 |
| 20260901182952 | 95 | 360 | 2.6 | 12.2 | 0.00 | 0.00 | 0.00 | 50 | 1016.6 |
| 20260901182833 | 95 | 360 | 3.5 | 12.2 | 0.00 | 0.00 | 0.00 | 53 | 1016.5 |
| 20260901182733 | 94 | 360 | 5.2 | 12.2 | 0.00 | 0.00 | 0.00 | 51 | 1016.6 |
| 20260901182617 | 94 | 360 | 6.1 | 12.2 | 0.00 | 0.00 | 0.00 | 51 | 1016.7 |
| 20260901182518 | 94 | 360 | 6.1 | 12.2 | 0.00 | 0.00 | 0.00 | 50 | 1016.6 |
| 20260901182438 | 95 | 360 | 6.1 | 12.2 | 0.00 | 0.00 | 0.00 | 51 | 1016.6 |
| 20260901182318 | 94 | 360 | 7.0 | 12.2 | 0.00 | 0.00 | 0.00 | 51 | 1016.6 |
| 20260901182219 | 94 | 98 | 6.1 | 12.2 | 0.00 | 0.00 | 0.00 | 51 | 1016.7 |
| 20260901182118 | 95 | 360 | 4.3 | 10.4 | 0.00 | 0.00 | 0.00 | 50 | 1016.6 |
| 20260901182020 | 95 | 360 | 3.5 | 9.6 | 0.00 | 0.00 | 0.00 | 51 | 1016.6 |
| 20260901181925 | 95 | 360 | 3.5 | 9.6 | 0.00 | 0.00 | 0.00 | 50 | 1016.6 |
| 20260901181825 | 95 | 360 | 5.2 | 9.6 | 0.00 | 0.00 | 0.00 | 50 | 1016.7 |
| 20260901181725 | 95 | 360 | 5.2 | 9.6 | 0.00 | 0.00 | 0.00 | 49 | 1016.8 |
| 20260901181626 | 96 | 360 | 4.3 | 10.4 | 0.00 | 0.00 | 0.00 | 48 | 1016.8 |
| 20260901181526 | 96 | 360 | 2.6 | 10.4 | 0.00 | 0.00 | 0.00 | 49 | 1016.8 |
| 20260901181427 | 96 | 360 | 2.6 | 10.4 | 0.00 | 0.00 | 0.00 | 50 | 1016.7 |
| 20260901181347 | 96 | 360 | 3.5 | 10.4 | 0.00 | 0.00 | 0.00 | 50 | 1016.8 |
| 20260901181231 | 95 | 360 | 4.3 | 10.4 | 0.00 | 0.00 | 0.00 | 50 | 1016.8 |
| 20260901181132 | 95 | 360 | 5.2 | 12.2 | 0.00 | 0.00 | 0.00 | 50 | 1016.8 |
| 20260901181032 | 95 | 360 | 5.2 | 12.2 | 0.00 | 0.00 | 0.00 | 50 | 1016.8 |
| 20260901180952 | 95 | 360 | 5.2 | 12.2 | 0.00 | 0.00 | 0.00 | 49 | 1016.8 |
| 20260901180852 | 95 | 360 | 5.2 | 12.2 | 0.00 | 0.00 | 0.00 | 49 | 1016.8 |
| 20260901180732 | 95 | 360 | 6.1 | 12.2 | 0.00 | 0.00 | 0.00 | 49 | 1016.9 |
| 20260901180632 | 95 | 360 | 6.1 | 10.4 | 0.00 | 0.00 | 0.00 | 48 | 1016.9 |
| 20260901180533 | 95 | 141 | 7.0 | 10.4 | 0.00 | 0.00 | 0.00 | 48 | 1016.9 |
| 20260901180417 | 96 | 360 | 5.2 | 9.6 | 0.00 | 0.00 | 0.00 | 48 | 1016.9 |
| 20260901180337 | 96 | 360 | 3.5 | 9.6 | 0.00 | 0.00 | 0.00 | 49 | 1016.9 |
| 20260901180216 | 96 | 360 | 2.6 | 9.6 | 0.00 | 0.00 | 0.00 | 48 | 1016.9 |
| 20260901180117 | 96 | 187 | 1.7 | 12.2 | 0.00 | 0.00 | 0.00 | 49 | 1017.0 |
| 20260901180018 | 95 | 360 | 2.6 | 13.0 | 0.00 | 0.00 | 0.00 | 50 | 1016.9 |
| 20260901175938 | 94 | 360 | 4.3 | 13.0 | 0.00 | 0.00 | 0.00 | 50 | 1017.0 |
| 20260901175839 | 94 | 360 | 5.2 | 13.0 | 0.00 | 0.00 | 0.00 | 49 | 1017.0 |
| 20260901175717 | 95 | 169 | 6.1 | 13.0 | 0.00 | 0.00 | 0.00 | 50 | 1017.1 |
| 20260901175621 | 94 | 360 | 6.1 | 13.0 | 0.00 | 0.00 | 0.00 | 51 | 1017.1 |
| 20260901175522 | 94 | 360 | 7.0 | 13.0 | 0.00 | 0.00 | 0.00 | 51 | 1017.1 |
| 20260901175422 | 94 | 360 | 7.8 | 13.0 | 0.00 | 0.00 | 0.00 | 51 | 1017.1 |
| 20260901175322 | 94 | 360 | 7.8 | 13.0 | 0.00 | 0.00 | 0.00 | 50 | 1017.2 |
| 20260901175223 | 94 | 360 | 7.0 | 13.0 | 0.00 | 0.00 | 0.00 | 50 | 1017.1 |
| 20260901175123 | 94 | 360 | 4.3 | 10.4 | 0.00 | 0.00 | 0.00 | 51 | 1017.1 |
| 20260901175028 | 94 | 360 | 3.5 | 9.6 | 0.00 | 0.00 | 0.00 | 51 | 1017.1 |
| 20260901174927 | 94 | 360 | 3.5 | 7.0 | 0.00 | 0.00 | 0.00 | 50 | 1017.1 |
| 20260901174828 | 95 | 84 | 3.5 | 7.0 | 0.00 | 0.00 | 0.00 | 50 | 1017.1 |
| 20260901174728 | 95 | 360 | 4.3 | 7.0 | 0.00 | 0.00 | 0.00 | 49 | 1017.2 |
| 20260901174628 | 95 | 101 | 3.5 | 10.4 | 0.00 | 0.00 | 0.00 | 49 | 1017.2 |
| 20260901174529 | 95 | 360 | 3.5 | 10.4 | 0.00 | 0.00 | 0.00 | 49 | 1017.2 |
| 20260901174430 | 96 | 360 | 3.5 | 10.4 | 0.00 | 0.00 | 0.00 | 49 | 1017.2 |
| 20260901174335 | 95 | 360 | 2.6 | 10.4 | 0.00 | 0.00 | 0.00 | 50 | 1017.2 |
| 20260901174255 | 95 | 360 | 2.6 | 10.4 | 0.00 | 0.00 | 0.00 | 49 | 1017.2 |
| 20260901174135 | 95 | 360 | 3.5 | 10.4 | 0.00 | 0.00 | 0.00 | 50 | 1017.2 |
| 20260901174035 | 95 | 360 | 3.5 | 10.4 | 0.00 | 0.00 | 0.00 | 49 | 1017.3 |
| 20260901173936 | 95 | 360 | 4.3 | 10.4 | 0.00 | 0.00 | 0.00 | 49 | 1017.3 |
| 20260901173835 | 95 | 360 | 3.5 | 10.4 | 0.00 | 0.00 | 0.00 | 50 | 1017.3 |
| 20260901173717 | 94 | 360 | 3.5 | 10.4 | 0.00 | 0.00 | 0.00 | 50 | 1017.3 |
| 20260901173622 | 94 | 360 | 3.5 | 10.4 | 0.00 | 0.00 | 0.00 | 51 | 1017.3 |
| 20260901173521 | 94 | 360 | 3.5 | 10.4 | 0.00 | 0.00 | 0.00 | 51 | 1017.4 |
| 20260901173421 | 94 | 81 | 4.3 | 10.4 | 0.00 | 0.00 | 0.00 | 50 | 1017.4 |
| 20260901173321 | 94 | 360 | 5.2 | 10.4 | 0.00 | 0.00 | 0.00 | 51 | 1017.4 |
| 20260901173222 | 94 | 360 | 6.1 | 10.4 | 0.00 | 0.00 | 0.00 | 50 | 1017.4 |
| 20260901173123 | 95 | 360 | 5.2 | 10.4 | 0.00 | 0.00 | 0.00 | 51 | 1017.4 |
| 20260901173024 | 95 | 360 | 4.3 | 10.4 | 0.00 | 0.00 | 0.00 | 51 | 1017.5 |
| 20260901172928 | 95 | 360 | 4.3 | 10.4 | 0.00 | 0.00 | 0.00 | 50 | 1017.4 |
| 20260901172832 | 95 | 360 | 3.5 | 9.6 | 0.00 | 0.00 | 0.00 | 52 | 1017.4 |
| 20260901172730 | 94 | 360 | 3.5 | 9.6 | 0.00 | 0.00 | 0.00 | 52 | 1017.5 |
| 20260901172631 | 94 | 360 | 4.3 | 9.6 | 0.00 | 0.00 | 0.00 | 52 | 1017.5 |
| 20260901172532 | 94 | 360 | 4.3 | 9.6 | 0.00 | 0.00 | 0.00 | 51 | 1017.4 |
| 20260901172434 | 94 | 360 | 4.3 | 9.6 | 0.00 | 0.00 | 0.00 | 51 | 1017.4 |
| 20260901172318 | 94 | 360 | 4.3 | 9.6 | 0.00 | 0.00 | 0.00 | 51 | 1017.4 |
| 20260901172220 | 94 | 360 | 3.5 | 9.6 | 0.00 | 0.00 | 0.00 | 51 | 1017.5 |
| 20260901172139 | 93 | 360 | 2.6 | 9.6 | 0.00 | 0.00 | 0.00 | 52 | 1017.5 |
| 20260901172019 | 94 | 360 | 1.7 | 9.6 | 0.00 | 0.00 | 0.00 | 52 | 1017.6 |
| 20260901171919 | 93 | 360 | 1.7 | 10.4 | 0.00 | 0.00 | 0.00 | 52 | 1017.5 |
| 20260901171818 | 93 | 360 | 2.6 | 10.4 | 0.00 | 0.00 | 0.00 | 53 | 1017.5 |
| 20260901171717 | 93 | 360 | 3.5 | 10.4 | 0.00 | 0.00 | 0.00 | 52 | 1017.6 |
| 20260901171622 | 93 | 360 | 3.5 | 10.4 | 0.00 | 0.00 | 0.00 | 52 | 1017.6 |
| 20260901171522 | 93 | 360 | 4.3 | 10.4 | 0.00 | 0.00 | 0.00 | 52 | 1017.5 |
| 20260901171423 | 92 | 360 | 4.3 | 10.4 | 0.00 | 0.00 | 0.00 | 52 | 1017.5 |
| 20260901171324 | 92 | 360 | 5.2 | 10.4 | 0.00 | 0.00 | 0.00 | 51 | 1017.5 |
| 20260901171225 | 92 | 360 | 7.0 | 10.4 | 0.00 | 0.00 | 0.00 | 52 | 1017.6 |
| 20260901171145 | 93 | 360 | 6.1 | 10.4 | 0.00 | 0.00 | 0.00 | 52 | 1017.6 |
| 20260901171025 | 93 | 360 | 6.1 | 10.4 | 0.00 | 0.00 | 0.00 | 52 | 1017.6 |
| 20260901170930 | 93 | 360 | 5.2 | 8.7 | 0.00 | 0.00 | 0.00 | 51 | 1017.6 |
| 20260901170830 | 93 | 360 | 4.3 | 8.7 | 0.00 | 0.00 | 0.00 | 51 | 1017.6 |
| 20260901170730 | 93 | 360 | 3.5 | 8.7 | 0.00 | 0.00 | 0.00 | 51 | 1017.7 |
| 20260901170630 | 93 | 360 | 3.5 | 8.7 | 0.00 | 0.00 | 0.00 | 51 | 1017.6 |
| 20260901170530 | 93 | 360 | 4.3 | 8.7 | 0.00 | 0.00 | 0.00 | 51 | 1017.6 |
| 20260901170430 | 93 | 360 | 5.2 | 8.7 | 0.00 | 0.00 | 0.00 | 51 | 1017.6 |
| 20260901170331 | 94 | 360 | 4.3 | 8.7 | 0.00 | 0.00 | 0.00 | 50 | 1017.6 |
| 20260901170251 | 95 | 360 | 2.6 | 8.7 | 0.00 | 0.00 | 0.00 | 49 | 1017.6 |
| 20260901170135 | 95 | 360 | 1.7 | 5.2 | 0.00 | 0.00 | 0.00 | 48 | 1017.6 |
| 20260901170031 | 95 | 360 | 1.7 | 4.3 | 0.00 | 0.00 | 0.00 | 50 | 1017.7 |
| 20260901165951 | 95 | 360 | 1.7 | 4.3 | 0.00 | 0.00 | 0.00 | 53 | 1017.7 |
| 20260901165832 | 96 | 360 | 1.7 | 4.3 | 0.00 | 0.00 | 0.00 | 53 | 1017.8 |
| 20260901165731 | 96 | 360 | 1.7 | 4.3 | 0.00 | 0.00 | 0.00 | 53 | 1017.8 |
| 20260901165632 | 95 | 360 | 1.7 | 4.3 | 0.00 | 0.00 | 0.00 | 54 | 1017.7 |
| 20260901165533 | 95 | 360 | 1.7 | 4.3 | 0.00 | 0.00 | 0.00 | 54 | 1017.7 |
| 20260901165417 | 93 | 360 | 2.6 | 4.3 | 0.00 | 0.00 | 0.00 | 55 | 1017.8 |
| 20260901165318 | 93 | 360 | 2.6 | 4.3 | 0.00 | 0.00 | 0.00 | 56 | 1017.9 |
| 20260901165218 | 93 | 360 | 2.6 | 4.3 | 0.00 | 0.00 | 0.00 | 56 | 1017.9 |
| 20260901165119 | 93 | 86 | 2.6 | 4.3 | 0.00 | 0.00 | 0.00 | 55 | 1017.9 |
| 20260901165020 | 94 | 85 | 2.6 | 4.3 | 0.00 | 0.00 | 0.00 | 55 | 1017.8 |
| 20260901164921 | 95 | 360 | 2.6 | 5.2 | 0.00 | 0.00 | 0.00 | 55 | 1017.9 |
| 20260901164841 | 94 | 360 | 1.7 | 5.2 | 0.00 | 0.00 | 0.00 | 57 | 1017.9 |
| 20260901164724 | 94 | 360 | 1.7 | 5.2 | 0.00 | 0.00 | 0.00 | 57 | 1017.9 |
| 20260901164625 | 93 | 62 | 1.7 | 7.8 | 0.00 | 0.00 | 0.00 | 57 | 1018.0 |
| 20260901164526 | 93 | 360 | 1.7 | 7.8 | 0.00 | 0.00 | 0.00 | 57 | 1017.9 |
| 20260901164427 | 93 | 360 | 1.7 | 7.8 | 0.00 | 0.00 | 0.00 | 57 | 1017.9 |
| 20260901164327 | 93 | 360 | 1.7 | 7.8 | 0.00 | 0.00 | 0.00 | 57 | 1017.9 |
| 20260901164227 | 92 | 360 | 2.6 | 10.4 | 0.00 | 0.00 | 0.00 | 57 | 1017.9 |
| 20260901164132 | 93 | 360 | 3.5 | 10.4 | 0.00 | 0.00 | 0.00 | 60 | 1017.9 |
| 20260901164033 | 92 | 360 | 3.5 | 10.4 | 0.00 | 0.00 | 0.00 | 59 | 1017.8 |
| 20260901163933 | 93 | 360 | 3.5 | 10.4 | 0.00 | 0.00 | 0.00 | 59 | 1017.8 |
| 20260901163834 | 93 | 360 | 3.5 | 10.4 | 0.00 | 0.00 | 0.00 | 59 | 1017.8 |
| 20260901163734 | 93 | 360 | 2.6 | 10.4 | 0.00 | 0.00 | 0.00 | 59 | 1017.9 |
| 20260901163635 | 92 | 360 | 2.6 | 10.4 | 0.00 | 0.00 | 0.00 | 59 | 1017.8 |
| 20260901163516 | 93 | 360 | 4.3 | 10.4 | 0.00 | 0.00 | 0.00 | 59 | 1017.9 |
| 20260901163421 | 93 | 142 | 5.2 | 10.4 | 0.00 | 0.00 | 0.00 | 59 | 1017.8 |
| 20260901163322 | 93 | 360 | 4.3 | 10.4 | 0.00 | 0.00 | 0.00 | 58 | 1017.9 |
| 20260901163222 | 94 | 360 | 2.6 | 10.4 | 0.00 | 0.00 | 0.00 | 58 | 1017.7 |
| 20260901163120 | 94 | 360 | 1.7 | 4.3 | 0.00 | 0.00 | 0.00 | 58 | 1017.8 |
| 20260901163020 | 94 | 360 | 0.9 | 4.3 | 0.00 | 0.00 | 0.00 | 59 | 1017.9 |
| 20260901162921 | 93 | 360 | 1.7 | 4.3 | 0.00 | 0.00 | 0.00 | 58 | 1018.0 |
| 20260901162827 | 94 | 360 | 1.7 | 4.3 | 0.00 | 0.00 | 0.00 | 58 | 1017.9 |
| 20260901162727 | 94 | 360 | 1.7 | 4.3 | 0.00 | 0.00 | 0.00 | 57 | 1017.9 |
| 20260901162628 | 94 | 360 | 0.9 | 4.3 | 0.00 | 0.00 | 0.00 | 57 | 1018.0 |
| 20260901162549 | 94 | 360 | 0.9 | 4.3 | 0.00 | 0.00 | 0.00 | 59 | 1018.0 |
| 20260901162429 | 93 | 360 | 1.7 | 5.2 | 0.00 | 0.00 | 0.00 | 59 | 1018.0 |
| 20260901162349 | 93 | 360 | 1.7 | 5.2 | 0.00 | 0.00 | 0.00 | 59 | 1018.1 |
| 20260901162228 | 92 | 360 | 1.7 | 5.2 | 0.00 | 0.00 | 0.00 | 60 | 1018.0 |
| 20260901162129 | 92 | 74 | 2.6 | 5.2 | 0.00 | 0.00 | 0.00 | 60 | 1018.1 |
| 20260901162034 | 92 | 360 | 3.5 | 5.2 | 0.00 | 0.00 | 0.00 | 58 | 1018.1 |
| 20260901161935 | 93 | 360 | 3.5 | 5.2 | 0.00 | 0.00 | 0.00 | 57 | 1018.1 |
| 20260901161835 | 94 | 360 | 2.6 | 5.2 | 0.00 | 0.00 | 0.00 | 58 | 1018.2 |
| 20260901161735 | 94 | 360 | 1.7 | 5.2 | 0.00 | 0.00 | 0.00 | 58 | 1018.2 |
| 20260901161636 | 94 | 360 | 0.9 | 4.3 | 0.00 | 0.00 | 0.00 | 59 | 1018.1 |
| 20260901161556 | 93 | 290 | 0.9 | 4.3 | 0.00 | 0.00 | 0.00 | 60 | 1018.2 |
| 20260901161420 | 92 | 360 | 1.7 | 4.3 | 0.00 | 0.00 | 0.00 | 60 | 1018.1 |
| 20260901161340 | 92 | 360 | 2.6 | 4.3 | 0.00 | 0.00 | 0.00 | 58 | 1018.2 |
| 20260901161220 | 93 | 360 | 2.6 | 4.3 | 0.00 | 0.00 | 0.00 | 58 | 1018.1 |
| 20260901161121 | 94 | 360 | 2.6 | 4.3 | 0.00 | 0.00 | 0.00 | 58 | 1018.1 |
| 20260901161022 | 94 | 360 | 2.6 | 4.3 | 0.00 | 0.00 | 0.00 | 57 | 1018.2 |
| 20260901160943 | 94 | 360 | 1.7 | 4.3 | 0.00 | 0.00 | 0.00 | 57 | 1018.2 |
| 20260901160822 | 94 | 360 | 1.7 | 4.3 | 0.00 | 0.00 | 0.00 | 57 | 1018.2 |
| 20260901160724 | 94 | 360 | 0.9 | 4.3 | 0.00 | 0.00 | 0.00 | 58 | 1018.1 |
| 20260901160628 | 94 | 360 | 0.9 | 4.3 | 0.00 | 0.00 | 0.00 | 58 | 1018.2 |
| 20260901160529 | 94 | 360 | 0.9 | 4.3 | 0.00 | 0.00 | 0.00 | 58 | 1018.2 |
| 20260901160429 | 93 | 360 | 0.9 | 4.3 | 0.00 | 0.00 | 0.00 | 58 | 1018.2 |
| 20260901160330 | 93 | 360 | 0.9 | 4.3 | 0.00 | 0.00 | 0.00 | 58 | 1018.2 |
| 20260901160252 | 93 | 360 | 1.7 | 4.3 | 0.00 | 0.00 | 0.00 | 60 | 1018.1 |
| 20260901160131 | 92 | 360 | 1.7 | 4.3 | 0.00 | 0.00 | 0.00 | 60 | 1018.2 |
| 20260901160016 | 92 | 350 | 1.7 | 4.3 | 0.00 | 0.00 | 0.00 | 60 | 1018.2 |
| 20260901155916 | 92 | 360 | 1.7 | 2.6 | 0.00 | 0.00 | 0.00 | 60 | 1018.2 |
| 20260901155818 | 91 | 360 | 1.7 | 3.5 | 0.00 | 0.00 | 0.00 | 60 | 1018.2 |
| 20260901155717 | 92 | 360 | 1.7 | 3.5 | 0.00 | 0.00 | 0.00 | 59 | 1018.2 |
| 20260901155617 | 92 | 60 | 1.7 | 5.2 | 0.00 | 0.00 | 0.00 | 58 | 1018.2 |
| 20260901155517 | 92 | 360 | 1.7 | 5.2 | 0.00 | 0.00 | 0.00 | 59 | 1018.2 |
| 20260901155418 | 93 | 360 | 1.7 | 5.2 | 0.00 | 0.00 | 0.00 | 59 | 1018.2 |
| 20260901155324 | 93 | 360 | 0.9 | 5.2 | 0.00 | 0.00 | 0.00 | 60 | 1018.2 |
| 20260901155223 | 92 | 360 | 1.7 | 5.2 | 0.00 | 0.00 | 0.00 | 61 | 1018.1 |
| 20260901155124 | 92 | 360 | 1.7 | 5.2 | 0.00 | 0.00 | 0.00 | 61 | 1018.2 |
| 20260901155025 | 91 | 32 | 2.6 | 5.2 | 0.00 | 0.00 | 0.00 | 61 | 1018.2 |
| 20260901154945 | 91 | 30 | 2.6 | 5.2 | 0.00 | 0.00 | 0.00 | 61 | 1018.1 |
| 20260901154825 | 91 | 360 | 2.6 | 5.2 | 0.00 | 0.00 | 0.00 | 61 | 1018.2 |
| 20260901154724 | 91 | 34 | 1.7 | 5.2 | 0.00 | 0.00 | 0.00 | 61 | 1018.2 |
| 20260901154625 | 91 | 360 | 1.7 | 5.2 | 0.00 | 0.00 | 0.00 | 61 | 1018.2 |
| 20260901154530 | 92 | 360 | 2.6 | 5.2 | 0.00 | 0.00 | 0.00 | 61 | 1018.2 |
| 20260901154431 | 91 | 360 | 3.5 | 5.2 | 0.00 | 0.00 | 0.00 | 61 | 1018.2 |
| 20260901154331 | 91 | 360 | 2.6 | 4.3 | 0.00 | 0.00 | 0.00 | 61 | 1018.1 |
| 20260901154232 | 92 | 360 | 2.6 | 4.3 | 0.00 | 0.00 | 0.00 | 61 | 1018.2 |
| 20260901154133 | 92 | 339 | 1.7 | 4.3 | 0.00 | 0.00 | 0.00 | 62 | 1018.1 |
| 20260901154034 | 92 | 360 | 1.7 | 4.3 | 0.00 | 0.00 | 0.00 | 61 | 1018.1 |
| 20260901153939 | 92 | 360 | 2.6 | 4.3 | 0.00 | 0.00 | 0.00 | 61 | 1018.1 |
| 20260901153820 | 92 | 61 | 1.7 | 4.3 | 0.00 | 0.00 | 0.00 | 61 | 1018.2 |
| 20260901153721 | 92 | 360 | 1.7 | 3.5 | 0.00 | 0.00 | 0.00 | 61 | 1018.1 |
| 20260901153622 | 93 | 360 | 1.7 | 3.5 | 0.00 | 0.00 | 0.00 | 62 | 1018.1 |
| 20260901153522 | 92 | 360 | 1.7 | 3.5 | 0.00 | 0.00 | 0.00 | 62 | 1018.1 |
| 20260901153423 | 92 | 360 | 1.7 | 3.5 | 0.00 | 0.00 | 0.00 | 62 | 1018.1 |
| 20260901153343 | 92 | 78 | 0.9 | 3.5 | 0.00 | 0.00 | 0.00 | 61 | 1018.1 |
| 20260901153243 | 93 | 360 | 0.9 | 3.5 | 0.00 | 0.00 | 0.00 | 62 | 1018.1 |
| 20260901153127 | 93 | 360 | 0.0 | 3.5 | 0.00 | 0.00 | 0.00 | 62 | 1018.1 |
| 20260901153025 | 92 | 360 | 0.0 | 4.3 | 0.00 | 0.00 | 0.00 | 62 | 1018.1 |
| 20260901152946 | 92 | 360 | 0.0 | 7.0 | 0.00 | 0.00 | 0.00 | 63 | 1018.1 |
| 20260901152847 | 91 | 360 | 0.0 | 7.0 | 0.00 | 0.00 | 0.00 | 63 | 1018.1 |
| 20260901152727 | 91 | 360 | 0.9 | 7.0 | 0.00 | 0.00 | 0.00 | 62 | 1018.1 |
| 20260901152627 | 91 | 360 | 1.7 | 7.0 | 0.00 | 0.00 | 0.00 | 62 | 1018.1 |
| 20260901152528 | 92 | 360 | 1.7 | 7.0 | 0.00 | 0.00 | 0.00 | 60 | 1018.1 |
| 20260901152427 | 93 | 360 | 2.6 | 7.0 | 0.00 | 0.00 | 0.00 | 60 | 1018.1 |
| 20260901152327 | 93 | 360 | 2.6 | 7.0 | 0.00 | 0.00 | 0.00 | 59 | 1018.0 |
| 20260901152232 | 94 | 360 | 2.6 | 7.0 | 0.00 | 0.00 | 0.00 | 59 | 1018.0 |
| 20260901152133 | 94 | 360 | 2.6 | 7.0 | 0.00 | 0.00 | 0.00 | 58 | 1018.1 |
| 20260901152033 | 95 | 360 | 1.7 | 5.2 | 0.00 | 0.00 | 0.00 | 59 | 1018.1 |
| 20260901151933 | 95 | 360 | 0.9 | 2.6 | 0.00 | 0.00 | 0.00 | 59 | 1018.0 |
| 20260901151833 | 94 | 360 | 0.9 | 2.6 | 0.00 | 0.00 | 0.00 | 60 | 1018.1 |
| 20260901151734 | 94 | 360 | 1.7 | 2.6 | 0.00 | 0.00 | 0.00 | 61 | 1018.1 |
| 20260901151638 | 93 | 360 | 0.9 | 2.6 | 0.00 | 0.00 | 0.00 | 62 | 1018.1 |
| 20260901151517 | 93 | 360 | 1.7 | 2.6 | 0.00 | 0.00 | 0.00 | 62 | 1018.1 |
| 20260901151418 | 92 | 360 | 0.9 | 2.6 | 0.00 | 0.00 | 0.00 | 63 | 1018.2 |
| 20260901151318 | 92 | 225 | 0.9 | 2.6 | 0.00 | 0.00 | 0.00 | 64 | 1018.1 |
| 20260901151219 | 91 | 360 | 0.9 | 3.5 | 0.00 | 0.00 | 0.00 | 66 | 1018.2 |
| 20260901151119 | 91 | 117 | 0.9 | 3.5 | 0.00 | 0.00 | 0.00 | 66 | 1018.1 |
| 20260901151019 | 90 | 117 | 0.9 | 3.5 | 0.00 | 0.00 | 0.00 | 65 | 1018.1 |
| 20260901150925 | 90 | 360 | 0.9 | 3.5 | 0.00 | 0.00 | 0.00 | 67 | 1018.1 |
| 20260901150826 | 90 | 360 | 0.0 | 3.5 | 0.00 | 0.00 | 0.00 | 67 | 1018.1 |
| 20260901150727 | 89 | 360 | 0.9 | 5.2 | 0.00 | 0.00 | 0.00 | 67 | 1018.1 |
| 20260901150627 | 89 | 360 | 0.9 | 5.2 | 0.00 | 0.00 | 0.00 | 68 | 1018.1 |
| 20260901150527 | 89 | 360 | 1.7 | 5.2 | 0.00 | 0.00 | 0.00 | 68 | 1018.2 |
| 20260901150428 | 88 | 360 | 1.7 | 5.2 | 0.00 | 0.00 | 0.00 | 68 | 1018.1 |
| 20260901150350 | 88 | 360 | 1.7 | 5.2 | 0.00 | 0.00 | 0.00 | 68 | 1018.2 |
| 20260901150232 | 88 | 360 | 1.7 | 5.2 | 0.00 | 0.00 | 0.00 | 69 | 1018.2 |
| 20260901150131 | 88 | 360 | 1.7 | 5.2 | 0.00 | 0.00 | 0.00 | 70 | 1018.2 |
| 20260901150031 | 87 | 360 | 2.6 | 5.2 | 0.00 | 0.00 | 0.00 | 70 | 1018.1 |
| 20260901145932 | 87 | 360 | 3.5 | 5.2 | 0.00 | 0.00 | 0.00 | 69 | 1018.2 |
| 20260901145853 | 87 | 360 | 3.5 | 5.2 | 0.00 | 0.00 | 0.00 | 68 | 1018.1 |
| 20260901145732 | 88 | 360 | 2.6 | 5.2 | 0.00 | 0.00 | 0.00 | 68 | 1018.2 |
| 20260901145633 | 88 | 360 | 1.7 | 4.3 | 0.00 | 0.00 | 0.00 | 68 | 1018.3 |
| 20260901145517 | 88 | 142 | 1.7 | 4.3 | 0.00 | 0.00 | 0.00 | 68 | 1018.2 |
| 20260901145418 | 89 | 360 | 1.7 | 4.3 | 0.00 | 0.00 | 0.00 | 66 | 1018.2 |
| 20260901145319 | 89 | 360 | 1.7 | 4.3 | 0.00 | 0.00 | 0.00 | 66 | 1018.2 |
| 20260901145239 | 90 | 143 | 1.7 | 4.3 | 0.00 | 0.00 | 0.00 | 65 | 1018.2 |
| 20260901145119 | 90 | 144 | 0.9 | 4.3 | 0.00 | 0.00 | 0.00 | 65 | 1018.2 |
| 20260901145019 | 91 | 360 | 0.0 | 2.6 | 0.00 | 0.00 | 0.00 | 65 | 1018.2 |
| 20260901144920 | 90 | 360 | 0.0 | 2.6 | 0.00 | 0.00 | 0.00 | 66 | 1018.2 |
| 20260901144824 | 90 | 360 | 0.0 | 2.6 | 0.00 | 0.00 | 0.00 | 66 | 1018.2 |
| 20260901144725 | 90 | 360 | 0.9 | 2.6 | 0.00 | 0.00 | 0.00 | 66 | 1018.3 |
| 20260901144645 | 90 | 360 | 0.9 | 2.6 | 0.00 | 0.00 | 0.00 | 67 | 1018.2 |
| 20260901144544 | 89 | 360 | 0.9 | 2.6 | 0.00 | 0.00 | 0.00 | 67 | 1018.3 |
| 20260901144424 | 89 | 360 | 0.9 | 2.6 | 0.00 | 0.00 | 0.00 | 66 | 1018.2 |
| 20260901144324 | 90 | 360 | 0.9 | 3.5 | 0.00 | 0.00 | 0.00 | 65 | 1018.2 |
| 20260901144225 | 90 | 360 | 0.9 | 4.3 | 0.00 | 0.00 | 0.00 | 66 | 1018.2 |
| 20260901144129 | 90 | 360 | 1.7 | 4.3 | 0.00 | 0.00 | 0.00 | 67 | 1018.2 |
| 20260901144029 | 89 | 360 | 0.9 | 4.3 | 0.00 | 0.00 | 0.00 | 67 | 1018.3 |
| 20260901143929 | 89 | 360 | 0.9 | 4.3 | 0.00 | 0.00 | 0.00 | 67 | 1018.3 |
| 20260901143830 | 89 | 360 | 0.9 | 4.3 | 0.00 | 0.00 | 0.00 | 66 | 1018.2 |
| 20260901143752 | 90 | 360 | 1.7 | 4.3 | 0.00 | 0.00 | 0.00 | 65 | 1018.2 |
| 20260901143631 | 90 | 360 | 1.7 | 4.3 | 0.00 | 0.00 | 0.00 | 65 | 1018.3 |
| 20260901143532 | 90 | 360 | 2.6 | 5.2 | 0.00 | 0.00 | 0.00 | 65 | 1018.2 |
| 20260901143416 | 91 | 360 | 2.6 | 5.2 | 0.00 | 0.00 | 0.00 | 64 | 1018.3 |
| 20260901143316 | 92 | 360 | 1.7 | 5.2 | 0.00 | 0.00 | 0.00 | 64 | 1018.2 |
| 20260901143216 | 92 | 360 | 1.7 | 5.2 | 0.00 | 0.00 | 0.00 | 65 | 1018.2 |
| 20260901143116 | 92 | 284 | 1.7 | 5.2 | 0.00 | 0.00 | 0.00 | 65 | 1018.2 |
| 20260901143017 | 91 | 275 | 1.7 | 5.2 | 0.00 | 0.00 | 0.00 | 66 | 1018.3 |
| 20260901142916 | 91 | 360 | 2.6 | 5.2 | 0.00 | 0.00 | 0.00 | 66 | 1018.2 |
| 20260901142823 | 91 | 360 | 2.6 | 5.2 | 0.00 | 0.00 | 0.00 | 67 | 1018.2 |
| 20260901142723 | 90 | 360 | 2.6 | 4.3 | 0.00 | 0.00 | 0.00 | 67 | 1018.2 |
| 20260901142623 | 90 | 360 | 1.7 | 3.5 | 0.00 | 0.00 | 0.00 | 67 | 1018.2 |
| 20260901142523 | 90 | 360 | 1.7 | 3.5 | 0.00 | 0.00 | 0.00 | 67 | 1018.2 |
| 20260901142424 | 90 | 258 | 1.7 | 3.5 | 0.00 | 0.00 | 0.00 | 68 | 1018.3 |
| 20260901142326 | 90 | 302 | 1.7 | 4.3 | 0.00 | 0.00 | 0.00 | 67 | 1018.3 |
| 20260901142227 | 90 | 360 | 0.9 | 4.3 | 0.00 | 0.00 | 0.00 | 68 | 1018.2 |
| 20260901142132 | 90 | 360 | 0.9 | 4.3 | 0.00 | 0.00 | 0.00 | 69 | 1018.3 |
| 20260901142032 | 89 | 360 | 0.9 | 4.3 | 0.00 | 0.00 | 0.00 | 69 | 1018.3 |
| 20260901141932 | 89 | 360 | 1.7 | 4.3 | 0.00 | 0.00 | 0.00 | 69 | 1018.3 |
| 20260901141832 | 89 | 268 | 2.6 | 4.3 | 0.00 | 0.00 | 0.00 | 70 | 1018.3 |
| 20260901141733 | 88 | 269 | 2.6 | 4.3 | 0.00 | 0.00 | 0.00 | 70 | 1018.3 |
| 20260901141634 | 88 | 360 | 1.7 | 4.3 | 0.00 | 0.00 | 0.00 | 70 | 1018.3 |
| 20260901141554 | 88 | 360 | 1.7 | 4.3 | 0.00 | 0.00 | 0.00 | 70 | 1018.3 |
| 20260901141437 | 88 | 360 | 0.9 | 4.3 | 0.00 | 0.00 | 0.00 | 70 | 1018.3 |
| 20260901141317 | 88 | 360 | 1.7 | 4.3 | 0.00 | 0.00 | 0.00 | 71 | 1018.3 |
| 20260901141217 | 88 | 360 | 1.7 | 5.2 | 0.00 | 0.00 | 0.00 | 72 | 1018.4 |
| 20260901141118 | 88 | 360 | 1.7 | 5.2 | 0.00 | 0.00 | 0.00 | 72 | 1018.4 |
| 20260901141018 | 87 | 360 | 1.7 | 5.2 | 0.00 | 0.00 | 0.00 | 72 | 1018.4 |
| 20260901140918 | 87 | 360 | 1.7 | 5.2 | 0.00 | 0.00 | 0.00 | 72 | 1018.4 |
| 20260901140819 | 87 | 317 | 1.7 | 5.2 | 0.00 | 0.00 | 0.00 | 72 | 1018.4 |
| 20260901140724 | 87 | 325 | 2.6 | 5.2 | 0.00 | 0.00 | 0.00 | 72 | 1018.3 |
| 20260901140625 | 87 | 325 | 2.6 | 5.2 | 0.00 | 0.00 | 0.00 | 72 | 1018.4 |
| 20260901140526 | 87 | 323 | 2.6 | 5.2 | 0.00 | 0.00 | 0.00 | 73 | 1018.4 |
| 20260901140426 | 87 | 313 | 1.7 | 5.2 | 0.00 | 0.00 | 0.00 | 73 | 1018.4 |
| 20260901140327 | 87 | 360 | 1.7 | 5.2 | 0.00 | 0.00 | 0.00 | 73 | 1018.4 |
| 20260901140248 | 86 | 360 | 2.6 | 5.2 | 0.00 | 0.00 | 0.00 | 73 | 1018.4 |
| 20260901140127 | 86 | 360 | 2.6 | 5.2 | 0.00 | 0.00 | 0.00 | 73 | 1018.4 |
| 20260901140032 | 86 | 329 | 2.6 | 5.2 | 0.00 | 0.00 | 0.00 | 73 | 1018.4 |
| 20260901135933 | 87 | 360 | 1.7 | 5.2 | 0.00 | 0.00 | 0.00 | 73 | 1018.4 |
| 20260901135835 | 86 | 304 | 1.7 | 5.2 | 0.00 | 0.00 | 0.00 | 73 | 1018.4 |
| 20260901135733 | 87 | 308 | 1.7 | 5.2 | 0.00 | 0.00 | 0.00 | 73 | 1018.5 |
| 20260901135633 | 86 | 360 | 0.9 | 4.3 | 0.00 | 0.00 | 0.00 | 73 | 1018.5 |
| 20260901135533 | 86 | 304 | 1.7 | 3.5 | 0.00 | 0.00 | 0.00 | 73 | 1018.5 |
| 20260901135418 | 86 | 360 | 1.7 | 3.5 | 0.00 | 0.00 | 0.00 | 75 | 1018.4 |
| 20260901135318 | 86 | 360 | 1.7 | 3.5 | 0.00 | 0.00 | 0.00 | 75 | 1018.4 |
| 20260901135218 | 86 | 360 | 1.7 | 3.5 | 0.00 | 0.00 | 0.00 | 75 | 1018.4 |
| 20260901135138 | 85 | 309 | 1.7 | 3.5 | 0.00 | 0.00 | 0.00 | 76 | 1018.5 |
| 20260901135018 | 85 | 309 | 1.7 | 3.5 | 0.00 | 0.00 | 0.00 | 76 | 1018.4 |
| 20260901134917 | 85 | 311 | 1.7 | 3.5 | 0.00 | 0.00 | 0.00 | 76 | 1018.5 |
| 20260901134819 | 84 | 315 | 1.7 | 2.6 | 0.00 | 0.00 | 0.00 | 76 | 1018.4 |
| 20260901134723 | 85 | 360 | 1.7 | 2.6 | 0.00 | 0.00 | 0.00 | 76 | 1018.4 |
| 20260901134624 | 85 | 315 | 1.7 | 2.6 | 0.00 | 0.00 | 0.00 | 76 | 1018.4 |
| 20260901134524 | 85 | 316 | 1.7 | 2.6 | 0.00 | 0.00 | 0.00 | 76 | 1018.3 |
| 20260901134425 | 85 | 315 | 0.9 | 2.6 | 0.00 | 0.00 | 0.00 | 76 | 1018.3 |
| 20260901134345 | 84 | 315 | 0.9 | 1.7 | 0.00 | 0.00 | 0.00 | 77 | 1018.3 |
| 20260901134224 | 84 | 315 | 0.9 | 1.7 | 0.00 | 0.00 | 0.00 | 77 | 1018.2 |
| 20260901134123 | 84 | 360 | 0.9 | 1.7 | 0.00 | 0.00 | 0.00 | 78 | 1018.3 |
| 20260901134024 | 84 | 315 | 0.9 | 1.7 | 0.00 | 0.00 | 0.00 | 78 | 1018.3 |
| 20260901133929 | 83 | 315 | 0.9 | 1.7 | 0.00 | 0.00 | 0.00 | 79 | 1018.2 |
| 20260901133830 | 83 | 360 | 0.0 | 1.7 | 0.00 | 0.00 | 0.00 | 79 | 1018.2 |
| 20260901133749 | 83 | 360 | 0.0 | 1.7 | 0.00 | 0.00 | 0.00 | 80 | 1018.3 |
| 20260901133629 | 83 | 316 | 0.9 | 2.6 | 0.00 | 0.00 | 0.00 | 80 | 1018.1 |
| 20260901133530 | 82 | 315 | 0.9 | 2.6 | 0.00 | 0.00 | 0.00 | 80 | 1018.1 |
| 20260901133450 | 82 | 316 | 0.9 | 2.6 | 0.00 | 0.00 | 0.00 | 81 | 1018.1 |
| 20260901133329 | 82 | 316 | 0.9 | 2.6 | 0.00 | 0.00 | 0.00 | 81 | 1018.1 |
| 20260901133235 | 81 | 316 | 0.9 | 2.6 | 0.00 | 0.00 | 0.00 | 81 | 1018.2 |
| 20260901133134 | 81 | 317 | 0.9 | 2.6 | 0.00 | 0.00 | 0.00 | 81 | 1018.1 |
| 20260901133035 | 81 | 317 | 1.7 | 2.6 | 0.00 | 0.00 | 0.00 | 82 | 1018.1 |
| 20260901132935 | 81 | 316 | 1.7 | 2.6 | 0.00 | 0.00 | 0.00 | 82 | 1018.1 |
| 20260901132837 | 81 | 317 | 1.7 | 2.6 | 0.00 | 0.00 | 0.00 | 82 | 1018.1 |
| 20260901132735 | 81 | 313 | 1.7 | 2.6 | 0.00 | 0.00 | 0.00 | 82 | 1018.1 |
| 20260901132656 | 81 | 314 | 0.9 | 2.6 | 0.00 | 0.00 | 0.00 | 82 | 1018.1 |
| 20260901132520 | 80 | 315 | 1.7 | 2.6 | 0.00 | 0.00 | 0.00 | 82 | 1018.1 |
| 20260901132421 | 80 | 315 | 1.7 | 2.6 | 0.00 | 0.00 | 0.00 | 83 | 1018.0 |
| 20260901132322 | 80 | 315 | 1.7 | 2.6 | 0.00 | 0.00 | 0.00 | 83 | 1018.0 |
| 20260901132221 | 80 | 309 | 1.7 | 2.6 | 0.00 | 0.00 | 0.00 | 84 | 1018.1 |
| 20260901132122 | 80 | 309 | 0.9 | 2.6 | 0.00 | 0.00 | 0.00 | 84 | 1018.0 |
| 20260901132023 | 80 | 309 | 1.7 | 2.6 | 0.00 | 0.00 | 0.00 | 84 | 1018.0 |
| 20260901131923 | 79 | 309 | 1.7 | 2.6 | 0.00 | 0.00 | 0.00 | 84 | 1018.0 |
| 20260901131849 | 79 | 309 | 0.9 | 2.6 | 0.00 | 0.00 | 0.00 | 84 | 1018.0 |
| 20260901131727 | 79 | 360 | 1.7 | 2.6 | 0.00 | 0.00 | 0.00 | 84 | 1018.0 |
| 20260901131628 | 79 | 307 | 0.9 | 2.6 | 0.00 | 0.00 | 0.00 | 84 | 1018.0 |
| 20260901131530 | 79 | 308 | 0.9 | 2.6 | 0.00 | 0.00 | 0.00 | 84 | 1018.0 |
| 20260901131430 | 79 | 308 | 0.0 | 2.6 | 0.00 | 0.00 | 0.00 | 84 | 1017.9 |
| 20260901131330 | 79 | 308 | 0.9 | 2.6 | 0.00 | 0.00 | 0.00 | 85 | 1018.0 |
| 20260901131231 | 79 | 360 | 0.9 | 2.6 | 0.00 | 0.00 | 0.00 | 85 | 1017.9 |
| 20260901131155 | 79 | 309 | 0.9 | 3.5 | 0.00 | 0.00 | 0.00 | 85 | 1017.9 |
| 20260901131055 | 79 | 309 | 0.9 | 3.5 | 0.00 | 0.00 | 0.00 | 85 | 1017.9 |
| 20260901130935 | 79 | 360 | 0.9 | 3.5 | 0.00 | 0.00 | 0.00 | 85 | 1017.9 |
| 20260901130836 | 78 | 306 | 0.9 | 3.5 | 0.00 | 0.00 | 0.00 | 85 | 1017.9 |
| 20260901130735 | 79 | 306 | 1.7 | 3.5 | 0.00 | 0.00 | 0.00 | 85 | 1017.9 |
| 20260901130636 | 78 | 306 | 1.7 | 3.5 | 0.00 | 0.00 | 0.00 | 85 | 1017.8 |
| 20260901130535 | 78 | 306 | 1.7 | 3.5 | 0.00 | 0.00 | 0.00 | 86 | 1017.9 |
| 20260901130435 | 78 | 304 | 1.7 | 3.5 | 0.00 | 0.00 | 0.00 | 86 | 1017.9 |
| 20260901130320 | 78 | 304 | 1.7 | 3.5 | 0.00 | 0.00 | 0.00 | 86 | 1017.8 |
| 20260901130219 | 78 | 360 | 1.7 | 2.6 | 0.00 | 0.00 | 0.00 | 86 | 1017.8 |
| 20260901130120 | 78 | 360 | 1.7 | 2.6 | 0.00 | 0.00 | 0.00 | 86 | 1017.7 |
| 20260901130021 | 78 | 360 | 1.7 | 2.6 | 0.00 | 0.00 | 0.00 | 86 | 1017.8 |
| 20260901125942 | 78 | 360 | 1.7 | 2.6 | 0.00 | 0.00 | 0.00 | 86 | 1017.8 |
| 20260901125823 | 78 | 360 | 1.7 | 2.6 | 0.00 | 0.00 | 0.00 | 86 | 1017.8 |
| 20260901125722 | 78 | 360 | 1.7 | 2.6 | 0.00 | 0.00 | 0.00 | 86 | 1017.9 |
| 20260901125627 | 78 | 360 | 1.7 | 2.6 | 0.00 | 0.00 | 0.00 | 87 | 1017.8 |
| 20260901125527 | 78 | 360 | 1.7 | 2.6 | 0.00 | 0.00 | 0.00 | 86 | 1017.7 |
| 20260901125427 | 77 | 360 | 0.9 | 1.7 | 0.00 | 0.00 | 0.00 | 87 | 1017.7 |
| 20260901125328 | 77 | 360 | 0.9 | 1.7 | 0.00 | 0.00 | 0.00 | 87 | 1017.7 |
| 20260901125228 | 77 | 360 | 1.7 | 1.7 | 0.00 | 0.00 | 0.00 | 87 | 1017.8 |
| 20260901125149 | 77 | 360 | 0.9 | 1.7 | 0.00 | 0.00 | 0.00 | 87 | 1017.7 |
| 20260901125028 | 77 | 360 | 0.9 | 1.7 | 0.00 | 0.00 | 0.00 | 87 | 1017.7 |
| 20260901124933 | 77 | 360 | 0.9 | 1.7 | 0.00 | 0.00 | 0.00 | 87 | 1017.7 |
| 20260901124834 | 77 | 360 | 0.9 | 1.7 | 0.00 | 0.00 | 0.00 | 87 | 1017.7 |
| 20260901124734 | 77 | 360 | 0.9 | 1.7 | 0.00 | 0.00 | 0.00 | 87 | 1017.7 |
| 20260901124635 | 77 | 360 | 0.9 | 1.7 | 0.00 | 0.00 | 0.00 | 87 | 1017.6 |
| 20260901124535 | 77 | 360 | 0.9 | 1.7 | 0.00 | 0.00 | 0.00 | 88 | 1017.7 |
| 20260901124416 | 76 | 360 | 0.9 | 1.7 | 0.00 | 0.00 | 0.00 | 88 | 1017.6 |
| 20260901124321 | 76 | 360 | 0.9 | 1.7 | 0.00 | 0.00 | 0.00 | 88 | 1017.5 |
| 20260901124222 | 76 | 360 | 0.9 | 1.7 | 0.00 | 0.00 | 0.00 | 88 | 1017.6 |
| 20260901124122 | 76 | 360 | 0.0 | 1.7 | 0.00 | 0.00 | 0.00 | 88 | 1017.6 |
| 20260901124023 | 76 | 360 | 0.0 | 0.0 | 0.00 | 0.00 | 0.00 | 88 | 1017.6 |
| 20260901123923 | 76 | 360 | 0.0 | 0.0 | 0.00 | 0.00 | 0.00 | 88 | 1017.6 |
| 20260901123823 | 76 | 360 | 0.0 | 0.0 | 0.00 | 0.00 | 0.00 | 88 | 1017.5 |
| 20260901123728 | 76 | 360 | 0.0 | 0.0 | 0.00 | 0.00 | 0.00 | 88 | 1017.5 |
| 20260901123628 | 76 | 360 | 0.0 | 0.0 | 0.00 | 0.00 | 0.00 | 88 | 1017.5 |
| 20260901123529 | 76 | 360 | 0.0 | 0.0 | 0.00 | 0.00 | 0.00 | 88 | 1017.5 |
| 20260901123429 | 76 | 360 | 0.0 | 0.0 | 0.00 | 0.00 | 0.00 | 88 | 1017.5 |
| 20260901123329 | 76 | 360 | 0.0 | 0.0 | 0.00 | 0.00 | 0.00 | 88 | 1017.5 |
| 20260901123229 | 76 | 360 | 0.0 | 0.0 | 0.00 | 0.00 | 0.00 | 88 | 1017.5 |
| 20260901123130 | 76 | 360 | 0.0 | 0.0 | 0.00 | 0.00 | 0.00 | 88 | 1017.5 |
| 20260901123034 | 76 | 360 | 0.0 | 0.0 | 0.00 | 0.00 | 0.00 | 87 | 1017.5 |
| 20260901122934 | 76 | 360 | 0.0 | 0.0 | 0.00 | 0.00 | 0.00 | 87 | 1017.4 |
| 20260901122817 | 76 | 360 | 0.0 | 0.0 | 0.00 | 0.00 | 0.00 | 87 | 1017.5 |
| 20260901122717 | 76 | 360 | 0.0 | 0.0 | 0.00 | 0.00 | 0.00 | 87 | 1017.4 |
| 20260901122617 | 75 | 360 | 0.0 | 0.0 | 0.00 | 0.00 | 0.00 | 87 | 1017.4 |
| 20260901122518 | 75 | 360 | 0.0 | 0.0 | 0.00 | 0.00 | 0.00 | 87 | 1017.4 |
| 20260901122439 | 76 | 360 | 0.0 | 0.0 | 0.00 | 0.00 | 0.00 | 87 | 1017.4 |
| 20260901122322 | 75 | 360 | 0.0 | 0.9 | 0.00 | 0.00 | 0.00 | 87 | 1017.4 |
| 20260901122223 | 75 | 360 | 0.0 | 0.9 | 0.00 | 0.00 | 0.00 | 87 | 1017.4 |
| 20260901122124 | 76 | 360 | 0.0 | 0.9 | 0.00 | 0.00 | 0.00 | 87 | 1017.4 |
| 20260901122024 | 76 | 360 | 0.0 | 0.9 | 0.00 | 0.00 | 0.00 | 87 | 1017.4 |
| 20260901121925 | 76 | 360 | 0.0 | 0.9 | 0.00 | 0.00 | 0.00 | 87 | 1017.4 |
| 20260901121824 | 76 | 360 | 0.0 | 1.7 | 0.00 | 0.00 | 0.00 | 87 | 1017.4 |
| 20260901121745 | 76 | 360 | 0.0 | 1.7 | 0.00 | 0.00 | 0.00 | 87 | 1017.4 |
| 20260901121625 | 76 | 360 | 0.0 | 1.7 | 0.00 | 0.00 | 0.00 | 87 | 1017.3 |
| 20260901121529 | 76 | 360 | 0.0 | 1.7 | 0.00 | 0.00 | 0.00 | 87 | 1017.4 |
| 20260901121450 | 76 | 360 | 0.0 | 1.7 | 0.00 | 0.00 | 0.00 | 87 | 1017.3 |
| 20260901121330 | 76 | 360 | 0.0 | 1.7 | 0.00 | 0.00 | 0.00 | 87 | 1017.4 |
| 20260901121231 | 76 | 360 | 0.0 | 1.7 | 0.00 | 0.00 | 0.00 | 87 | 1017.3 |
| 20260901121131 | 76 | 360 | 0.0 | 1.7 | 0.00 | 0.00 | 0.00 | 87 | 1017.4 |
| 20260901121031 | 76 | 360 | 0.0 | 1.7 | 0.00 | 0.00 | 0.00 | 87 | 1017.4 |
| 20260901120916 | 76 | 360 | 0.0 | 1.7 | 0.00 | 0.00 | 0.00 | 87 | 1017.4 |
| 20260901120816 | 76 | 360 | 0.0 | 0.9 | 0.00 | 0.00 | 0.00 | 87 | 1017.3 |
| 20260901120717 | 76 | 360 | 0.0 | 0.0 | 0.00 | 0.00 | 0.00 | 87 | 1017.4 |
| 20260901120617 | 76 | 360 | 0.0 | 0.0 | 0.00 | 0.00 | 0.00 | 87 | 1017.4 |
| 20260901120518 | 76 | 360 | 0.0 | 0.0 | 0.00 | 0.00 | 0.00 | 87 | 1017.4 |
| 20260901120438 | 76 | 360 | 0.0 | 0.0 | 0.00 | 0.00 | 0.00 | 87 | 1017.4 |
| 20260901120319 | 76 | 360 | 0.0 | 0.0 | 0.00 | 0.00 | 0.00 | 87 | 1017.4 |
| 20260901120224 | 76 | 360 | 0.0 | 0.0 | 0.00 | 0.00 | 0.00 | 87 | 1017.4 |
| 20260901120124 | 76 | 360 | 0.0 | 1.7 | 0.00 | 0.00 | 0.00 | 87 | 1017.4 |
| 20260901120044 | 76 | 360 | 0.0 | 1.7 | 0.00 | 0.00 | 0.00 | 87 | 1017.3 |
| 20260901115923 | 76 | 360 | 0.0 | 1.7 | 0.00 | 0.00 | 0.00 | 87 | 1017.4 |
| 20260901115846 | 76 | 360 | 0.0 | 1.7 | 0.00 | 0.00 | 0.00 | 87 | 1017.4 |
| 20260901115744 | 76 | 360 | 0.0 | 1.7 | 0.00 | 0.00 | 0.00 | 87 | 1017.4 |
| 20260901115624 | 76 | 360 | 0.0 | 1.7 | 0.00 | 0.00 | 0.00 | 87 | 1017.4 |
| 20260901115525 | 76 | 360 | 0.0 | 1.7 | 0.00 | 0.00 | 0.00 | 86 | 1017.4 |
| 20260901115429 | 76 | 360 | 0.9 | 1.7 | 0.00 | 0.00 | 0.00 | 86 | 1017.4 |
| 20260901115330 | 76 | 360 | 0.9 | 1.7 | 0.00 | 0.00 | 0.00 | 86 | 1017.4 |
| 20260901115250 | 76 | 360 | 0.9 | 1.7 | 0.00 | 0.00 | 0.00 | 86 | 1017.4 |
| 20260901115130 | 76 | 360 | 0.9 | 1.7 | 0.00 | 0.00 | 0.00 | 86 | 1017.4 |
| 20260901115030 | 76 | 360 | 0.9 | 1.7 | 0.00 | 0.00 | 0.00 | 86 | 1017.4 |
| 20260901114930 | 76 | 360 | 0.9 | 1.7 | 0.00 | 0.00 | 0.00 | 86 | 1017.4 |
| 20260901114831 | 76 | 360 | 0.9 | 1.7 | 0.00 | 0.00 | 0.00 | 86 | 1017.5 |
| 20260901114735 | 76 | 360 | 0.9 | 1.7 | 0.00 | 0.00 | 0.00 | 86 | 1017.4 |
| 20260901114635 | 76 | 360 | 0.9 | 1.7 | 0.00 | 0.00 | 0.00 | 86 | 1017.4 |
| 20260901114516 | 76 | 360 | 0.9 | 1.7 | 0.00 | 0.00 | 0.00 | 86 | 1017.4 |
| 20260901114417 | 76 | 360 | 1.7 | 1.7 | 0.00 | 0.00 | 0.00 | 86 | 1017.4 |
| 20260901114317 | 76 | 360 | 1.7 | 1.7 | 0.00 | 0.00 | 0.00 | 86 | 1017.4 |
| 20260901114217 | 76 | 360 | 1.7 | 1.7 | 0.00 | 0.00 | 0.00 | 86 | 1017.3 |
| 20260901114122 | 76 | 360 | 0.9 | 1.7 | 0.00 | 0.00 | 0.00 | 86 | 1017.4 |
| 20260901114023 | 76 | 360 | 0.9 | 1.7 | 0.00 | 0.00 | 0.00 | 86 | 1017.3 |
| 20260901113924 | 76 | 360 | 0.9 | 1.7 | 0.00 | 0.00 | 0.00 | 86 | 1017.4 |
| 20260901113825 | 76 | 360 | 0.9 | 1.7 | 0.00 | 0.00 | 0.00 | 86 | 1017.3 |
| 20260901113726 | 76 | 360 | 0.9 | 1.7 | 0.00 | 0.00 | 0.00 | 86 | 1017.3 |
| 20260901113627 | 76 | 360 | 0.9 | 1.7 | 0.00 | 0.00 | 0.00 | 86 | 1017.3 |
| 20260901113529 | 76 | 360 | 0.9 | 1.7 | 0.00 | 0.00 | 0.00 | 86 | 1017.3 |
| 20260901113454 | 76 | 360 | 0.9 | 1.7 | 0.00 | 0.00 | 0.00 | 86 | 1017.3 |
| 20260901113353 | 76 | 360 | 0.9 | 1.7 | 0.00 | 0.00 | 0.00 | 86 | 1017.3 |
| 20260901113252 | 76 | 360 | 0.9 | 1.7 | 0.00 | 0.00 | 0.00 | 87 | 1017.3 |
| 20260901113132 | 76 | 360 | 0.9 | 1.7 | 0.00 | 0.00 | 0.00 | 86 | 1017.3 |
| 20260901113032 | 76 | 360 | 0.9 | 1.7 | 0.00 | 0.00 | 0.00 | 86 | 1017.2 |
| 20260901112932 | 76 | 360 | 0.9 | 1.7 | 0.00 | 0.00 | 0.00 | 86 | 1017.3 |
| 20260901112853 | 76 | 360 | 0.9 | 1.7 | 0.00 | 0.00 | 0.00 | 86 | 1017.3 |
| 20260901112732 | 76 | 360 | 1.7 | 1.7 | 0.00 | 0.00 | 0.00 | 86 | 1017.2 |
| 20260901112637 | 76 | 360 | 1.7 | 1.7 | 0.00 | 0.00 | 0.00 | 86 | 1017.3 |
| 20260901112517 | 76 | 360 | 1.7 | 1.7 | 0.00 | 0.00 | 0.00 | 86 | 1017.3 |
| 20260901112417 | 77 | 360 | 0.9 | 1.7 | 0.00 | 0.00 | 0.00 | 86 | 1017.2 |
| 20260901112317 | 77 | 360 | 0.9 | 1.7 | 0.00 | 0.00 | 0.00 | 86 | 1017.2 |
| 20260901112239 | 77 | 360 | 0.0 | 1.7 | 0.00 | 0.00 | 0.00 | 86 | 1017.2 |
| 20260901112118 | 77 | 360 | 0.0 | 1.7 | 0.00 | 0.00 | 0.00 | 86 | 1017.1 |
| 20260901112019 | 77 | 360 | 0.0 | 1.7 | 0.00 | 0.00 | 0.00 | 86 | 1017.3 |
| 20260901111940 | 77 | 360 | 0.0 | 1.7 | 0.00 | 0.00 | 0.00 | 86 | 1017.2 |
| 20260901111823 | 77 | 360 | 0.9 | 1.7 | 0.00 | 0.00 | 0.00 | 86 | 1017.1 |
| 20260901111744 | 77 | 360 | 0.9 | 1.7 | 0.00 | 0.00 | 0.00 | 86 | 1017.2 |
| 20260901111623 | 77 | 360 | 0.9 | 1.7 | 0.00 | 0.00 | 0.00 | 86 | 1017.2 |
| 20260901111544 | 77 | 360 | 0.9 | 1.7 | 0.00 | 0.00 | 0.00 | 86 | 1017.2 |
| 20260901111443 | 77 | 360 | 0.9 | 1.7 | 0.00 | 0.00 | 0.00 | 86 | 1017.2 |
| 20260901111323 | 77 | 360 | 0.0 | 1.7 | 0.00 | 0.00 | 0.00 | 86 | 1017.2 |
| 20260901111224 | 77 | 360 | 0.0 | 1.7 | 0.00 | 0.00 | 0.00 | 86 | 1017.2 |
| 20260901111144 | 77 | 360 | 0.0 | 1.7 | 0.00 | 0.00 | 0.00 | 86 | 1017.2 |
| 20260901111044 | 77 | 360 | 0.0 | 1.7 | 0.00 | 0.00 | 0.00 | 86 | 1017.2 |
| 20260901110927 | 77 | 360 | 0.0 | 1.7 | 0.00 | 0.00 | 0.00 | 86 | 1017.2 |
| 20260901110827 | 77 | 360 | 0.0 | 1.7 | 0.00 | 0.00 | 0.00 | 86 | 1017.2 |
| 20260901110728 | 77 | 360 | 0.9 | 1.7 | 0.00 | 0.00 | 0.00 | 86 | 1017.2 |
| 20260901110629 | 77 | 360 | 0.0 | 1.7 | 0.00 | 0.00 | 0.00 | 86 | 1017.2 |
| 20260901110529 | 77 | 360 | 0.0 | 1.7 | 0.00 | 0.00 | 0.00 | 86 | 1017.2 |
| 20260901110429 | 77 | 360 | 0.0 | 1.7 | 0.00 | 0.00 | 0.00 | 86 | 1017.2 |
| 20260901110350 | 77 | 360 | 0.0 | 1.7 | 0.00 | 0.00 | 0.00 | 86 | 1017.1 |
| 20260901110233 | 77 | 360 | 0.0 | 1.7 | 0.00 | 0.00 | 0.00 | 86 | 1017.1 |
| 20260901110133 | 77 | 360 | 0.0 | 1.7 | 0.00 | 0.00 | 0.00 | 86 | 1017.1 |
| 20260901110054 | 77 | 360 | 0.0 | 1.7 | 0.00 | 0.00 | 0.00 | 86 | 1017.1 |
| 20260901105933 | 77 | 360 | 0.9 | 1.7 | 0.00 | 0.00 | 0.00 | 86 | 1017.1 |
| 20260901105836 | 77 | 360 | 0.9 | 1.7 | 0.00 | 0.00 | 0.00 | 86 | 1017.1 |
| 20260901105735 | 77 | 360 | 0.9 | 1.7 | 0.00 | 0.00 | 0.00 | 86 | 1017.1 |
| 20260901105618 | 77 | 360 | 0.9 | 2.6 | 0.00 | 0.00 | 0.00 | 86 | 1017.1 |
| 20260901105519 | 77 | 360 | 0.9 | 4.3 | 0.00 | 0.00 | 0.00 | 86 | 1017.1 |
| 20260901105419 | 77 | 360 | 0.9 | 4.3 | 0.00 | 0.00 | 0.00 | 86 | 1017.0 |
| 20260901105320 | 77 | 360 | 0.0 | 4.3 | 0.00 | 0.00 | 0.00 | 86 | 1017.0 |
| 20260901105221 | 77 | 360 | 0.0 | 4.3 | 0.00 | 0.00 | 0.00 | 86 | 1017.1 |
| 20260901105122 | 77 | 360 | 0.0 | 4.3 | 0.00 | 0.00 | 0.00 | 86 | 1017.1 |
| 20260901105023 | 77 | 360 | 0.9 | 4.3 | 0.00 | 0.00 | 0.00 | 86 | 1017.1 |
| 20260901104928 | 77 | 360 | 0.9 | 4.3 | 0.00 | 0.00 | 0.00 | 86 | 1017.1 |
| 20260901104828 | 77 | 360 | 1.7 | 4.3 | 0.00 | 0.00 | 0.00 | 86 | 1017.1 |
| 20260901104729 | 77 | 360 | 1.7 | 4.3 | 0.00 | 0.00 | 0.00 | 86 | 1017.1 |
| 20260901104629 | 77 | 360 | 1.7 | 4.3 | 0.00 | 0.00 | 0.00 | 86 | 1017.1 |
| 20260901104531 | 77 | 360 | 1.7 | 4.3 | 0.00 | 0.00 | 0.00 | 86 | 1017.1 |
| 20260901104431 | 77 | 360 | 1.7 | 4.3 | 0.00 | 0.00 | 0.00 | 86 | 1017.0 |
| 20260901104332 | 77 | 360 | 1.7 | 4.3 | 0.00 | 0.00 | 0.00 | 86 | 1017.0 |
| 20260901104235 | 77 | 360 | 1.7 | 4.3 | 0.00 | 0.00 | 0.00 | 86 | 1017.0 |
| 20260901104116 | 77 | 360 | 1.7 | 4.3 | 0.00 | 0.00 | 0.00 | 86 | 1017.0 |
| 20260901104017 | 77 | 360 | 1.7 | 3.5 | 0.00 | 0.00 | 0.00 | 86 | 1017.1 |
| 20260901103918 | 77 | 360 | 1.7 | 3.5 | 0.00 | 0.00 | 0.00 | 86 | 1017.1 |
| 20260901103818 | 77 | 360 | 1.7 | 3.5 | 0.00 | 0.00 | 0.00 | 86 | 1017.1 |
| 20260901103719 | 77 | 360 | 1.7 | 3.5 | 0.00 | 0.00 | 0.00 | 86 | 1017.1 |
| 20260901103625 | 77 | 360 | 1.7 | 3.5 | 0.00 | 0.00 | 0.00 | 86 | 1017.0 |
| 20260901103525 | 77 | 360 | 1.7 | 3.5 | 0.00 | 0.00 | 0.00 | 86 | 1017.1 |
| 20260901103425 | 77 | 360 | 1.7 | 3.5 | 0.00 | 0.00 | 0.00 | 86 | 1017.1 |
| 20260901103326 | 77 | 360 | 1.7 | 4.3 | 0.00 | 0.00 | 0.00 | 86 | 1016.9 |
| 20260901103226 | 77 | 360 | 0.9 | 4.3 | 0.00 | 0.00 | 0.00 | 86 | 1017.0 |
| 20260901103127 | 77 | 360 | 0.9 | 4.3 | 0.00 | 0.00 | 0.00 | 86 | 1017.0 |
| 20260901103027 | 77 | 360 | 0.9 | 4.3 | 0.00 | 0.00 | 0.00 | 86 | 1017.0 |
| 20260901102932 | 77 | 360 | 0.9 | 4.3 | 0.00 | 0.00 | 0.00 | 85 | 1017.0 |
| 20260901102834 | 77 | 360 | 0.9 | 4.3 | 0.00 | 0.00 | 0.00 | 85 | 1017.0 |
| 20260901102734 | 77 | 360 | 1.7 | 4.3 | 0.00 | 0.00 | 0.00 | 85 | 1017.1 |
| 20260901102655 | 77 | 360 | 1.7 | 4.3 | 0.00 | 0.00 | 0.00 | 85 | 1017.1 |
| 20260901102555 | 77 | 360 | 1.7 | 4.3 | 0.00 | 0.00 | 0.00 | 85 | 1017.0 |
| 20260901102434 | 77 | 360 | 0.9 | 4.3 | 0.00 | 0.00 | 0.00 | 85 | 1017.0 |
| 20260901102334 | 77 | 360 | 1.7 | 4.3 | 0.00 | 0.00 | 0.00 | 85 | 1017.0 |
| 20260901102241 | 77 | 360 | 1.7 | 4.3 | 0.00 | 0.00 | 0.00 | 85 | 1017.0 |
| 20260901102121 | 77 | 360 | 2.6 | 4.3 | 0.00 | 0.00 | 0.00 | 85 | 1017.1 |
| 20260901102021 | 77 | 360 | 1.7 | 4.3 | 0.00 | 0.00 | 0.00 | 85 | 1017.0 |
| 20260901101921 | 77 | 360 | 1.7 | 4.3 | 0.00 | 0.00 | 0.00 | 85 | 1017.0 |
| 20260901101823 | 77 | 360 | 1.7 | 3.5 | 0.00 | 0.00 | 0.00 | 85 | 1017.1 |
| 20260901101744 | 77 | 360 | 1.7 | 3.5 | 0.00 | 0.00 | 0.00 | 85 | 1017.0 |
| 20260901101624 | 77 | 360 | 1.7 | 3.5 | 0.00 | 0.00 | 0.00 | 85 | 1017.0 |
| 20260901101528 | 77 | 360 | 0.9 | 3.5 | 0.00 | 0.00 | 0.00 | 85 | 1017.1 |
| 20260901101429 | 77 | 360 | 0.9 | 3.5 | 0.00 | 0.00 | 0.00 | 85 | 1017.0 |
| 20260901101329 | 77 | 360 | 0.9 | 3.5 | 0.00 | 0.00 | 0.00 | 85 | 1017.1 |
| 20260901101250 | 77 | 360 | 0.9 | 3.5 | 0.00 | 0.00 | 0.00 | 84 | 1017.0 |
| 20260901101130 | 77 | 360 | 0.9 | 3.5 | 0.00 | 0.00 | 0.00 | 84 | 1017.0 |
| 20260901101051 | 77 | 360 | 1.7 | 5.2 | 0.00 | 0.00 | 0.00 | 84 | 1017.0 |
| 20260901100930 | 77 | 360 | 1.7 | 5.2 | 0.00 | 0.00 | 0.00 | 84 | 1017.0 |
| 20260901100831 | 77 | 360 | 1.7 | 5.2 | 0.00 | 0.00 | 0.00 | 84 | 1017.0 |
| 20260901100735 | 77 | 360 | 1.7 | 5.2 | 0.00 | 0.00 | 0.00 | 84 | 1017.0 |
| 20260901100636 | 77 | 360 | 1.7 | 5.2 | 0.00 | 0.00 | 0.00 | 84 | 1017.1 |
| 20260901100534 | 77 | 360 | 0.9 | 5.2 | 0.00 | 0.00 | 0.00 | 84 | 1017.0 |
| 20260901100434 | 77 | 360 | 0.9 | 5.2 | 0.00 | 0.00 | 0.00 | 84 | 1017.1 |
| 20260901100334 | 77 | 360 | 0.9 | 5.2 | 0.00 | 0.00 | 0.00 | 84 | 1017.0 |
| 20260901100235 | 77 | 360 | 0.9 | 5.2 | 0.00 | 0.00 | 0.00 | 84 | 1017.1 |